Wetterdaten: Donnerstag, 06.07.2023
Datum Zeit Temp. I. Temp. A. Feuchte I. Feuchte A. Luftdruck Regen Wind Richtung Richtung Sonnenschein Solar Taupunkt Windchill Windböen
06.07.2023 00:00 23,1 °C 15,1 °C 55 % 71 % 1015,1 hPa 0,0 l/m² 0,2 km/h (0 Bft) S-SW 209 ° 0 min 0 W/m² 9,9 °C 15,1 °C 1,6 km/h (1 Bft)
06.07.2023 00:02 23,1 °C 15,2 °C 55 % 71 % 1015,1 hPa 0,0 l/m² 0,6 km/h (0 Bft) S-SW 209 ° 0 min 0 W/m² 10,0 °C 15,2 °C 3,2 km/h (1 Bft)
06.07.2023 00:04 23,1 °C 15,2 °C 55 % 71 % 1015,1 hPa 0,0 l/m² 0,7 km/h (0 Bft) S-SW 209 ° 0 min 0 W/m² 10,0 °C 15,2 °C 3,2 km/h (1 Bft)
06.07.2023 00:05 23,1 °C 15,2 °C 55 % 71 % 1015,2 hPa 0,0 l/m² 0,4 km/h (0 Bft) S-SW 209 ° 0 min 0 W/m² 10,0 °C 15,2 °C 1,6 km/h (1 Bft)
06.07.2023 00:07 23,1 °C 15,2 °C 55 % 71 % 1015,2 hPa 0,0 l/m² 1,4 km/h (1 Bft) S-SW 209 ° 0 min 0 W/m² 10,0 °C 15,2 °C 4,8 km/h (1 Bft)
06.07.2023 00:09 23,1 °C 15,2 °C 55 % 71 % 1015,2 hPa 0,0 l/m² 1,4 km/h (1 Bft) S-SW 209 ° 0 min 0 W/m² 10,0 °C 15,2 °C 3,2 km/h (1 Bft)
06.07.2023 00:11 23,1 °C 15,3 °C 55 % 70 % 1015,1 hPa 0,0 l/m² 0,7 km/h (0 Bft) S-SW 209 ° 0 min 0 W/m² 9,9 °C 15,3 °C 4,8 km/h (1 Bft)
06.07.2023 00:12 23,1 °C 15,3 °C 55 % 70 % 1015,2 hPa 0,0 l/m² 1,5 km/h (1 Bft) S-SW 209 ° 0 min 0 W/m² 9,9 °C 15,3 °C 3,2 km/h (1 Bft)
06.07.2023 00:13 23,1 °C 15,3 °C 55 % 70 % 1015,2 hPa 0,0 l/m² 1,2 km/h (1 Bft) S-SW 209 ° 0 min 0 W/m² 9,9 °C 15,3 °C 3,2 km/h (1 Bft)
06.07.2023 00:14 23,1 °C 15,4 °C 55 % 70 % 1015,2 hPa 0,0 l/m² 0,7 km/h (0 Bft) S-SW 209 ° 0 min 0 W/m² 10,0 °C 15,4 °C 1,6 km/h (1 Bft)
06.07.2023 00:15 23,1 °C 15,4 °C 55 % 70 % 1015,1 hPa 0,0 l/m² 0,0 km/h (0 Bft) S-SW 209 ° 0 min 0 W/m² 10,0 °C 15,4 °C 0,0 km/h (0 Bft)
06.07.2023 00:17 23,1 °C 15,5 °C 55 % 70 % 1015,2 hPa 0,0 l/m² 0,4 km/h (0 Bft) S-SW 209 ° 0 min 0 W/m² 10,1 °C 15,5 °C 1,6 km/h (1 Bft)
06.07.2023 00:19 23,0 °C 15,6 °C 55 % 70 % 1015,1 hPa 0,0 l/m² 0,0 km/h (0 Bft) S-SW 209 ° 0 min 0 W/m² 10,1 °C 15,6 °C 0,0 km/h (0 Bft)
06.07.2023 00:21 23,1 °C 15,5 °C 55 % 69 % 1015,3 hPa 0,0 l/m² 0,3 km/h (0 Bft) S-SW 209 ° 0 min 0 W/m² 9,8 °C 15,5 °C 1,6 km/h (1 Bft)
06.07.2023 00:23 23,1 °C 15,6 °C 55 % 69 % 1015,2 hPa 0,0 l/m² 1,3 km/h (1 Bft) S-SW 209 ° 0 min 0 W/m² 9,9 °C 15,6 °C 3,2 km/h (1 Bft)
06.07.2023 00:24 23,1 °C 15,6 °C 55 % 70 % 1015,2 hPa 0,0 l/m² 0,0 km/h (0 Bft) S-SW 209 ° 0 min 0 W/m² 10,1 °C 15,6 °C 0,0 km/h (0 Bft)
06.07.2023 00:25 23,1 °C 15,5 °C 55 % 70 % 1015,2 hPa 0,0 l/m² 0,0 km/h (0 Bft) S-SW 209 ° 0 min 0 W/m² 10,1 °C 15,5 °C 0,0 km/h (0 Bft)
06.07.2023 00:27 23,0 °C 15,6 °C 55 % 70 % 1015,2 hPa 0,0 l/m² 0,7 km/h (0 Bft) S-SW 209 ° 0 min 0 W/m² 10,1 °C 15,6 °C 1,6 km/h (1 Bft)
06.07.2023 00:29 23,0 °C 15,6 °C 55 % 68 % 1015,3 hPa 0,0 l/m² 4,2 km/h (1 Bft) S-SW 213 ° 0 min 0 W/m² 9,7 °C 15,6 °C 8,0 km/h (2 Bft)
06.07.2023 00:31 23,0 °C 15,7 °C 55 % 68 % 1015,3 hPa 0,0 l/m² 3,7 km/h (1 Bft) SW 229 ° 0 min 0 W/m² 9,8 °C 15,7 °C 6,4 km/h (2 Bft)
06.07.2023 00:32 23,0 °C 15,7 °C 55 % 69 % 1015,3 hPa 0,0 l/m² 5,9 km/h (2 Bft) S-SW 212 ° 0 min 0 W/m² 10,0 °C 15,7 °C 6,4 km/h (2 Bft)
06.07.2023 00:33 23,1 °C 15,7 °C 55 % 69 % 1015,3 hPa 0,0 l/m² 5,0 km/h (1 Bft) S-SW 211 ° 0 min 0 W/m² 10,0 °C 15,7 °C 6,4 km/h (2 Bft)
06.07.2023 00:35 23,0 °C 15,7 °C 55 % 69 % 1015,4 hPa 0,0 l/m² 5,7 km/h (2 Bft) SW 222 ° 0 min 0 W/m² 10,0 °C 15,7 °C 6,4 km/h (2 Bft)
06.07.2023 00:37 23,1 °C 15,7 °C 55 % 69 % 1015,4 hPa 0,0 l/m² 5,7 km/h (2 Bft) SW 215 ° 0 min 0 W/m² 10,0 °C 15,7 °C 9,7 km/h (2 Bft)
06.07.2023 00:39 23,0 °C 15,8 °C 55 % 68 % 1015,3 hPa 0,0 l/m² 5,2 km/h (1 Bft) S-SW 202 ° 0 min 0 W/m² 9,9 °C 15,8 °C 6,4 km/h (2 Bft)
06.07.2023 00:41 23,1 °C 15,8 °C 55 % 68 % 1015,3 hPa 0,0 l/m² 6,1 km/h (2 Bft) S-SW 200 ° 0 min 0 W/m² 9,9 °C 15,8 °C 9,7 km/h (2 Bft)
06.07.2023 00:43 23,0 °C 15,8 °C 55 % 68 % 1015,3 hPa 0,0 l/m² 4,9 km/h (1 Bft) SW 214 ° 0 min 0 W/m² 9,9 °C 15,8 °C 8,0 km/h (2 Bft)
06.07.2023 00:44 23,0 °C 15,8 °C 55 % 68 % 1015,3 hPa 0,0 l/m² 3,2 km/h (1 Bft) S-SW 209 ° 0 min 0 W/m² 9,9 °C 15,8 °C 6,4 km/h (2 Bft)
06.07.2023 00:45 23,0 °C 15,8 °C 55 % 68 % 1015,4 hPa 0,0 l/m² 5,0 km/h (1 Bft) SW 226 ° 0 min 0 W/m² 9,9 °C 15,8 °C 6,4 km/h (2 Bft)
06.07.2023 00:46 23,0 °C 15,8 °C 55 % 68 % 1015,4 hPa 0,0 l/m² 3,4 km/h (1 Bft) SW 227 ° 0 min 0 W/m² 9,9 °C 15,8 °C 4,8 km/h (1 Bft)
06.07.2023 00:47 23,0 °C 15,7 °C 55 % 68 % 1015,4 hPa 0,0 l/m² 3,9 km/h (1 Bft) SW 227 ° 0 min 0 W/m² 9,8 °C 15,7 °C 4,8 km/h (1 Bft)
06.07.2023 00:49 23,0 °C 15,7 °C 55 % 67 % 1015,5 hPa 0,0 l/m² 5,8 km/h (2 Bft) SW 226 ° 0 min 0 W/m² 9,6 °C 15,7 °C 6,4 km/h (2 Bft)
06.07.2023 00:51 23,0 °C 15,7 °C 55 % 67 % 1015,5 hPa 0,0 l/m² 5,7 km/h (2 Bft) SW 219 ° 0 min 0 W/m² 9,6 °C 15,7 °C 8,0 km/h (2 Bft)
06.07.2023 00:52 23,0 °C 15,7 °C 55 % 67 % 1015,5 hPa 0,0 l/m² 6,4 km/h (2 Bft) SW 217 ° 0 min 0 W/m² 9,6 °C 15,7 °C 8,0 km/h (2 Bft)
06.07.2023 00:53 23,0 °C 15,7 °C 55 % 67 % 1015,4 hPa 0,0 l/m² 6,6 km/h (2 Bft) SW 221 ° 0 min 0 W/m² 9,6 °C 15,6 °C 8,0 km/h (2 Bft)
06.07.2023 00:55 23,0 °C 15,7 °C 55 % 67 % 1015,5 hPa 0,0 l/m² 6,0 km/h (2 Bft) SW 221 ° 0 min 0 W/m² 9,6 °C 15,7 °C 8,0 km/h (2 Bft)
06.07.2023 00:57 23,0 °C 15,7 °C 55 % 67 % 1015,4 hPa 0,0 l/m² 4,9 km/h (1 Bft) SW 221 ° 0 min 0 W/m² 9,6 °C 15,7 °C 6,4 km/h (2 Bft)
06.07.2023 00:59 23,0 °C 15,7 °C 55 % 67 % 1015,5 hPa 0,0 l/m² 5,5 km/h (2 Bft) SW 221 ° 0 min 0 W/m² 9,6 °C 15,7 °C 6,4 km/h (2 Bft)
06.07.2023 01:01 23,0 °C 15,7 °C 55 % 67 % 1015,4 hPa 0,0 l/m² 4,9 km/h (1 Bft) SW 221 ° 0 min 0 W/m² 9,6 °C 15,7 °C 6,4 km/h (2 Bft)
06.07.2023 01:02 23,0 °C 15,7 °C 55 % 67 % 1015,4 hPa 0,0 l/m² 4,7 km/h (1 Bft) SW 221 ° 0 min 0 W/m² 9,6 °C 15,7 °C 4,8 km/h (1 Bft)
06.07.2023 01:03 23,0 °C 15,6 °C 55 % 67 % 1015,4 hPa 0,0 l/m² 4,7 km/h (1 Bft) SW 221 ° 0 min 0 W/m² 9,5 °C 15,6 °C 6,4 km/h (2 Bft)
06.07.2023 01:05 23,0 °C 15,6 °C 55 % 68 % 1015,3 hPa 0,0 l/m² 4,9 km/h (1 Bft) SW 221 ° 0 min 0 W/m² 9,7 °C 15,6 °C 6,4 km/h (2 Bft)
06.07.2023 01:07 22,9 °C 15,3 °C 55 % 67 % 1015,4 hPa 0,0 l/m² 3,0 km/h (1 Bft) SW 221 ° 0 min 0 W/m² 9,2 °C 15,3 °C 4,8 km/h (1 Bft)
06.07.2023 01:09 23,0 °C 14,9 °C 55 % 68 % 1015,4 hPa 0,0 l/m² 1,9 km/h (1 Bft) SW 221 ° 0 min 0 W/m² 9,0 °C 14,9 °C 3,2 km/h (1 Bft)
06.07.2023 01:11 23,0 °C 14,6 °C 55 % 70 % 1015,4 hPa 0,0 l/m² 0,0 km/h (0 Bft) SW 221 ° 0 min 0 W/m² 9,2 °C 14,6 °C 1,6 km/h (1 Bft)
06.07.2023 01:12 23,0 °C 14,5 °C 55 % 71 % 1015,4 hPa 0,0 l/m² 0,0 km/h (0 Bft) SW 221 ° 0 min 0 W/m² 9,3 °C 14,5 °C 0,0 km/h (0 Bft)
06.07.2023 01:13 23,0 °C 14,4 °C 55 % 71 % 1015,4 hPa 0,0 l/m² 0,0 km/h (0 Bft) SW 221 ° 0 min 0 W/m² 9,2 °C 14,4 °C 0,0 km/h (0 Bft)
06.07.2023 01:15 22,9 °C 14,4 °C 55 % 72 % 1015,4 hPa 0,0 l/m² 0,0 km/h (0 Bft) SW 221 ° 0 min 0 W/m² 9,4 °C 14,4 °C 0,0 km/h (0 Bft)
06.07.2023 01:17 22,9 °C 14,4 °C 55 % 72 % 1015,4 hPa 0,0 l/m² 0,0 km/h (0 Bft) SW 221 ° 0 min 0 W/m² 9,4 °C 14,4 °C 0,0 km/h (0 Bft)
06.07.2023 01:19 23,0 °C 14,3 °C 55 % 72 % 1015,4 hPa 0,0 l/m² 0,0 km/h (0 Bft) SW 221 ° 0 min 0 W/m² 9,3 °C 14,3 °C 0,0 km/h (0 Bft)
06.07.2023 01:21 23,0 °C 14,2 °C 55 % 73 % 1015,4 hPa 0,0 l/m² 0,0 km/h (0 Bft) SW 221 ° 0 min 0 W/m² 9,4 °C 14,2 °C 0,0 km/h (0 Bft)
06.07.2023 01:22 22,9 °C 14,2 °C 55 % 73 % 1015,4 hPa 0,0 l/m² 0,0 km/h (0 Bft) SW 221 ° 0 min 0 W/m² 9,4 °C 14,2 °C 0,0 km/h (0 Bft)
06.07.2023 01:23 22,9 °C 14,1 °C 55 % 73 % 1015,4 hPa 0,0 l/m² 0,0 km/h (0 Bft) SW 221 ° 0 min 0 W/m² 9,3 °C 14,1 °C 0,0 km/h (0 Bft)
06.07.2023 01:24 23,0 °C 14,0 °C 55 % 73 % 1015,3 hPa 0,0 l/m² 0,0 km/h (0 Bft) SW 221 ° 0 min 0 W/m² 9,2 °C 14,0 °C 0,0 km/h (0 Bft)
06.07.2023 01:26 23,0 °C 13,8 °C 55 % 74 % 1015,4 hPa 0,0 l/m² 0,0 km/h (0 Bft) SW 221 ° 0 min 0 W/m² 9,2 °C 13,8 °C 0,0 km/h (0 Bft)
06.07.2023 01:28 22,9 °C 13,6 °C 55 % 75 % 1015,4 hPa 0,0 l/m² 0,0 km/h (0 Bft) SW 221 ° 0 min 0 W/m² 9,3 °C 13,6 °C 0,0 km/h (0 Bft)
06.07.2023 01:30 23,0 °C 13,6 °C 55 % 77 % 1015,5 hPa 0,0 l/m² 0,0 km/h (0 Bft) SW 221 ° 0 min 0 W/m² 9,6 °C 13,6 °C 0,0 km/h (0 Bft)
06.07.2023 01:32 23,0 °C 13,5 °C 55 % 77 % 1015,5 hPa 0,0 l/m² 0,0 km/h (0 Bft) SW 221 ° 0 min 0 W/m² 9,5 °C 13,5 °C 0,0 km/h (0 Bft)
06.07.2023 01:33 22,9 °C 13,5 °C 55 % 78 % 1015,4 hPa 0,0 l/m² 0,0 km/h (0 Bft) SW 221 ° 0 min 0 W/m² 9,7 °C 13,5 °C 0,0 km/h (0 Bft)
06.07.2023 01:34 22,9 °C 13,5 °C 55 % 78 % 1015,5 hPa 0,0 l/m² 1,0 km/h (0 Bft) SW 221 ° 0 min 0 W/m² 9,7 °C 13,5 °C 3,2 km/h (1 Bft)
06.07.2023 01:36 23,0 °C 13,6 °C 55 % 78 % 1015,5 hPa 0,0 l/m² 1,6 km/h (1 Bft) SW 221 ° 0 min 0 W/m² 9,8 °C 13,6 °C 4,8 km/h (1 Bft)
06.07.2023 01:37 22,9 °C 13,6 °C 55 % 77 % 1015,5 hPa 0,0 l/m² 2,4 km/h (1 Bft) SW 221 ° 0 min 0 W/m² 9,6 °C 13,6 °C 4,8 km/h (1 Bft)
06.07.2023 01:39 22,9 °C 13,7 °C 55 % 77 % 1015,4 hPa 0,0 l/m² 2,8 km/h (1 Bft) SW 221 ° 0 min 0 W/m² 9,7 °C 13,7 °C 4,8 km/h (1 Bft)
06.07.2023 01:41 22,9 °C 13,7 °C 55 % 77 % 1015,5 hPa 0,0 l/m² 3,0 km/h (1 Bft) SW 221 ° 0 min 0 W/m² 9,7 °C 13,7 °C 4,8 km/h (1 Bft)
06.07.2023 01:42 22,9 °C 13,7 °C 55 % 77 % 1015,5 hPa 0,0 l/m² 3,4 km/h (1 Bft) SW 221 ° 0 min 0 W/m² 9,7 °C 13,7 °C 4,8 km/h (1 Bft)
06.07.2023 01:43 22,9 °C 13,7 °C 55 % 77 % 1015,5 hPa 0,0 l/m² 3,6 km/h (1 Bft) SW 236 ° 0 min 0 W/m² 9,7 °C 13,7 °C 4,8 km/h (1 Bft)
06.07.2023 01:45 22,9 °C 13,8 °C 55 % 75 % 1015,5 hPa 0,0 l/m² 2,7 km/h (1 Bft) SW 236 ° 0 min 0 W/m² 9,4 °C 13,8 °C 4,8 km/h (1 Bft)
06.07.2023 01:47 22,9 °C 13,8 °C 55 % 75 % 1015,5 hPa 0,0 l/m² 2,0 km/h (1 Bft) SW 236 ° 0 min 0 W/m² 9,4 °C 13,8 °C 4,8 km/h (1 Bft)
06.07.2023 01:49 22,9 °C 13,9 °C 55 % 74 % 1015,5 hPa 0,0 l/m² 1,5 km/h (1 Bft) SW 236 ° 0 min 0 W/m² 9,3 °C 13,9 °C 3,2 km/h (1 Bft)
06.07.2023 01:51 22,9 °C 14,0 °C 55 % 74 % 1015,4 hPa 0,0 l/m² 2,5 km/h (1 Bft) W-SW 237 ° 0 min 0 W/m² 9,4 °C 14,0 °C 4,8 km/h (1 Bft)
06.07.2023 01:52 22,9 °C 14,1 °C 55 % 74 % 1015,5 hPa 0,0 l/m² 2,5 km/h (1 Bft) W-SW 237 ° 0 min 0 W/m² 9,5 °C 14,1 °C 4,8 km/h (1 Bft)
06.07.2023 01:53 22,9 °C 14,2 °C 55 % 74 % 1015,5 hPa 0,0 l/m² 2,5 km/h (1 Bft) W-SW 237 ° 0 min 0 W/m² 9,6 °C 14,2 °C 4,8 km/h (1 Bft)
06.07.2023 01:54 22,9 °C 14,2 °C 55 % 74 % 1015,5 hPa 0,0 l/m² 3,0 km/h (1 Bft) SW 235 ° 0 min 0 W/m² 9,6 °C 14,2 °C 4,8 km/h (1 Bft)
06.07.2023 01:56 23,0 °C 14,3 °C 55 % 73 % 1015,5 hPa 0,0 l/m² 3,4 km/h (1 Bft) SW 234 ° 0 min 0 W/m² 9,5 °C 14,3 °C 4,8 km/h (1 Bft)
06.07.2023 01:58 22,9 °C 14,4 °C 55 % 73 % 1015,5 hPa 0,0 l/m² 2,8 km/h (1 Bft) SW 236 ° 0 min 0 W/m² 9,6 °C 14,4 °C 4,8 km/h (1 Bft)
06.07.2023 02:00 22,9 °C 14,3 °C 55 % 73 % 1015,5 hPa 0,0 l/m² 1,9 km/h (1 Bft) SW 236 ° 0 min 0 W/m² 9,5 °C 14,3 °C 4,8 km/h (1 Bft)
06.07.2023 02:02 22,9 °C 14,3 °C 55 % 73 % 1015,6 hPa 0,0 l/m² 3,6 km/h (1 Bft) SW 235 ° 0 min 0 W/m² 9,5 °C 14,3 °C 6,4 km/h (2 Bft)
06.07.2023 02:04 22,9 °C 14,2 °C 55 % 73 % 1015,5 hPa 0,0 l/m² 2,6 km/h (1 Bft) SW 222 ° 0 min 0 W/m² 9,4 °C 14,2 °C 6,4 km/h (2 Bft)
06.07.2023 02:06 22,9 °C 14,2 °C 55 % 73 % 1015,6 hPa 0,0 l/m² 2,8 km/h (1 Bft) SW 222 ° 0 min 0 W/m² 9,4 °C 14,2 °C 4,8 km/h (1 Bft)
06.07.2023 02:08 22,9 °C 14,1 °C 55 % 73 % 1015,6 hPa 0,0 l/m² 3,5 km/h (1 Bft) SW 222 ° 0 min 0 W/m² 9,3 °C 14,1 °C 6,4 km/h (2 Bft)
06.07.2023 02:10 22,9 °C 14,0 °C 55 % 74 % 1015,6 hPa 0,0 l/m² 2,9 km/h (1 Bft) SW 221 ° 0 min 0 W/m² 9,4 °C 14,0 °C 4,8 km/h (1 Bft)
06.07.2023 02:13 22,9 °C 14,0 °C 55 % 74 % 1015,6 hPa 0,0 l/m² 2,2 km/h (1 Bft) SW 222 ° 0 min 0 W/m² 9,4 °C 14,0 °C 4,8 km/h (1 Bft)
06.07.2023 02:15 22,9 °C 14,0 °C 55 % 74 % 1015,7 hPa 0,0 l/m² 0,7 km/h (0 Bft) SW 221 ° 0 min 0 W/m² 9,4 °C 14,0 °C 3,2 km/h (1 Bft)
06.07.2023 02:17 22,9 °C 14,0 °C 55 % 74 % 1015,7 hPa 0,0 l/m² 1,9 km/h (1 Bft) SW 222 ° 0 min 0 W/m² 9,4 °C 14,0 °C 3,2 km/h (1 Bft)
06.07.2023 02:19 22,9 °C 14,1 °C 55 % 74 % 1015,6 hPa 0,0 l/m² 1,9 km/h (1 Bft) SW 222 ° 0 min 0 W/m² 9,5 °C 14,1 °C 4,8 km/h (1 Bft)
06.07.2023 02:22 22,9 °C 14,2 °C 55 % 73 % 1015,6 hPa 0,0 l/m² 1,4 km/h (1 Bft) SW 222 ° 0 min 0 W/m² 9,4 °C 14,2 °C 4,8 km/h (1 Bft)
06.07.2023 02:23 22,9 °C 14,2 °C 55 % 73 % 1015,7 hPa 0,0 l/m² 1,7 km/h (1 Bft) SW 222 ° 0 min 0 W/m² 9,4 °C 14,2 °C 4,8 km/h (1 Bft)
06.07.2023 02:24 22,9 °C 14,2 °C 55 % 73 % 1015,7 hPa 0,0 l/m² 0,6 km/h (0 Bft) SW 222 ° 0 min 0 W/m² 9,4 °C 14,2 °C 1,6 km/h (1 Bft)
06.07.2023 02:25 22,9 °C 14,2 °C 55 % 73 % 1015,7 hPa 0,0 l/m² 1,6 km/h (1 Bft) SW 222 ° 0 min 0 W/m² 9,4 °C 14,2 °C 3,2 km/h (1 Bft)
06.07.2023 02:27 22,9 °C 14,2 °C 55 % 73 % 1015,7 hPa 0,0 l/m² 1,9 km/h (1 Bft) SW 222 ° 0 min 0 W/m² 9,4 °C 14,2 °C 4,8 km/h (1 Bft)
06.07.2023 02:29 22,9 °C 14,2 °C 55 % 73 % 1015,8 hPa 0,0 l/m² 2,4 km/h (1 Bft) SW 222 ° 0 min 0 W/m² 9,4 °C 14,2 °C 6,4 km/h (2 Bft)
06.07.2023 02:32 22,9 °C 14,2 °C 55 % 73 % 1015,8 hPa 0,0 l/m² 2,1 km/h (1 Bft) W-SW 244 ° 0 min 0 W/m² 9,4 °C 14,2 °C 6,4 km/h (2 Bft)
06.07.2023 02:33 22,9 °C 14,2 °C 55 % 73 % 1015,8 hPa 0,0 l/m² 3,7 km/h (1 Bft) W-SW 246 ° 0 min 0 W/m² 9,4 °C 14,2 °C 4,8 km/h (1 Bft)
06.07.2023 02:34 22,9 °C 14,2 °C 55 % 73 % 1015,8 hPa 0,0 l/m² 2,3 km/h (1 Bft) W-SW 246 ° 0 min 0 W/m² 9,4 °C 14,2 °C 3,2 km/h (1 Bft)
06.07.2023 02:35 22,9 °C 14,1 °C 55 % 73 % 1015,8 hPa 0,0 l/m² 1,5 km/h (1 Bft) W-SW 246 ° 0 min 0 W/m² 9,3 °C 14,1 °C 3,2 km/h (1 Bft)
06.07.2023 02:37 22,9 °C 14,0 °C 55 % 74 % 1015,9 hPa 0,0 l/m² 1,6 km/h (1 Bft) W-SW 246 ° 0 min 0 W/m² 9,4 °C 14,0 °C 3,2 km/h (1 Bft)
06.07.2023 02:39 22,9 °C 13,9 °C 55 % 74 % 1015,9 hPa 0,0 l/m² 0,3 km/h (0 Bft) W-SW 246 ° 0 min 0 W/m² 9,3 °C 13,9 °C 1,6 km/h (1 Bft)
06.07.2023 02:42 22,9 °C 13,7 °C 55 % 75 % 1015,9 hPa 0,0 l/m² 0,0 km/h (0 Bft) W-SW 246 ° 0 min 0 W/m² 9,3 °C 13,7 °C 0,0 km/h (0 Bft)
06.07.2023 02:43 22,9 °C 13,7 °C 55 % 75 % 1015,9 hPa 0,0 l/m² 1,5 km/h (1 Bft) W-SW 246 ° 0 min 0 W/m² 9,3 °C 13,7 °C 3,2 km/h (1 Bft)
06.07.2023 02:44 22,9 °C 13,7 °C 55 % 75 % 1015,9 hPa 0,0 l/m² 0,6 km/h (0 Bft) W-SW 246 ° 0 min 0 W/m² 9,3 °C 13,7 °C 3,2 km/h (1 Bft)
06.07.2023 02:45 22,9 °C 13,6 °C 55 % 75 % 1016,0 hPa 0,0 l/m² 2,1 km/h (1 Bft) W-SW 239 ° 0 min 0 W/m² 9,3 °C 13,6 °C 3,2 km/h (1 Bft)
06.07.2023 02:47 22,9 °C 13,4 °C 55 % 74 % 1016,0 hPa 0,0 l/m² 2,2 km/h (1 Bft) W-SW 239 ° 0 min 0 W/m² 8,9 °C 13,4 °C 4,8 km/h (1 Bft)
06.07.2023 02:49 22,9 °C 13,3 °C 55 % 76 % 1016,0 hPa 0,0 l/m² 0,3 km/h (0 Bft) W-SW 239 ° 0 min 0 W/m² 9,2 °C 13,3 °C 3,2 km/h (1 Bft)
06.07.2023 02:51 22,9 °C 13,1 °C 55 % 77 % 1015,9 hPa 0,0 l/m² 0,0 km/h (0 Bft) W-SW 239 ° 0 min 0 W/m² 9,2 °C 13,1 °C 0,0 km/h (0 Bft)
06.07.2023 02:52 22,9 °C 13,1 °C 55 % 77 % 1016,0 hPa 0,0 l/m² 0,0 km/h (0 Bft) W-SW 239 ° 0 min 0 W/m² 9,2 °C 13,1 °C 0,0 km/h (0 Bft)
06.07.2023 02:53 22,9 °C 13,1 °C 55 % 77 % 1016,0 hPa 0,0 l/m² 0,0 km/h (0 Bft) W-SW 239 ° 0 min 0 W/m² 9,2 °C 13,1 °C 0,0 km/h (0 Bft)
06.07.2023 02:54 22,9 °C 13,1 °C 55 % 77 % 1016,1 hPa 0,0 l/m² 0,0 km/h (0 Bft) W-SW 239 ° 0 min 0 W/m² 9,2 °C 13,1 °C 0,0 km/h (0 Bft)
06.07.2023 02:56 22,9 °C 13,0 °C 55 % 77 % 1015,9 hPa 0,0 l/m² 0,0 km/h (0 Bft) W-SW 239 ° 0 min 0 W/m² 9,1 °C 13,0 °C 0,0 km/h (0 Bft)
06.07.2023 02:58 22,9 °C 12,9 °C 55 % 77 % 1015,9 hPa 0,0 l/m² 0,0 km/h (0 Bft) W-SW 239 ° 0 min 0 W/m² 9,0 °C 12,9 °C 0,0 km/h (0 Bft)
06.07.2023 03:00 22,9 °C 12,9 °C 55 % 78 % 1015,9 hPa 0,0 l/m² 0,0 km/h (0 Bft) W-SW 239 ° 0 min 0 W/m² 9,2 °C 12,9 °C 0,0 km/h (0 Bft)
06.07.2023 03:01 22,9 °C 12,9 °C 55 % 78 % 1015,8 hPa 0,0 l/m² 0,0 km/h (0 Bft) N 0 ° 0 min 0 W/m² 9,2 °C 12,9 °C 0,0 km/h (0 Bft)
06.07.2023 03:06 22,9 °C 12,7 °C 55 % 79 % 1015,9 hPa 0,0 l/m² 0,0 km/h (0 Bft) W-SW 239 ° 0 min 0 W/m² 9,2 °C 12,7 °C 0,0 km/h (0 Bft)
06.07.2023 03:08 22,9 °C 12,7 °C 55 % 79 % 1015,9 hPa 0,0 l/m² 0,0 km/h (0 Bft) W-SW 239 ° 0 min 0 W/m² 9,2 °C 12,7 °C 0,0 km/h (0 Bft)
06.07.2023 03:09 22,9 °C 12,6 °C 55 % 79 % 1015,9 hPa 0,0 l/m² 0,0 km/h (0 Bft) W-SW 239 ° 0 min 0 W/m² 9,1 °C 12,6 °C 0,0 km/h (0 Bft)
06.07.2023 03:11 22,9 °C 12,5 °C 55 % 79 % 1015,9 hPa 0,0 l/m² 0,0 km/h (0 Bft) W-SW 239 ° 0 min 0 W/m² 9,0 °C 12,5 °C 0,0 km/h (0 Bft)
06.07.2023 03:12 22,9 °C 12,6 °C 55 % 79 % 1015,9 hPa 0,0 l/m² 0,0 km/h (0 Bft) W-SW 239 ° 0 min 0 W/m² 9,1 °C 12,6 °C 0,0 km/h (0 Bft)
06.07.2023 03:13 22,9 °C 12,5 °C 55 % 79 % 1015,8 hPa 0,0 l/m² 0,0 km/h (0 Bft) W-SW 239 ° 0 min 0 W/m² 9,0 °C 12,5 °C 0,0 km/h (0 Bft)
06.07.2023 03:14 22,9 °C 12,5 °C 55 % 79 % 1015,8 hPa 0,0 l/m² 0,0 km/h (0 Bft) W-SW 239 ° 0 min 0 W/m² 9,0 °C 12,5 °C 0,0 km/h (0 Bft)
06.07.2023 03:15 22,9 °C 12,4 °C 55 % 79 % 1015,9 hPa 0,0 l/m² 0,0 km/h (0 Bft) W-SW 239 ° 0 min 0 W/m² 8,9 °C 12,4 °C 0,0 km/h (0 Bft)
06.07.2023 03:17 22,9 °C 12,4 °C 55 % 80 % 1015,8 hPa 0,0 l/m² 0,0 km/h (0 Bft) W-SW 239 ° 0 min 0 W/m² 9,0 °C 12,4 °C 0,0 km/h (0 Bft)
06.07.2023 03:18 22,9 °C 12,4 °C 55 % 80 % 1015,8 hPa 0,0 l/m² 0,0 km/h (0 Bft) W-SW 239 ° 0 min 0 W/m² 9,0 °C 12,4 °C 0,0 km/h (0 Bft)
06.07.2023 03:20 22,9 °C 12,3 °C 55 % 80 % 1015,8 hPa 0,0 l/m² 0,0 km/h (0 Bft) W-SW 239 ° 0 min 0 W/m² 8,9 °C 12,3 °C 0,0 km/h (0 Bft)
06.07.2023 03:21 22,9 °C 12,3 °C 55 % 80 % 1015,8 hPa 0,0 l/m² 0,0 km/h (0 Bft) W-SW 239 ° 0 min 0 W/m² 8,9 °C 12,3 °C 0,0 km/h (0 Bft)
06.07.2023 03:22 22,9 °C 12,3 °C 55 % 81 % 1015,9 hPa 0,0 l/m² 0,0 km/h (0 Bft) W-SW 239 ° 0 min 0 W/m² 9,1 °C 12,3 °C 0,0 km/h (0 Bft)
06.07.2023 03:24 22,9 °C 12,2 °C 55 % 81 % 1015,9 hPa 0,0 l/m² 0,0 km/h (0 Bft) W-SW 239 ° 0 min 0 W/m² 9,0 °C 12,2 °C 0,0 km/h (0 Bft)
06.07.2023 03:26 22,9 °C 12,1 °C 55 % 81 % 1015,8 hPa 0,0 l/m² 0,0 km/h (0 Bft) W-SW 239 ° 0 min 0 W/m² 8,9 °C 12,1 °C 0,0 km/h (0 Bft)
06.07.2023 03:28 22,9 °C 12,1 °C 55 % 82 % 1015,9 hPa 0,0 l/m² 0,0 km/h (0 Bft) W-SW 239 ° 0 min 0 W/m² 9,1 °C 12,1 °C 0,0 km/h (0 Bft)
06.07.2023 03:30 22,9 °C 12,1 °C 55 % 83 % 1016,0 hPa 0,0 l/m² 0,0 km/h (0 Bft) W-SW 239 ° 0 min 0 W/m² 9,3 °C 12,1 °C 0,0 km/h (0 Bft)
06.07.2023 03:31 22,9 °C 11,9 °C 55 % 83 % 1015,9 hPa 0,0 l/m² 0,0 km/h (0 Bft) W-SW 239 ° 0 min 0 W/m² 9,1 °C 11,9 °C 0,0 km/h (0 Bft)
06.07.2023 03:32 22,9 °C 11,9 °C 55 % 83 % 1015,9 hPa 0,0 l/m² 0,0 km/h (0 Bft) W-SW 239 ° 0 min 0 W/m² 9,1 °C 11,9 °C 0,0 km/h (0 Bft)
06.07.2023 03:33 22,8 °C 11,9 °C 55 % 83 % 1016,0 hPa 0,0 l/m² 0,0 km/h (0 Bft) W-SW 239 ° 0 min 0 W/m² 9,1 °C 11,9 °C 0,0 km/h (0 Bft)
06.07.2023 03:35 22,9 °C 11,8 °C 55 % 84 % 1016,0 hPa 0,0 l/m² 0,0 km/h (0 Bft) W-SW 239 ° 0 min 0 W/m² 9,2 °C 11,8 °C 0,0 km/h (0 Bft)
06.07.2023 03:37 22,8 °C 11,7 °C 55 % 84 % 1016,0 hPa 0,0 l/m² 0,0 km/h (0 Bft) W-SW 239 ° 0 min 0 W/m² 9,1 °C 11,7 °C 0,0 km/h (0 Bft)
06.07.2023 03:39 22,9 °C 11,6 °C 55 % 85 % 1016,1 hPa 0,0 l/m² 0,0 km/h (0 Bft) W-SW 239 ° 0 min 0 W/m² 9,2 °C 11,6 °C 0,0 km/h (0 Bft)
06.07.2023 03:41 22,8 °C 11,6 °C 55 % 85 % 1016,0 hPa 0,0 l/m² 0,0 km/h (0 Bft) W-SW 239 ° 0 min 0 W/m² 9,2 °C 11,6 °C 0,0 km/h (0 Bft)
06.07.2023 03:42 22,9 °C 11,6 °C 55 % 85 % 1016,0 hPa 0,0 l/m² 0,0 km/h (0 Bft) W-SW 239 ° 0 min 0 W/m² 9,2 °C 11,6 °C 0,0 km/h (0 Bft)
06.07.2023 03:43 22,9 °C 11,6 °C 55 % 86 % 1016,0 hPa 0,0 l/m² 0,0 km/h (0 Bft) W-SW 239 ° 0 min 0 W/m² 9,3 °C 11,6 °C 0,0 km/h (0 Bft)
06.07.2023 03:45 22,9 °C 11,7 °C 55 % 86 % 1015,9 hPa 0,0 l/m² 0,0 km/h (0 Bft) W-SW 239 ° 0 min 0 W/m² 9,4 °C 11,7 °C 0,0 km/h (0 Bft)
06.07.2023 03:47 22,8 °C 11,6 °C 55 % 86 % 1016,0 hPa 0,0 l/m² 0,0 km/h (0 Bft) W-SW 239 ° 0 min 0 W/m² 9,3 °C 11,6 °C 0,0 km/h (0 Bft)
06.07.2023 03:48 22,9 °C 11,6 °C 55 % 86 % 1015,9 hPa 0,0 l/m² 0,0 km/h (0 Bft) W-SW 239 ° 0 min 0 W/m² 9,3 °C 11,6 °C 0,0 km/h (0 Bft)
06.07.2023 03:50 22,9 °C 11,6 °C 55 % 85 % 1015,9 hPa 0,0 l/m² 0,0 km/h (0 Bft) W-SW 239 ° 0 min 0 W/m² 9,2 °C 11,6 °C 0,0 km/h (0 Bft)
06.07.2023 03:51 22,8 °C 11,6 °C 55 % 85 % 1015,9 hPa 0,0 l/m² 0,0 km/h (0 Bft) W-SW 239 ° 0 min 0 W/m² 9,2 °C 11,6 °C 0,0 km/h (0 Bft)
06.07.2023 03:52 22,8 °C 11,6 °C 55 % 86 % 1015,9 hPa 0,0 l/m² 0,0 km/h (0 Bft) W-SW 239 ° 0 min 0 W/m² 9,3 °C 11,6 °C 0,0 km/h (0 Bft)
06.07.2023 03:54 22,9 °C 11,5 °C 55 % 85 % 1015,9 hPa 0,0 l/m² 0,0 km/h (0 Bft) W-SW 239 ° 0 min 0 W/m² 9,1 °C 11,5 °C 0,0 km/h (0 Bft)
06.07.2023 03:56 22,9 °C 11,5 °C 55 % 85 % 1015,9 hPa 0,0 l/m² 0,0 km/h (0 Bft) W-SW 239 ° 0 min 0 W/m² 9,1 °C 11,5 °C 0,0 km/h (0 Bft)
06.07.2023 03:58 22,9 °C 11,4 °C 55 % 85 % 1015,8 hPa 0,0 l/m² 0,0 km/h (0 Bft) W-SW 239 ° 0 min 0 W/m² 9,0 °C 11,4 °C 0,0 km/h (0 Bft)
06.07.2023 04:00 22,8 °C 11,4 °C 55 % 85 % 1015,9 hPa 0,0 l/m² 0,0 km/h (0 Bft) W-SW 239 ° 0 min 0 W/m² 9,0 °C 11,4 °C 0,0 km/h (0 Bft)
06.07.2023 04:01 22,8 °C 11,4 °C 55 % 86 % 1015,9 hPa 0,0 l/m² 0,0 km/h (0 Bft) W-SW 239 ° 0 min 0 W/m² 9,1 °C 11,4 °C 0,0 km/h (0 Bft)
06.07.2023 04:03 22,9 °C 11,3 °C 55 % 85 % 1015,9 hPa 0,0 l/m² 0,0 km/h (0 Bft) W-SW 239 ° 0 min 0 W/m² 8,9 °C 11,3 °C 0,0 km/h (0 Bft)
06.07.2023 04:04 22,8 °C 11,3 °C 55 % 85 % 1015,9 hPa 0,0 l/m² 0,4 km/h (0 Bft) W-SW 240 ° 0 min 0 W/m² 8,9 °C 11,3 °C 3,2 km/h (1 Bft)
06.07.2023 04:06 22,9 °C 11,3 °C 55 % 84 % 1015,9 hPa 0,0 l/m² 3,8 km/h (1 Bft) W 267 ° 0 min 0 W/m² 8,7 °C 11,3 °C 4,8 km/h (1 Bft)
06.07.2023 04:08 22,9 °C 11,3 °C 55 % 84 % 1015,9 hPa 0,0 l/m² 4,7 km/h (1 Bft) W 267 ° 0 min 0 W/m² 8,7 °C 11,3 °C 6,4 km/h (2 Bft)
06.07.2023 04:10 22,9 °C 11,3 °C 55 % 84 % 1016,1 hPa 0,0 l/m² 2,8 km/h (1 Bft) W 267 ° 0 min 0 W/m² 8,7 °C 11,3 °C 4,8 km/h (1 Bft)
06.07.2023 04:11 22,8 °C 11,2 °C 55 % 84 % 1016,1 hPa 0,0 l/m² 1,9 km/h (1 Bft) W 267 ° 0 min 0 W/m² 8,6 °C 11,2 °C 4,8 km/h (1 Bft)
06.07.2023 04:13 22,8 °C 11,2 °C 55 % 83 % 1016,1 hPa 0,0 l/m² 0,6 km/h (0 Bft) W 267 ° 0 min 0 W/m² 8,4 °C 11,2 °C 3,2 km/h (1 Bft)
06.07.2023 04:14 22,9 °C 11,1 °C 55 % 83 % 1016,1 hPa 0,0 l/m² 0,0 km/h (0 Bft) W 267 ° 0 min 0 W/m² 8,3 °C 11,1 °C 0,0 km/h (0 Bft)
06.07.2023 04:16 22,9 °C 10,9 °C 55 % 84 % 1016,2 hPa 0,0 l/m² 0,0 km/h (0 Bft) W 267 ° 0 min 0 W/m² 8,3 °C 10,9 °C 0,0 km/h (0 Bft)
06.07.2023 04:18 22,8 °C 10,9 °C 55 % 85 % 1016,2 hPa 0,0 l/m² 0,0 km/h (0 Bft) W 267 ° 0 min 0 W/m² 8,5 °C 10,9 °C 0,0 km/h (0 Bft)
06.07.2023 04:20 22,9 °C 10,9 °C 55 % 85 % 1016,2 hPa 0,0 l/m² 0,0 km/h (0 Bft) W 267 ° 0 min 0 W/m² 8,5 °C 10,9 °C 0,0 km/h (0 Bft)
06.07.2023 04:21 22,8 °C 10,9 °C 55 % 85 % 1016,1 hPa 0,0 l/m² 0,0 km/h (0 Bft) W 267 ° 0 min 0 W/m² 8,5 °C 10,9 °C 0,0 km/h (0 Bft)
06.07.2023 04:23 22,8 °C 11,0 °C 55 % 86 % 1016,2 hPa 0,0 l/m² 0,0 km/h (0 Bft) W 267 ° 0 min 0 W/m² 8,7 °C 11,0 °C 0,0 km/h (0 Bft)
06.07.2023 04:24 22,8 °C 11,0 °C 55 % 86 % 1016,2 hPa 0,0 l/m² 0,0 km/h (0 Bft) W 267 ° 0 min 0 W/m² 8,7 °C 11,0 °C 0,0 km/h (0 Bft)
06.07.2023 04:26 22,8 °C 11,0 °C 55 % 86 % 1016,2 hPa 0,0 l/m² 0,0 km/h (0 Bft) W 266 ° 0 min 0 W/m² 8,7 °C 11,0 °C 0,0 km/h (0 Bft)
06.07.2023 04:28 22,8 °C 10,9 °C 55 % 87 % 1016,3 hPa 0,0 l/m² 0,0 km/h (0 Bft) W 267 ° 0 min 0 W/m² 8,8 °C 10,9 °C 0,0 km/h (0 Bft)
06.07.2023 04:30 22,8 °C 10,8 °C 55 % 87 % 1016,3 hPa 0,0 l/m² 0,0 km/h (0 Bft) W 267 ° 0 min 0 W/m² 8,7 °C 10,8 °C 0,0 km/h (0 Bft)
06.07.2023 04:31 22,8 °C 10,8 °C 55 % 87 % 1016,3 hPa 0,0 l/m² 0,0 km/h (0 Bft) W 267 ° 0 min 0 W/m² 8,7 °C 10,8 °C 0,0 km/h (0 Bft)
06.07.2023 04:33 22,8 °C 10,7 °C 55 % 88 % 1016,3 hPa 0,0 l/m² 0,0 km/h (0 Bft) W 267 ° 0 min 0 W/m² 8,8 °C 10,7 °C 0,0 km/h (0 Bft)
06.07.2023 04:34 22,8 °C 10,7 °C 55 % 88 % 1016,3 hPa 0,0 l/m² 0,0 km/h (0 Bft) W 267 ° 0 min 0 W/m² 8,8 °C 10,7 °C 0,0 km/h (0 Bft)
06.07.2023 04:36 22,8 °C 10,6 °C 55 % 88 % 1016,4 hPa 0,0 l/m² 0,0 km/h (0 Bft) W 267 ° 0 min 0 W/m² 8,7 °C 10,6 °C 0,0 km/h (0 Bft)
06.07.2023 04:38 22,8 °C 10,6 °C 55 % 89 % 1016,3 hPa 0,0 l/m² 0,0 km/h (0 Bft) W 267 ° 0 min 0 W/m² 8,9 °C 10,6 °C 0,0 km/h (0 Bft)
06.07.2023 04:40 22,8 °C 10,6 °C 55 % 88 % 1016,4 hPa 0,0 l/m² 0,0 km/h (0 Bft) W 267 ° 0 min 0 W/m² 8,7 °C 10,6 °C 0,0 km/h (0 Bft)
06.07.2023 04:41 22,8 °C 10,6 °C 55 % 89 % 1016,3 hPa 0,0 l/m² 0,0 km/h (0 Bft) W 267 ° 0 min 0 W/m² 8,9 °C 10,6 °C 0,0 km/h (0 Bft)
06.07.2023 04:43 22,8 °C 10,6 °C 55 % 88 % 1016,4 hPa 0,0 l/m² 0,0 km/h (0 Bft) W 267 ° 0 min 0 W/m² 8,7 °C 10,6 °C 0,0 km/h (0 Bft)
06.07.2023 04:44 22,8 °C 10,6 °C 55 % 89 % 1016,3 hPa 0,0 l/m² 0,0 km/h (0 Bft) W 267 ° 0 min 0 W/m² 8,9 °C 10,6 °C 0,0 km/h (0 Bft)
06.07.2023 04:46 22,8 °C 10,4 °C 55 % 88 % 1016,4 hPa 0,0 l/m² 0,0 km/h (0 Bft) W 267 ° 0 min 0 W/m² 8,5 °C 10,4 °C 0,0 km/h (0 Bft)
06.07.2023 04:48 22,8 °C 10,2 °C 55 % 87 % 1016,4 hPa 0,0 l/m² 0,0 km/h (0 Bft) W 267 ° 0 min 0 W/m² 8,1 °C 10,2 °C 0,0 km/h (0 Bft)
06.07.2023 04:50 22,8 °C 9,9 °C 55 % 88 % 1016,3 hPa 0,0 l/m² 0,0 km/h (0 Bft) W 267 ° 0 min 0 W/m² 8,0 °C 9,9 °C 0,0 km/h (0 Bft)
06.07.2023 04:51 22,8 °C 9,9 °C 55 % 89 % 1016,3 hPa 0,0 l/m² 0,0 km/h (0 Bft) W 267 ° 0 min 0 W/m² 8,2 °C 9,9 °C 0,0 km/h (0 Bft)
06.07.2023 04:53 22,8 °C 9,9 °C 56 % 89 % 1016,3 hPa 0,0 l/m² 0,0 km/h (0 Bft) W 267 ° 0 min 0 W/m² 8,2 °C 9,9 °C 0,0 km/h (0 Bft)
06.07.2023 04:54 22,8 °C 9,9 °C 55 % 89 % 1016,2 hPa 0,0 l/m² 0,0 km/h (0 Bft) W 267 ° 0 min 0 W/m² 8,2 °C 9,9 °C 0,0 km/h (0 Bft)
06.07.2023 04:56 22,8 °C 9,9 °C 56 % 89 % 1016,3 hPa 0,0 l/m² 0,0 km/h (0 Bft) W 267 ° 0 min 0 W/m² 8,2 °C 9,9 °C 0,0 km/h (0 Bft)
06.07.2023 04:58 22,8 °C 9,9 °C 55 % 89 % 1016,3 hPa 0,0 l/m² 0,0 km/h (0 Bft) W 267 ° 0 min 0 W/m² 8,2 °C 9,9 °C 0,0 km/h (0 Bft)
06.07.2023 05:00 22,8 °C 9,9 °C 56 % 89 % 1016,3 hPa 0,0 l/m² 0,0 km/h (0 Bft) W 267 ° 0 min 0 W/m² 8,2 °C 9,9 °C 0,0 km/h (0 Bft)
06.07.2023 05:01 22,8 °C 10,0 °C 55 % 89 % 1016,3 hPa 0,0 l/m² 0,0 km/h (0 Bft) W 267 ° 0 min 0 W/m² 8,3 °C 10,0 °C 0,0 km/h (0 Bft)
06.07.2023 05:03 22,8 °C 10,0 °C 56 % 88 % 1016,3 hPa 0,0 l/m² 0,0 km/h (0 Bft) W 267 ° 0 min 5 W/m² 8,1 °C 10,0 °C 0,0 km/h (0 Bft)
06.07.2023 05:04 22,8 °C 9,9 °C 56 % 88 % 1016,3 hPa 0,0 l/m² 0,0 km/h (0 Bft) W 267 ° 0 min 5 W/m² 8,0 °C 9,9 °C 0,0 km/h (0 Bft)
06.07.2023 05:06 22,8 °C 9,8 °C 55 % 88 % 1016,3 hPa 0,0 l/m² 0,0 km/h (0 Bft) W 267 ° 0 min 5 W/m² 7,9 °C 9,8 °C 0,0 km/h (0 Bft)
06.07.2023 05:08 22,8 °C 9,8 °C 56 % 88 % 1016,3 hPa 0,0 l/m² 0,0 km/h (0 Bft) W 267 ° 0 min 5 W/m² 7,9 °C 9,8 °C 0,0 km/h (0 Bft)
06.07.2023 05:10 22,8 °C 9,8 °C 55 % 89 % 1016,3 hPa 0,0 l/m² 0,0 km/h (0 Bft) W 267 ° 0 min 7 W/m² 8,1 °C 9,8 °C 0,0 km/h (0 Bft)
06.07.2023 05:11 22,8 °C 9,8 °C 55 % 89 % 1016,4 hPa 0,0 l/m² 0,0 km/h (0 Bft) W 267 ° 0 min 7 W/m² 8,1 °C 9,8 °C 0,0 km/h (0 Bft)
06.07.2023 05:13 22,8 °C 9,8 °C 56 % 88 % 1016,4 hPa 0,0 l/m² 0,0 km/h (0 Bft) W 267 ° 0 min 7 W/m² 7,9 °C 9,8 °C 0,0 km/h (0 Bft)
06.07.2023 05:14 22,8 °C 9,7 °C 56 % 88 % 1016,4 hPa 0,0 l/m² 0,0 km/h (0 Bft) W 267 ° 0 min 9 W/m² 7,8 °C 9,7 °C 0,0 km/h (0 Bft)
06.07.2023 05:16 22,8 °C 9,7 °C 55 % 89 % 1016,5 hPa 0,0 l/m² 0,0 km/h (0 Bft) W 267 ° 0 min 9 W/m² 8,0 °C 9,7 °C 0,0 km/h (0 Bft)
06.07.2023 05:18 22,8 °C 9,6 °C 56 % 89 % 1016,4 hPa 0,0 l/m² 0,0 km/h (0 Bft) W 267 ° 0 min 11 W/m² 7,9 °C 9,6 °C 0,0 km/h (0 Bft)
06.07.2023 05:20 22,8 °C 9,6 °C 56 % 90 % 1016,5 hPa 0,0 l/m² 0,0 km/h (0 Bft) W 267 ° 0 min 11 W/m² 8,0 °C 9,6 °C 0,0 km/h (0 Bft)
06.07.2023 05:21 22,8 °C 9,6 °C 56 % 90 % 1016,4 hPa 0,0 l/m² 0,0 km/h (0 Bft) W 267 ° 0 min 11 W/m² 8,0 °C 9,6 °C 0,0 km/h (0 Bft)
06.07.2023 05:23 22,8 °C 9,6 °C 56 % 90 % 1016,5 hPa 0,0 l/m² 0,0 km/h (0 Bft) W 267 ° 0 min 12 W/m² 8,0 °C 9,6 °C 0,0 km/h (0 Bft)
06.07.2023 05:24 22,8 °C 9,6 °C 56 % 90 % 1016,5 hPa 0,0 l/m² 0,0 km/h (0 Bft) W 267 ° 0 min 12 W/m² 8,0 °C 9,6 °C 0,0 km/h (0 Bft)
06.07.2023 05:26 22,8 °C 9,6 °C 56 % 90 % 1016,5 hPa 0,0 l/m² 0,0 km/h (0 Bft) W 267 ° 0 min 14 W/m² 8,0 °C 9,6 °C 0,0 km/h (0 Bft)
06.07.2023 05:28 22,8 °C 9,6 °C 56 % 91 % 1016,4 hPa 0,0 l/m² 0,0 km/h (0 Bft) W 267 ° 0 min 14 W/m² 8,2 °C 9,6 °C 0,0 km/h (0 Bft)
06.07.2023 05:30 22,7 °C 9,7 °C 56 % 91 % 1016,5 hPa 0,0 l/m² 0,0 km/h (0 Bft) W 267 ° 0 min 16 W/m² 8,3 °C 9,7 °C 0,0 km/h (0 Bft)
06.07.2023 05:31 22,7 °C 9,7 °C 56 % 91 % 1016,4 hPa 0,0 l/m² 0,0 km/h (0 Bft) W 267 ° 0 min 16 W/m² 8,3 °C 9,7 °C 0,0 km/h (0 Bft)
06.07.2023 05:33 22,8 °C 9,7 °C 56 % 91 % 1016,5 hPa 0,0 l/m² 0,0 km/h (0 Bft) W 267 ° 0 min 18 W/m² 8,3 °C 9,7 °C 0,0 km/h (0 Bft)
06.07.2023 05:34 22,8 °C 9,7 °C 56 % 91 % 1016,5 hPa 0,0 l/m² 0,0 km/h (0 Bft) W 267 ° 0 min 18 W/m² 8,3 °C 9,7 °C 0,0 km/h (0 Bft)
06.07.2023 05:36 22,8 °C 9,7 °C 56 % 91 % 1016,5 hPa 0,0 l/m² 0,0 km/h (0 Bft) W 267 ° 0 min 18 W/m² 8,3 °C 9,7 °C 0,0 km/h (0 Bft)
06.07.2023 05:38 22,8 °C 9,7 °C 56 % 91 % 1016,5 hPa 0,0 l/m² 0,0 km/h (0 Bft) W 267 ° 0 min 19 W/m² 8,3 °C 9,7 °C 0,0 km/h (0 Bft)
06.07.2023 05:40 22,7 °C 9,7 °C 56 % 91 % 1016,5 hPa 0,0 l/m² 0,0 km/h (0 Bft) W 267 ° 0 min 19 W/m² 8,3 °C 9,7 °C 1,6 km/h (1 Bft)
06.07.2023 05:41 22,7 °C 9,5 °C 56 % 91 % 1016,5 hPa 0,0 l/m² 1,1 km/h (1 Bft) W 267 ° 0 min 21 W/m² 8,1 °C 9,5 °C 3,2 km/h (1 Bft)
06.07.2023 05:43 22,8 °C 9,3 °C 56 % 91 % 1016,4 hPa 0,0 l/m² 0,0 km/h (0 Bft) W 267 ° 0 min 21 W/m² 7,9 °C 9,3 °C 1,6 km/h (1 Bft)
06.07.2023 05:44 22,7 °C 9,3 °C 56 % 91 % 1016,5 hPa 0,0 l/m² 0,0 km/h (0 Bft) W 267 ° 0 min 21 W/m² 7,9 °C 9,3 °C 0,0 km/h (0 Bft)
06.07.2023 05:46 22,7 °C 9,2 °C 56 % 91 % 1016,6 hPa 0,0 l/m² 0,7 km/h (0 Bft) W 267 ° 0 min 21 W/m² 7,8 °C 9,2 °C 1,6 km/h (1 Bft)
06.07.2023 05:48 22,7 °C 9,2 °C 56 % 91 % 1016,6 hPa 0,0 l/m² 0,0 km/h (0 Bft) W 267 ° 0 min 25 W/m² 7,8 °C 9,2 °C 0,0 km/h (0 Bft)
06.07.2023 05:50 22,8 °C 9,3 °C 56 % 91 % 1016,5 hPa 0,0 l/m² 0,0 km/h (0 Bft) W 267 ° 0 min 26 W/m² 7,9 °C 9,3 °C 0,0 km/h (0 Bft)
06.07.2023 05:51 22,7 °C 9,3 °C 56 % 92 % 1016,5 hPa 0,0 l/m² 0,0 km/h (0 Bft) W 267 ° 0 min 28 W/m² 8,1 °C 9,3 °C 0,0 km/h (0 Bft)
06.07.2023 05:53 22,7 °C 9,4 °C 56 % 92 % 1016,6 hPa 0,0 l/m² 0,0 km/h (0 Bft) W 267 ° 0 min 32 W/m² 8,2 °C 9,4 °C 0,0 km/h (0 Bft)
06.07.2023 05:54 22,7 °C 9,5 °C 56 % 92 % 1016,6 hPa 0,0 l/m² 0,0 km/h (0 Bft) W 267 ° 0 min 33 W/m² 8,3 °C 9,5 °C 0,0 km/h (0 Bft)
06.07.2023 05:56 22,7 °C 9,4 °C 56 % 92 % 1016,6 hPa 0,0 l/m² 0,0 km/h (0 Bft) W 266 ° 0 min 35 W/m² 8,2 °C 9,4 °C 0,0 km/h (0 Bft)
06.07.2023 05:58 22,7 °C 9,5 °C 56 % 92 % 1016,6 hPa 0,0 l/m² 0,0 km/h (0 Bft) W 267 ° 0 min 37 W/m² 8,3 °C 9,5 °C 0,0 km/h (0 Bft)
06.07.2023 06:00 22,7 °C 9,5 °C 56 % 92 % 1016,7 hPa 0,0 l/m² 0,0 km/h (0 Bft) W 267 ° 0 min 40 W/m² 8,3 °C 9,5 °C 0,0 km/h (0 Bft)
06.07.2023 06:01 22,7 °C 9,5 °C 56 % 92 % 1016,7 hPa 0,0 l/m² 0,0 km/h (0 Bft) W 267 ° 0 min 40 W/m² 8,3 °C 9,5 °C 0,0 km/h (0 Bft)
06.07.2023 06:03 22,7 °C 9,6 °C 56 % 92 % 1016,7 hPa 0,0 l/m² 0,0 km/h (0 Bft) W 267 ° 0 min 42 W/m² 8,4 °C 9,6 °C 0,0 km/h (0 Bft)
06.07.2023 06:05 22,7 °C 9,6 °C 56 % 92 % 1016,7 hPa 0,0 l/m² 0,0 km/h (0 Bft) W 266 ° 0 min 44 W/m² 8,4 °C 9,6 °C 0,0 km/h (0 Bft)
06.07.2023 06:07 22,7 °C 9,8 °C 56 % 92 % 1016,8 hPa 0,0 l/m² 0,0 km/h (0 Bft) W 267 ° 0 min 46 W/m² 8,6 °C 9,8 °C 0,0 km/h (0 Bft)
06.07.2023 06:09 22,7 °C 9,9 °C 56 % 93 % 1016,8 hPa 0,0 l/m² 0,0 km/h (0 Bft) W 267 ° 0 min 49 W/m² 8,8 °C 9,9 °C 0,0 km/h (0 Bft)
06.07.2023 06:11 22,7 °C 10,1 °C 56 % 93 % 1016,7 hPa 0,0 l/m² 0,0 km/h (0 Bft) W 267 ° 2 min 56 W/m² 9,0 °C 10,1 °C 0,0 km/h (0 Bft)
06.07.2023 06:13 22,7 °C 10,2 °C 56 % 92 % 1016,7 hPa 0,0 l/m² 0,0 km/h (0 Bft) W 267 ° 2 min 60 W/m² 9,0 °C 10,2 °C 0,0 km/h (0 Bft)
06.07.2023 06:15 22,7 °C 10,2 °C 56 % 92 % 1016,9 hPa 0,0 l/m² 0,0 km/h (0 Bft) W 267 ° 2 min 62 W/m² 9,0 °C 10,2 °C 0,0 km/h (0 Bft)
06.07.2023 06:16 22,7 °C 10,3 °C 56 % 92 % 1016,8 hPa 0,0 l/m² 0,0 km/h (0 Bft) W 267 ° 1 min 65 W/m² 9,1 °C 10,3 °C 0,0 km/h (0 Bft)
06.07.2023 06:17 22,7 °C 10,4 °C 56 % 92 % 1016,8 hPa 0,0 l/m² 0,0 km/h (0 Bft) W 267 ° 1 min 67 W/m² 9,2 °C 10,4 °C 0,0 km/h (0 Bft)
06.07.2023 06:18 22,7 °C 10,4 °C 56 % 92 % 1016,8 hPa 0,0 l/m² 0,0 km/h (0 Bft) W 267 ° 1 min 70 W/m² 9,2 °C 10,4 °C 0,0 km/h (0 Bft)
06.07.2023 06:19 22,7 °C 10,5 °C 56 % 92 % 1016,8 hPa 0,0 l/m² 0,0 km/h (0 Bft) W 267 ° 1 min 72 W/m² 9,3 °C 10,5 °C 0,0 km/h (0 Bft)
06.07.2023 06:20 22,7 °C 10,6 °C 56 % 92 % 1016,8 hPa 0,0 l/m² 0,0 km/h (0 Bft) W 267 ° 1 min 76 W/m² 9,4 °C 10,6 °C 0,0 km/h (0 Bft)
06.07.2023 06:21 22,7 °C 10,6 °C 56 % 92 % 1016,8 hPa 0,0 l/m² 0,0 km/h (0 Bft) W 267 ° 1 min 76 W/m² 9,4 °C 10,6 °C 0,0 km/h (0 Bft)
06.07.2023 06:22 22,7 °C 10,7 °C 56 % 91 % 1016,8 hPa 0,0 l/m² 0,0 km/h (0 Bft) W 267 ° 1 min 81 W/m² 9,3 °C 10,7 °C 0,0 km/h (0 Bft)
06.07.2023 06:23 22,7 °C 10,8 °C 56 % 91 % 1016,8 hPa 0,0 l/m² 0,0 km/h (0 Bft) W 267 ° 1 min 83 W/m² 9,4 °C 10,8 °C 0,0 km/h (0 Bft)
06.07.2023 06:24 22,7 °C 10,8 °C 56 % 91 % 1016,8 hPa 0,0 l/m² 0,0 km/h (0 Bft) W 267 ° 1 min 84 W/m² 9,4 °C 10,8 °C 0,0 km/h (0 Bft)
06.07.2023 06:25 22,7 °C 10,9 °C 56 % 91 % 1016,8 hPa 0,0 l/m² 0,0 km/h (0 Bft) W 267 ° 1 min 86 W/m² 9,5 °C 10,9 °C 0,0 km/h (0 Bft)
06.07.2023 06:26 22,7 °C 11,0 °C 56 % 91 % 1016,8 hPa 0,0 l/m² 0,0 km/h (0 Bft) W 267 ° 1 min 90 W/m² 9,6 °C 11,0 °C 0,0 km/h (0 Bft)
06.07.2023 06:27 22,7 °C 11,1 °C 56 % 91 % 1016,9 hPa 0,0 l/m² 0,0 km/h (0 Bft) W 267 ° 1 min 91 W/m² 9,7 °C 11,1 °C 0,0 km/h (0 Bft)
06.07.2023 06:28 22,7 °C 11,2 °C 56 % 91 % 1016,9 hPa 0,0 l/m² 0,0 km/h (0 Bft) W 267 ° 1 min 97 W/m² 9,8 °C 11,2 °C 0,0 km/h (0 Bft)
06.07.2023 06:29 22,7 °C 11,2 °C 56 % 91 % 1016,9 hPa 0,0 l/m² 0,0 km/h (0 Bft) W 267 ° 1 min 98 W/m² 9,8 °C 11,2 °C 0,0 km/h (0 Bft)
06.07.2023 06:30 22,7 °C 11,2 °C 56 % 91 % 1016,9 hPa 0,0 l/m² 0,0 km/h (0 Bft) W 267 ° 1 min 100 W/m² 9,8 °C 11,2 °C 0,0 km/h (0 Bft)
06.07.2023 06:31 22,7 °C 11,3 °C 56 % 91 % 1016,9 hPa 0,0 l/m² 1,2 km/h (1 Bft) W 267 ° 1 min 104 W/m² 9,9 °C 11,3 °C 3,2 km/h (1 Bft)
06.07.2023 06:32 22,7 °C 11,3 °C 56 % 90 % 1016,9 hPa 0,0 l/m² 1,5 km/h (1 Bft) W 266 ° 1 min 105 W/m² 9,7 °C 11,3 °C 3,2 km/h (1 Bft)
06.07.2023 06:33 22,7 °C 11,3 °C 56 % 90 % 1016,9 hPa 0,0 l/m² 1,6 km/h (1 Bft) W 266 ° 1 min 107 W/m² 9,7 °C 11,3 °C 3,2 km/h (1 Bft)
06.07.2023 06:34 22,7 °C 11,4 °C 56 % 91 % 1017,0 hPa 0,0 l/m² 1,1 km/h (1 Bft) W 266 ° 1 min 111 W/m² 10,0 °C 11,4 °C 3,2 km/h (1 Bft)
06.07.2023 06:35 22,7 °C 11,4 °C 56 % 91 % 1016,9 hPa 0,0 l/m² 0,0 km/h (0 Bft) W 266 ° 1 min 113 W/m² 10,0 °C 11,4 °C 0,0 km/h (0 Bft)
06.07.2023 06:36 22,7 °C 11,5 °C 56 % 91 % 1016,9 hPa 0,0 l/m² 0,0 km/h (0 Bft) W 266 ° 1 min 116 W/m² 10,1 °C 11,5 °C 0,0 km/h (0 Bft)
06.07.2023 06:37 22,7 °C 11,6 °C 56 % 91 % 1016,9 hPa 0,0 l/m² 0,0 km/h (0 Bft) W 266 ° 1 min 118 W/m² 10,2 °C 11,6 °C 0,0 km/h (0 Bft)
06.07.2023 06:38 22,7 °C 11,6 °C 56 % 91 % 1017,0 hPa 0,0 l/m² 0,0 km/h (0 Bft) W 266 ° 1 min 121 W/m² 10,2 °C 11,6 °C 0,0 km/h (0 Bft)
06.07.2023 06:39 22,7 °C 11,6 °C 56 % 91 % 1016,9 hPa 0,0 l/m² 0,3 km/h (0 Bft) W 266 ° 1 min 123 W/m² 10,2 °C 11,6 °C 1,6 km/h (1 Bft)
06.07.2023 06:40 22,7 °C 11,7 °C 56 % 91 % 1016,9 hPa 0,0 l/m² 0,0 km/h (0 Bft) W 266 ° 1 min 127 W/m² 10,3 °C 11,7 °C 0,0 km/h (0 Bft)
06.07.2023 06:41 22,7 °C 11,7 °C 56 % 91 % 1016,9 hPa 0,0 l/m² 0,0 km/h (0 Bft) W 266 ° 1 min 130 W/m² 10,3 °C 11,7 °C 0,0 km/h (0 Bft)
06.07.2023 06:42 22,7 °C 11,7 °C 56 % 91 % 1016,9 hPa 0,0 l/m² 1,8 km/h (1 Bft) W 269 ° 1 min 132 W/m² 10,3 °C 11,7 °C 3,2 km/h (1 Bft)
06.07.2023 06:43 22,7 °C 11,8 °C 56 % 90 % 1017,0 hPa 0,0 l/m² 1,5 km/h (1 Bft) W 269 ° 1 min 135 W/m² 10,2 °C 11,8 °C 3,2 km/h (1 Bft)
06.07.2023 06:44 22,7 °C 11,9 °C 56 % 90 % 1016,9 hPa 0,0 l/m² 1,2 km/h (1 Bft) W 269 ° 1 min 139 W/m² 10,3 °C 11,9 °C 1,6 km/h (1 Bft)
06.07.2023 06:45 22,7 °C 11,9 °C 56 % 90 % 1016,9 hPa 0,0 l/m² 0,0 km/h (0 Bft) W 269 ° 1 min 142 W/m² 10,3 °C 11,9 °C 1,6 km/h (1 Bft)
06.07.2023 06:46 22,7 °C 12,1 °C 56 % 90 % 1016,9 hPa 0,0 l/m² 0,0 km/h (0 Bft) W 269 ° 1 min 146 W/m² 10,5 °C 12,1 °C 1,6 km/h (1 Bft)
06.07.2023 06:47 22,7 °C 12,1 °C 56 % 90 % 1016,9 hPa 0,0 l/m² 0,0 km/h (0 Bft) W 269 ° 1 min 149 W/m² 10,5 °C 12,1 °C 0,0 km/h (0 Bft)
06.07.2023 06:48 22,7 °C 12,2 °C 56 % 90 % 1016,9 hPa 0,0 l/m² 0,0 km/h (0 Bft) W 269 ° 1 min 151 W/m² 10,6 °C 12,2 °C 0,0 km/h (0 Bft)
06.07.2023 06:49 22,7 °C 12,3 °C 56 % 89 % 1016,9 hPa 0,0 l/m² 0,0 km/h (0 Bft) W 269 ° 1 min 155 W/m² 10,5 °C 12,3 °C 0,0 km/h (0 Bft)
06.07.2023 06:50 22,7 °C 12,4 °C 56 % 89 % 1017,0 hPa 0,0 l/m² 0,0 km/h (0 Bft) W 269 ° 1 min 158 W/m² 10,6 °C 12,4 °C 0,0 km/h (0 Bft)
06.07.2023 06:51 22,7 °C 12,5 °C 56 % 89 % 1016,9 hPa 0,0 l/m² 0,0 km/h (0 Bft) W 269 ° 1 min 160 W/m² 10,7 °C 12,5 °C 0,0 km/h (0 Bft)
06.07.2023 06:52 22,7 °C 12,6 °C 56 % 89 % 1016,9 hPa 0,0 l/m² 0,0 km/h (0 Bft) W 269 ° 1 min 165 W/m² 10,8 °C 12,6 °C 0,0 km/h (0 Bft)
06.07.2023 06:53 22,7 °C 12,7 °C 56 % 89 % 1017,0 hPa 0,0 l/m² 0,1 km/h (0 Bft) W 269 ° 1 min 169 W/m² 10,9 °C 12,7 °C 1,6 km/h (1 Bft)
06.07.2023 06:54 22,7 °C 12,8 °C 56 % 88 % 1016,9 hPa 0,0 l/m² 0,0 km/h (0 Bft) W 269 ° 1 min 172 W/m² 10,9 °C 12,8 °C 0,0 km/h (0 Bft)
06.07.2023 06:55 22,7 °C 12,8 °C 56 % 88 % 1017,0 hPa 0,0 l/m² 0,0 km/h (0 Bft) W 269 ° 1 min 174 W/m² 10,9 °C 12,8 °C 0,0 km/h (0 Bft)
06.07.2023 06:56 22,7 °C 12,9 °C 56 % 88 % 1017,0 hPa 0,0 l/m² 0,1 km/h (0 Bft) W 269 ° 1 min 176 W/m² 11,0 °C 12,9 °C 1,6 km/h (1 Bft)
06.07.2023 06:57 22,7 °C 13,1 °C 56 % 87 % 1017,0 hPa 0,0 l/m² 0,3 km/h (0 Bft) W 269 ° 1 min 176 W/m² 11,0 °C 13,1 °C 1,6 km/h (1 Bft)
06.07.2023 06:58 22,7 °C 13,1 °C 56 % 87 % 1017,0 hPa 0,0 l/m² 0,1 km/h (0 Bft) W 269 ° 1 min 176 W/m² 11,0 °C 13,1 °C 1,6 km/h (1 Bft)
06.07.2023 06:59 22,7 °C 13,2 °C 56 % 87 % 1017,1 hPa 0,0 l/m² 0,0 km/h (0 Bft) W 269 ° 1 min 176 W/m² 11,1 °C 13,2 °C 0,0 km/h (0 Bft)
06.07.2023 07:00 22,7 °C 13,3 °C 56 % 87 % 1017,0 hPa 0,0 l/m² 0,0 km/h (0 Bft) W 269 ° 1 min 176 W/m² 11,2 °C 13,3 °C 0,0 km/h (0 Bft)
06.07.2023 07:01 22,7 °C 13,4 °C 56 % 86 % 1017,0 hPa 0,0 l/m² 0,0 km/h (0 Bft) W 269 ° 1 min 174 W/m² 11,1 °C 13,4 °C 0,0 km/h (0 Bft)
06.07.2023 07:02 22,7 °C 13,5 °C 56 % 86 % 1017,0 hPa 0,0 l/m² 0,3 km/h (0 Bft) W 269 ° 1 min 174 W/m² 11,2 °C 13,5 °C 1,6 km/h (1 Bft)
06.07.2023 07:03 22,7 °C 13,6 °C 56 % 86 % 1017,0 hPa 0,0 l/m² 0,0 km/h (0 Bft) W 269 ° 1 min 174 W/m² 11,3 °C 13,6 °C 0,0 km/h (0 Bft)
06.07.2023 07:04 22,7 °C 13,7 °C 56 % 85 % 1017,0 hPa 0,0 l/m² 0,0 km/h (0 Bft) W 269 ° 1 min 174 W/m² 11,2 °C 13,7 °C 0,0 km/h (0 Bft)
06.07.2023 07:05 22,7 °C 13,7 °C 56 % 85 % 1017,1 hPa 0,0 l/m² 0,1 km/h (0 Bft) W 269 ° 1 min 174 W/m² 11,2 °C 13,7 °C 1,6 km/h (1 Bft)
06.07.2023 07:06 22,7 °C 13,8 °C 56 % 84 % 1017,1 hPa 0,0 l/m² 0,0 km/h (0 Bft) W 269 ° 1 min 174 W/m² 11,1 °C 13,8 °C 0,0 km/h (0 Bft)
06.07.2023 07:07 22,7 °C 13,9 °C 56 % 83 % 1017,1 hPa 0,0 l/m² 0,0 km/h (0 Bft) W 269 ° 1 min 176 W/m² 11,1 °C 13,9 °C 0,0 km/h (0 Bft)
06.07.2023 07:08 22,7 °C 14,0 °C 56 % 83 % 1017,1 hPa 0,0 l/m² 0,0 km/h (0 Bft) W 269 ° 1 min 178 W/m² 11,2 °C 14,0 °C 0,0 km/h (0 Bft)
06.07.2023 07:09 22,7 °C 14,1 °C 56 % 83 % 1017,1 hPa 0,0 l/m² 0,1 km/h (0 Bft) W 269 ° 1 min 179 W/m² 11,3 °C 14,1 °C 1,6 km/h (1 Bft)
06.07.2023 07:10 22,7 °C 14,1 °C 56 % 82 % 1017,1 hPa 0,0 l/m² 0,2 km/h (0 Bft) W 269 ° 1 min 153 W/m² 11,1 °C 14,1 °C 1,6 km/h (1 Bft)
06.07.2023 07:11 22,7 °C 14,2 °C 56 % 82 % 1017,2 hPa 0,0 l/m² 0,0 km/h (0 Bft) W 269 ° 1 min 153 W/m² 11,2 °C 14,2 °C 0,0 km/h (0 Bft)
06.07.2023 07:12 22,7 °C 14,2 °C 56 % 82 % 1017,1 hPa 0,0 l/m² 0,3 km/h (0 Bft) W 269 ° 1 min 65 W/m² 11,2 °C 14,2 °C 1,6 km/h (1 Bft)
06.07.2023 07:13 22,7 °C 14,3 °C 56 % 82 % 1017,1 hPa 0,0 l/m² 0,6 km/h (0 Bft) W 269 ° 1 min 53 W/m² 11,3 °C 14,3 °C 1,6 km/h (1 Bft)
06.07.2023 07:14 22,7 °C 14,3 °C 56 % 82 % 1017,1 hPa 0,0 l/m² 0,0 km/h (0 Bft) W 269 ° 1 min 53 W/m² 11,3 °C 14,3 °C 0,0 km/h (0 Bft)
06.07.2023 07:15 22,7 °C 14,4 °C 56 % 81 % 1017,2 hPa 0,0 l/m² 0,0 km/h (0 Bft) W 269 ° 1 min 53 W/m² 11,2 °C 14,4 °C 0,0 km/h (0 Bft)
06.07.2023 07:16 22,7 °C 14,4 °C 56 % 81 % 1017,2 hPa 0,0 l/m² 0,1 km/h (0 Bft) W 269 ° 1 min 54 W/m² 11,2 °C 14,4 °C 1,6 km/h (1 Bft)
06.07.2023 07:17 22,7 °C 14,4 °C 56 % 81 % 1017,1 hPa 0,0 l/m² 0,0 km/h (0 Bft) W 269 ° 1 min 88 W/m² 11,2 °C 14,4 °C 0,0 km/h (0 Bft)
06.07.2023 07:18 22,7 °C 14,5 °C 56 % 80 % 1017,2 hPa 0,0 l/m² 0,0 km/h (0 Bft) W 269 ° 1 min 153 W/m² 11,1 °C 14,5 °C 0,0 km/h (0 Bft)
06.07.2023 07:19 22,7 °C 14,6 °C 56 % 80 % 1017,1 hPa 0,0 l/m² 0,0 km/h (0 Bft) W 269 ° 1 min 218 W/m² 11,2 °C 14,6 °C 0,0 km/h (0 Bft)
06.07.2023 07:20 22,7 °C 14,6 °C 56 % 79 % 1017,2 hPa 0,0 l/m² 0,0 km/h (0 Bft) W 269 ° 1 min 246 W/m² 11,0 °C 14,6 °C 0,0 km/h (0 Bft)
06.07.2023 07:21 22,7 °C 14,6 °C 56 % 79 % 1017,2 hPa 0,0 l/m² 0,0 km/h (0 Bft) W 269 ° 1 min 251 W/m² 11,0 °C 14,6 °C 0,0 km/h (0 Bft)
06.07.2023 07:22 22,7 °C 14,7 °C 56 % 79 % 1017,1 hPa 0,0 l/m² 0,0 km/h (0 Bft) W 269 ° 1 min 255 W/m² 11,1 °C 14,7 °C 0,0 km/h (0 Bft)
06.07.2023 07:23 22,7 °C 14,7 °C 56 % 79 % 1017,2 hPa 0,0 l/m² 0,0 km/h (0 Bft) W 269 ° 1 min 257 W/m² 11,1 °C 14,7 °C 0,0 km/h (0 Bft)
06.07.2023 07:24 22,7 °C 14,8 °C 56 % 79 % 1017,2 hPa 0,0 l/m² 0,0 km/h (0 Bft) W 269 ° 1 min 260 W/m² 11,2 °C 14,8 °C 0,0 km/h (0 Bft)
06.07.2023 07:25 22,7 °C 14,9 °C 56 % 79 % 1017,2 hPa 0,0 l/m² 0,0 km/h (0 Bft) W 269 ° 1 min 262 W/m² 11,3 °C 14,9 °C 0,0 km/h (0 Bft)
06.07.2023 07:26 22,7 °C 14,9 °C 56 % 78 % 1017,1 hPa 0,0 l/m² 0,0 km/h (0 Bft) W 269 ° 1 min 265 W/m² 11,1 °C 14,9 °C 0,0 km/h (0 Bft)
06.07.2023 07:27 22,7 °C 15,0 °C 56 % 78 % 1017,1 hPa 0,0 l/m² 0,0 km/h (0 Bft) W 269 ° 1 min 269 W/m² 11,2 °C 15,0 °C 0,0 km/h (0 Bft)
06.07.2023 07:28 22,7 °C 15,1 °C 56 % 78 % 1017,1 hPa 0,0 l/m² 0,2 km/h (0 Bft) W 266 ° 1 min 272 W/m² 11,3 °C 15,1 °C 1,6 km/h (1 Bft)
06.07.2023 07:29 22,7 °C 15,2 °C 56 % 79 % 1017,2 hPa 0,0 l/m² 3,3 km/h (1 Bft) S-SO 167 ° 1 min 274 W/m² 11,6 °C 15,2 °C 6,4 km/h (2 Bft)
06.07.2023 07:30 22,7 °C 15,3 °C 56 % 77 % 1017,1 hPa 0,0 l/m² 0,4 km/h (0 Bft) S-SO 167 ° 1 min 276 W/m² 11,3 °C 15,3 °C 1,6 km/h (1 Bft)
06.07.2023 07:31 22,7 °C 15,3 °C 56 % 77 % 1017,2 hPa 0,0 l/m² 0,6 km/h (0 Bft) S-SO 167 ° 1 min 278 W/m² 11,3 °C 15,3 °C 4,8 km/h (1 Bft)
06.07.2023 07:32 22,7 °C 15,3 °C 56 % 76 % 1017,2 hPa 0,0 l/m² 0,1 km/h (0 Bft) S-SO 167 ° 1 min 281 W/m² 11,1 °C 15,3 °C 1,6 km/h (1 Bft)
06.07.2023 07:33 22,7 °C 15,4 °C 56 % 76 % 1017,2 hPa 0,0 l/m² 1,2 km/h (1 Bft) S-SO 162 ° 1 min 278 W/m² 11,2 °C 15,4 °C 6,4 km/h (2 Bft)
06.07.2023 07:34 22,7 °C 15,4 °C 56 % 77 % 1017,2 hPa 0,0 l/m² 1,0 km/h (0 Bft) S-SO 163 ° 1 min 287 W/m² 11,4 °C 15,4 °C 3,2 km/h (1 Bft)
06.07.2023 07:35 22,7 °C 15,5 °C 56 % 77 % 1017,1 hPa 0,0 l/m² 1,0 km/h (0 Bft) S-SO 163 ° 1 min 288 W/m² 11,5 °C 15,5 °C 3,2 km/h (1 Bft)
06.07.2023 07:36 22,7 °C 15,6 °C 56 % 76 % 1017,2 hPa 0,0 l/m² 0,5 km/h (0 Bft) S-SO 163 ° 1 min 294 W/m² 11,4 °C 15,6 °C 1,6 km/h (1 Bft)
06.07.2023 07:37 22,7 °C 15,6 °C 56 % 76 % 1017,2 hPa 0,0 l/m² 0,2 km/h (0 Bft) S-SO 163 ° 1 min 295 W/m² 11,4 °C 15,6 °C 1,6 km/h (1 Bft)
06.07.2023 07:38 22,7 °C 15,6 °C 56 % 75 % 1017,2 hPa 0,0 l/m² 0,0 km/h (0 Bft) S-SO 163 ° 1 min 301 W/m² 11,2 °C 15,6 °C 0,0 km/h (0 Bft)
06.07.2023 07:39 22,7 °C 15,6 °C 56 % 75 % 1017,2 hPa 0,0 l/m² 1,3 km/h (1 Bft) S-SO 163 ° 1 min 302 W/m² 11,2 °C 15,6 °C 3,2 km/h (1 Bft)
06.07.2023 07:40 22,7 °C 15,6 °C 56 % 75 % 1017,3 hPa 0,0 l/m² 0,8 km/h (0 Bft) S-SO 163 ° 1 min 304 W/m² 11,2 °C 15,6 °C 3,2 km/h (1 Bft)
06.07.2023 07:41 22,7 °C 15,6 °C 56 % 75 % 1017,2 hPa 0,0 l/m² 0,1 km/h (0 Bft) S-SO 163 ° 1 min 308 W/m² 11,2 °C 15,6 °C 1,6 km/h (1 Bft)
06.07.2023 07:42 22,7 °C 15,7 °C 56 % 76 % 1017,2 hPa 0,0 l/m² 1,6 km/h (1 Bft) S-SO 163 ° 1 min 308 W/m² 11,5 °C 15,7 °C 3,2 km/h (1 Bft)
06.07.2023 07:43 22,7 °C 15,7 °C 56 % 75 % 1017,3 hPa 0,0 l/m² 0,0 km/h (0 Bft) S-SO 163 ° 1 min 309 W/m² 11,3 °C 15,7 °C 0,0 km/h (0 Bft)
06.07.2023 07:44 22,7 °C 15,7 °C 56 % 75 % 1017,2 hPa 0,0 l/m² 1,1 km/h (1 Bft) S-SO 153 ° 1 min 308 W/m² 11,3 °C 15,7 °C 3,2 km/h (1 Bft)
06.07.2023 07:45 22,7 °C 15,8 °C 56 % 75 % 1017,2 hPa 0,0 l/m² 1,3 km/h (1 Bft) S-SO 151 ° 1 min 306 W/m² 11,4 °C 15,8 °C 3,2 km/h (1 Bft)
06.07.2023 07:46 22,7 °C 15,8 °C 56 % 75 % 1017,3 hPa 0,0 l/m² 1,2 km/h (1 Bft) S-SO 151 ° 1 min 302 W/m² 11,4 °C 15,8 °C 3,2 km/h (1 Bft)
06.07.2023 07:47 22,6 °C 15,9 °C 56 % 74 % 1017,2 hPa 0,0 l/m² 1,5 km/h (1 Bft) S-SO 151 ° 1 min 301 W/m² 11,3 °C 15,9 °C 3,2 km/h (1 Bft)
06.07.2023 07:48 22,7 °C 16,0 °C 56 % 74 % 1017,2 hPa 0,0 l/m² 0,3 km/h (0 Bft) S-SO 152 ° 1 min 299 W/m² 11,4 °C 16,0 °C 1,6 km/h (1 Bft)
06.07.2023 07:49 22,7 °C 16,1 °C 56 % 74 % 1017,2 hPa 0,0 l/m² 2,4 km/h (1 Bft) SO 138 ° 1 min 297 W/m² 11,5 °C 16,1 °C 3,2 km/h (1 Bft)
06.07.2023 07:50 22,7 °C 16,1 °C 56 % 74 % 1017,2 hPa 0,0 l/m² 4,0 km/h (1 Bft) SO 126 ° 1 min 292 W/m² 11,5 °C 16,1 °C 6,4 km/h (2 Bft)
06.07.2023 07:51 22,7 °C 16,3 °C 56 % 74 % 1017,3 hPa 0,0 l/m² 2,9 km/h (1 Bft) SO 126 ° 1 min 290 W/m² 11,7 °C 16,3 °C 4,8 km/h (1 Bft)
06.07.2023 07:52 22,7 °C 16,3 °C 56 % 73 % 1017,2 hPa 0,0 l/m² 2,6 km/h (1 Bft) SO 143 ° 1 min 287 W/m² 11,4 °C 16,3 °C 6,4 km/h (2 Bft)
06.07.2023 07:53 22,6 °C 16,4 °C 56 % 74 % 1017,3 hPa 0,0 l/m² 4,0 km/h (1 Bft) S-SO 163 ° 1 min 287 W/m² 11,8 °C 16,4 °C 8,0 km/h (2 Bft)
06.07.2023 07:54 22,7 °C 16,5 °C 56 % 73 % 1017,2 hPa 0,0 l/m² 2,6 km/h (1 Bft) S-SO 153 ° 1 min 285 W/m² 11,6 °C 16,5 °C 6,4 km/h (2 Bft)
06.07.2023 07:55 22,7 °C 16,6 °C 56 % 72 % 1017,2 hPa 0,0 l/m² 3,6 km/h (1 Bft) S-SO 152 ° 1 min 287 W/m² 11,5 °C 16,6 °C 6,4 km/h (2 Bft)
06.07.2023 07:56 22,7 °C 16,6 °C 56 % 72 % 1017,3 hPa 0,0 l/m² 1,7 km/h (1 Bft) S-SO 152 ° 1 min 294 W/m² 11,5 °C 16,6 °C 3,2 km/h (1 Bft)
06.07.2023 07:57 22,7 °C 16,7 °C 56 % 72 % 1017,3 hPa 0,0 l/m² 3,7 km/h (1 Bft) S-SO 162 ° 1 min 299 W/m² 11,6 °C 16,7 °C 6,4 km/h (2 Bft)
06.07.2023 07:58 22,7 °C 16,7 °C 56 % 71 % 1017,2 hPa 0,0 l/m² 3,1 km/h (1 Bft) S 183 ° 1 min 306 W/m² 11,4 °C 16,7 °C 6,4 km/h (2 Bft)
06.07.2023 07:59 22,7 °C 16,7 °C 56 % 72 % 1017,3 hPa 0,0 l/m² 2,5 km/h (1 Bft) S 182 ° 1 min 316 W/m² 11,6 °C 16,7 °C 4,8 km/h (1 Bft)
06.07.2023 08:00 22,7 °C 16,8 °C 56 % 71 % 1017,3 hPa 0,0 l/m² 4,9 km/h (1 Bft) S 175 ° 1 min 325 W/m² 11,5 °C 16,8 °C 8,0 km/h (2 Bft)
06.07.2023 08:01 22,6 °C 16,8 °C 56 % 71 % 1017,3 hPa 0,0 l/m² 4,0 km/h (1 Bft) S 175 ° 1 min 336 W/m² 11,5 °C 16,8 °C 9,7 km/h (2 Bft)
06.07.2023 08:02 22,7 °C 16,9 °C 56 % 72 % 1017,3 hPa 0,0 l/m² 2,2 km/h (1 Bft) S 176 ° 1 min 353 W/m² 11,8 °C 16,9 °C 4,8 km/h (1 Bft)
06.07.2023 08:03 22,6 °C 16,9 °C 56 % 71 % 1017,3 hPa 0,0 l/m² 6,7 km/h (2 Bft) SW 219 ° 1 min 360 W/m² 11,6 °C 16,8 °C 8,0 km/h (2 Bft)
06.07.2023 08:04 22,6 °C 16,9 °C 56 % 71 % 1017,3 hPa 0,0 l/m² 1,5 km/h (1 Bft) SW 222 ° 1 min 366 W/m² 11,6 °C 16,9 °C 4,8 km/h (1 Bft)
06.07.2023 08:05 22,6 °C 17,0 °C 56 % 71 % 1017,3 hPa 0,0 l/m² 0,8 km/h (0 Bft) SW 222 ° 1 min 371 W/m² 11,7 °C 17,0 °C 3,2 km/h (1 Bft)
06.07.2023 08:06 22,7 °C 17,1 °C 56 % 72 % 1017,4 hPa 0,0 l/m² 0,3 km/h (0 Bft) SW 222 ° 1 min 374 W/m² 12,0 °C 17,1 °C 3,2 km/h (1 Bft)
06.07.2023 08:07 22,7 °C 17,2 °C 56 % 72 % 1017,4 hPa 0,0 l/m² 3,6 km/h (1 Bft) SW 223 ° 1 min 378 W/m² 12,1 °C 17,2 °C 4,8 km/h (1 Bft)
06.07.2023 08:08 22,6 °C 17,2 °C 56 % 70 % 1017,4 hPa 0,0 l/m² 3,6 km/h (1 Bft) SW 222 ° 1 min 383 W/m² 11,7 °C 17,2 °C 6,4 km/h (2 Bft)
06.07.2023 08:09 22,7 °C 17,2 °C 56 % 71 % 1017,4 hPa 0,0 l/m² 2,9 km/h (1 Bft) SW 222 ° 1 min 387 W/m² 11,9 °C 17,2 °C 4,8 km/h (1 Bft)
06.07.2023 08:10 22,7 °C 17,3 °C 56 % 70 % 1017,4 hPa 0,0 l/m² 1,2 km/h (1 Bft) SW 222 ° 1 min 390 W/m² 11,8 °C 17,3 °C 3,2 km/h (1 Bft)
06.07.2023 08:11 22,6 °C 17,2 °C 56 % 70 % 1017,4 hPa 0,0 l/m² 0,0 km/h (0 Bft) SW 222 ° 1 min 392 W/m² 11,7 °C 17,2 °C 0,0 km/h (0 Bft)
06.07.2023 08:12 22,7 °C 17,2 °C 56 % 70 % 1017,3 hPa 0,0 l/m² 0,8 km/h (0 Bft) SW 222 ° 1 min 394 W/m² 11,7 °C 17,2 °C 3,2 km/h (1 Bft)
06.07.2023 08:13 22,6 °C 17,2 °C 56 % 70 % 1017,4 hPa 0,0 l/m² 3,7 km/h (1 Bft) S-SW 196 ° 1 min 396 W/m² 11,7 °C 17,2 °C 8,0 km/h (2 Bft)
06.07.2023 08:14 22,7 °C 17,2 °C 56 % 70 % 1017,4 hPa 0,0 l/m² 4,4 km/h (1 Bft) S-SO 154 ° 1 min 399 W/m² 11,7 °C 17,2 °C 9,7 km/h (2 Bft)
06.07.2023 08:15 22,7 °C 17,4 °C 56 % 70 % 1017,4 hPa 0,0 l/m² 6,1 km/h (2 Bft) S 190 ° 1 min 401 W/m² 11,9 °C 17,4 °C 9,7 km/h (2 Bft)
06.07.2023 08:16 22,7 °C 17,6 °C 56 % 70 % 1017,4 hPa 0,0 l/m² 9,9 km/h (2 Bft) SW 232 ° 1 min 403 W/m² 12,1 °C 16,0 °C 12,9 km/h (3 Bft)
06.07.2023 08:17 22,7 °C 17,7 °C 56 % 68 % 1017,3 hPa 0,0 l/m² 10,6 km/h (2 Bft) SW 229 ° 1 min 403 W/m² 11,7 °C 15,9 °C 14,5 km/h (3 Bft)
06.07.2023 08:18 22,7 °C 17,8 °C 56 % 69 % 1017,4 hPa 0,0 l/m² 8,3 km/h (2 Bft) S 178 ° 1 min 403 W/m² 12,0 °C 16,9 °C 11,3 km/h (2 Bft)
06.07.2023 08:19 22,7 °C 18,0 °C 56 % 68 % 1017,4 hPa 0,0 l/m² 11,5 km/h (2 Bft) S-SW 202 ° 1 min 404 W/m² 12,0 °C 15,9 °C 14,5 km/h (3 Bft)
06.07.2023 08:20 22,7 °C 18,0 °C 56 % 67 % 1017,4 hPa 0,0 l/m² 13,0 km/h (3 Bft) SW 221 ° 1 min 403 W/m² 11,8 °C 15,4 °C 16,1 km/h (3 Bft)
06.07.2023 08:21 22,7 °C 18,1 °C 56 % 67 % 1017,4 hPa 0,0 l/m² 12,8 km/h (3 Bft) SW 219 ° 1 min 401 W/m² 11,9 °C 15,6 °C 14,5 km/h (3 Bft)
06.07.2023 08:22 22,7 °C 18,2 °C 56 % 66 % 1017,4 hPa 0,0 l/m² 12,0 km/h (2 Bft) S-SW 200 ° 1 min 401 W/m² 11,7 °C 16,0 °C 14,5 km/h (3 Bft)
06.07.2023 08:23 22,7 °C 18,3 °C 56 % 67 % 1017,4 hPa 0,0 l/m² 12,5 km/h (2 Bft) SW 229 ° 1 min 399 W/m² 12,1 °C 15,9 °C 16,1 km/h (3 Bft)
06.07.2023 08:24 22,7 °C 18,3 °C 56 % 66 % 1017,4 hPa 0,0 l/m² 11,6 km/h (2 Bft) SW 218 ° 1 min 399 W/m² 11,8 °C 16,2 °C 14,5 km/h (3 Bft)
06.07.2023 08:25 22,7 °C 18,4 °C 56 % 66 % 1017,4 hPa 0,0 l/m² 10,4 km/h (2 Bft) SW 233 ° 1 min 397 W/m² 11,9 °C 16,7 °C 12,9 km/h (3 Bft)
06.07.2023 08:26 22,7 °C 18,5 °C 56 % 67 % 1017,4 hPa 0,0 l/m² 9,2 km/h (2 Bft) S-SW 212 ° 1 min 394 W/m² 12,3 °C 17,3 °C 14,5 km/h (3 Bft)
06.07.2023 08:27 22,7 °C 18,6 °C 57 % 66 % 1017,4 hPa 0,0 l/m² 9,3 km/h (2 Bft) SW 236 ° 1 min 390 W/m² 12,1 °C 17,4 °C 12,9 km/h (3 Bft)
06.07.2023 08:28 22,7 °C 18,7 °C 57 % 66 % 1017,4 hPa 0,0 l/m² 8,6 km/h (2 Bft) SW 226 ° 1 min 385 W/m² 12,2 °C 17,7 °C 12,9 km/h (3 Bft)
06.07.2023 08:29 22,7 °C 18,7 °C 57 % 65 % 1017,4 hPa 0,0 l/m² 9,4 km/h (2 Bft) SW 216 ° 1 min 380 W/m² 12,0 °C 17,4 °C 12,9 km/h (3 Bft)
06.07.2023 08:30 22,7 °C 18,7 °C 57 % 65 % 1017,5 hPa 0,0 l/m² 13,1 km/h (3 Bft) S-SW 213 ° 1 min 376 W/m² 12,0 °C 16,2 °C 16,1 km/h (3 Bft)
06.07.2023 08:31 22,7 °C 18,7 °C 57 % 65 % 1017,4 hPa 0,0 l/m² 10,1 km/h (2 Bft) SW 231 ° 1 min 371 W/m² 12,0 °C 17,2 °C 12,9 km/h (3 Bft)
06.07.2023 08:32 22,7 °C 18,8 °C 57 % 65 % 1017,5 hPa 0,0 l/m² 10,6 km/h (2 Bft) S-SW 197 ° 1 min 367 W/m² 12,1 °C 17,1 °C 17,7 km/h (3 Bft)
06.07.2023 08:33 22,7 °C 18,8 °C 57 % 65 % 1017,5 hPa 0,0 l/m² 15,6 km/h (3 Bft) S-SW 207 ° 1 min 366 W/m² 12,1 °C 15,6 °C 19,3 km/h (3 Bft)
06.07.2023 08:34 22,7 °C 18,9 °C 57 % 64 % 1017,5 hPa 0,0 l/m² 12,2 km/h (2 Bft) W 263 ° 1 min 364 W/m² 11,9 °C 16,7 °C 19,3 km/h (3 Bft)
06.07.2023 08:35 22,7 °C 18,9 °C 57 % 64 % 1017,5 hPa 0,0 l/m² 11,1 km/h (2 Bft) SW 228 ° 1 min 364 W/m² 11,9 °C 17,0 °C 16,1 km/h (3 Bft)
06.07.2023 08:36 22,7 °C 19,0 °C 57 % 64 % 1017,5 hPa 0,0 l/m² 9,3 km/h (2 Bft) SW 219 ° 1 min 364 W/m² 12,0 °C 17,8 °C 12,9 km/h (3 Bft)
06.07.2023 08:37 22,7 °C 19,1 °C 57 % 63 % 1017,5 hPa 0,0 l/m² 16,3 km/h (3 Bft) SW 226 ° 1 min 367 W/m² 11,9 °C 15,8 °C 20,9 km/h (4 Bft)
06.07.2023 08:38 22,7 °C 19,0 °C 57 % 62 % 1017,6 hPa 0,0 l/m² 14,0 km/h (3 Bft) W-SW 240 ° 1 min 369 W/m² 11,6 °C 16,3 °C 17,7 km/h (3 Bft)
06.07.2023 08:39 22,7 °C 18,9 °C 57 % 62 % 1017,6 hPa 0,0 l/m² 11,2 km/h (2 Bft) S-SW 208 ° 1 min 373 W/m² 11,5 °C 17,0 °C 14,5 km/h (3 Bft)
06.07.2023 08:40 22,7 °C 19,0 °C 57 % 62 % 1017,5 hPa 0,0 l/m² 12,7 km/h (3 Bft) S-SW 201 ° 1 min 378 W/m² 11,6 °C 16,7 °C 14,5 km/h (3 Bft)
06.07.2023 08:41 22,7 °C 19,1 °C 56 % 62 % 1017,6 hPa 0,0 l/m² 14,8 km/h (3 Bft) SW 219 ° 1 min 381 W/m² 11,6 °C 16,2 °C 20,9 km/h (4 Bft)
06.07.2023 08:42 22,7 °C 19,2 °C 56 % 62 % 1017,6 hPa 0,0 l/m² 11,9 km/h (2 Bft) SW 217 ° 1 min 385 W/m² 11,7 °C 17,1 °C 16,1 km/h (3 Bft)
06.07.2023 08:43 22,7 °C 19,1 °C 56 % 62 % 1017,6 hPa 0,0 l/m² 8,5 km/h (2 Bft) W-SW 245 ° 1 min 380 W/m² 11,6 °C 18,2 °C 12,9 km/h (3 Bft)
06.07.2023 08:44 22,7 °C 19,1 °C 56 % 63 % 1017,7 hPa 0,0 l/m² 11,0 km/h (2 Bft) W-SW 257 ° 1 min 374 W/m² 11,9 °C 17,3 °C 14,5 km/h (3 Bft)
06.07.2023 08:45 22,7 °C 19,1 °C 56 % 62 % 1017,7 hPa 0,0 l/m² 8,6 km/h (2 Bft) W 259 ° 1 min 371 W/m² 11,6 °C 18,2 °C 14,5 km/h (3 Bft)
06.07.2023 08:46 22,7 °C 19,1 °C 55 % 62 % 1017,5 hPa 0,0 l/m² 9,2 km/h (2 Bft) W 264 ° 1 min 369 W/m² 11,6 °C 17,9 °C 14,5 km/h (3 Bft)
06.07.2023 08:47 22,7 °C 19,1 °C 55 % 62 % 1017,6 hPa 0,0 l/m² 13,3 km/h (3 Bft) W-SW 256 ° 1 min 369 W/m² 11,6 °C 16,6 °C 16,1 km/h (3 Bft)
06.07.2023 08:48 22,7 °C 18,9 °C 55 % 62 % 1017,6 hPa 0,0 l/m² 13,1 km/h (3 Bft) W-SW 248 ° 1 min 369 W/m² 11,5 °C 16,4 °C 16,1 km/h (3 Bft)
06.07.2023 08:49 22,7 °C 18,9 °C 56 % 62 % 1017,6 hPa 0,0 l/m² 8,5 km/h (2 Bft) W-SW 250 ° 1 min 376 W/m² 11,5 °C 18,0 °C 12,9 km/h (3 Bft)
06.07.2023 08:50 22,7 °C 19,0 °C 56 % 63 % 1017,7 hPa 0,0 l/m² 8,1 km/h (2 Bft) W-SW 239 ° 1 min 380 W/m² 11,8 °C 18,3 °C 12,9 km/h (3 Bft)
06.07.2023 08:51 22,7 °C 19,0 °C 56 % 63 % 1017,6 hPa 0,0 l/m² 12,1 km/h (2 Bft) W-SW 254 ° 1 min 387 W/m² 11,8 °C 16,8 °C 16,1 km/h (3 Bft)
06.07.2023 08:52 22,7 °C 19,1 °C 55 % 63 % 1017,6 hPa 0,0 l/m² 6,6 km/h (2 Bft) W-SW 255 ° 1 min 392 W/m² 11,9 °C 19,0 °C 11,3 km/h (2 Bft)
06.07.2023 08:53 22,7 °C 19,1 °C 55 % 63 % 1017,6 hPa 0,0 l/m² 11,1 km/h (2 Bft) SW 236 ° 1 min 399 W/m² 11,9 °C 17,3 °C 14,5 km/h (3 Bft)
06.07.2023 08:54 22,7 °C 19,2 °C 55 % 63 % 1017,6 hPa 0,0 l/m² 13,1 km/h (3 Bft) W-SW 251 ° 1 min 406 W/m² 12,0 °C 16,8 °C 17,7 km/h (3 Bft)
06.07.2023 08:55 22,7 °C 19,3 °C 55 % 62 % 1017,6 hPa 0,0 l/m² 11,9 km/h (2 Bft) SW 216 ° 1 min 425 W/m² 11,8 °C 17,3 °C 16,1 km/h (3 Bft)
06.07.2023 08:56 22,7 °C 19,4 °C 55 % 61 % 1017,6 hPa 0,0 l/m² 12,9 km/h (3 Bft) SW 229 ° 1 min 434 W/m² 11,7 °C 17,1 °C 17,7 km/h (3 Bft)
06.07.2023 08:57 22,7 °C 19,4 °C 55 % 61 % 1017,7 hPa 0,0 l/m² 13,2 km/h (3 Bft) SW 214 ° 1 min 439 W/m² 11,7 °C 17,0 °C 16,1 km/h (3 Bft)
06.07.2023 08:58 22,7 °C 19,5 °C 55 % 61 % 1017,7 hPa 0,0 l/m² 12,7 km/h (3 Bft) S-SW 213 ° 1 min 450 W/m² 11,8 °C 17,3 °C 16,1 km/h (3 Bft)
06.07.2023 08:59 22,7 °C 19,6 °C 55 % 62 % 1017,6 hPa 0,0 l/m² 8,5 km/h (2 Bft) SW 220 ° 1 min 459 W/m² 12,1 °C 18,7 °C 11,3 km/h (2 Bft)
06.07.2023 09:00 22,8 °C 19,7 °C 55 % 61 % 1017,6 hPa 0,0 l/m² 6,4 km/h (2 Bft) SW 225 ° 1 min 471 W/m² 12,0 °C 19,7 °C 9,7 km/h (2 Bft)
06.07.2023 09:02 22,8 °C 19,7 °C 55 % 60 % 1017,7 hPa 0,0 l/m² 11,0 km/h (2 Bft) SW 234 ° 2 min 482 W/m² 11,7 °C 18,0 °C 16,1 km/h (3 Bft)
06.07.2023 09:03 22,8 °C 19,6 °C 55 % 60 % 1017,7 hPa 0,0 l/m² 12,6 km/h (3 Bft) SW 229 ° 1 min 487 W/m² 11,6 °C 17,4 °C 16,1 km/h (3 Bft)
06.07.2023 09:04 22,8 °C 19,5 °C 55 % 60 % 1017,7 hPa 0,0 l/m² 8,0 km/h (2 Bft) W 276 ° 1 min 496 W/m² 11,5 °C 18,8 °C 12,9 km/h (3 Bft)
06.07.2023 09:05 22,8 °C 19,3 °C 55 % 61 % 1017,7 hPa 0,0 l/m² 7,1 km/h (2 Bft) W-SW 250 ° 1 min 499 W/m² 11,6 °C 19,0 °C 12,9 km/h (3 Bft)
06.07.2023 09:06 22,8 °C 19,2 °C 55 % 61 % 1017,7 hPa 0,0 l/m² 7,1 km/h (2 Bft) W 265 ° 1 min 513 W/m² 11,5 °C 18,9 °C 11,3 km/h (2 Bft)
06.07.2023 09:07 22,8 °C 19,2 °C 55 % 61 % 1017,7 hPa 0,0 l/m² 10,9 km/h (2 Bft) SW 229 ° 1 min 519 W/m² 11,5 °C 17,5 °C 16,1 km/h (3 Bft)
06.07.2023 09:08 22,8 °C 19,3 °C 56 % 62 % 1017,7 hPa 0,0 l/m² 13,0 km/h (3 Bft) SW 215 ° 1 min 526 W/m² 11,8 °C 16,9 °C 16,1 km/h (3 Bft)
06.07.2023 09:09 22,8 °C 19,4 °C 56 % 61 % 1017,7 hPa 0,0 l/m² 13,6 km/h (3 Bft) SW 221 ° 1 min 531 W/m² 11,7 °C 16,9 °C 17,7 km/h (3 Bft)
06.07.2023 09:10 22,8 °C 19,5 °C 56 % 61 % 1017,7 hPa 0,0 l/m² 17,1 km/h (3 Bft) SW 223 ° 1 min 538 W/m² 11,8 °C 16,2 °C 20,9 km/h (4 Bft)
06.07.2023 09:11 22,8 °C 19,6 °C 56 % 60 % 1017,7 hPa 0,0 l/m² 15,5 km/h (3 Bft) SW 225 ° 1 min 545 W/m² 11,6 °C 16,6 °C 20,9 km/h (4 Bft)
06.07.2023 09:12 22,8 °C 19,7 °C 56 % 60 % 1017,8 hPa 0,0 l/m² 14,4 km/h (3 Bft) SW 234 ° 1 min 555 W/m² 11,7 °C 17,0 °C 19,3 km/h (3 Bft)
06.07.2023 09:13 22,8 °C 19,7 °C 56 % 60 % 1017,7 hPa 0,0 l/m² 14,1 km/h (3 Bft) W-SW 253 ° 1 min 561 W/m² 11,7 °C 17,1 °C 17,7 km/h (3 Bft)
06.07.2023 09:14 22,8 °C 19,7 °C 56 % 60 % 1017,8 hPa 0,0 l/m² 9,1 km/h (2 Bft) W-SW 239 ° 1 min 564 W/m² 11,7 °C 18,6 °C 14,5 km/h (3 Bft)
06.07.2023 09:15 22,8 °C 19,6 °C 56 % 60 % 1017,7 hPa 0,0 l/m² 7,2 km/h (2 Bft) W-NW 286 ° 1 min 570 W/m² 11,6 °C 19,3 °C 12,9 km/h (3 Bft)
06.07.2023 09:16 22,8 °C 19,4 °C 56 % 60 % 1017,8 hPa 0,0 l/m² 5,0 km/h (1 Bft) W-NW 285 ° 1 min 571 W/m² 11,4 °C 19,4 °C 11,3 km/h (2 Bft)
06.07.2023 09:17 22,8 °C 19,3 °C 56 % 61 % 1017,7 hPa 0,0 l/m² 8,3 km/h (2 Bft) SW 215 ° 1 min 571 W/m² 11,6 °C 18,5 °C 17,7 km/h (3 Bft)
06.07.2023 09:18 22,8 °C 19,4 °C 56 % 61 % 1017,7 hPa 0,0 l/m² 12,7 km/h (3 Bft) S-SW 199 ° 1 min 577 W/m² 11,7 °C 17,1 °C 16,1 km/h (3 Bft)
06.07.2023 09:19 22,8 °C 19,7 °C 56 % 59 % 1017,7 hPa 0,0 l/m² 8,9 km/h (2 Bft) W-SW 254 ° 1 min 580 W/m² 11,5 °C 18,7 °C 12,9 km/h (3 Bft)
06.07.2023 09:20 22,8 °C 19,8 °C 56 % 60 % 1017,7 hPa 0,0 l/m² 16,5 km/h (3 Bft) W-SW 250 ° 1 min 584 W/m² 11,8 °C 16,7 °C 20,9 km/h (4 Bft)
06.07.2023 09:21 22,8 °C 19,8 °C 56 % 59 % 1017,7 hPa 0,0 l/m² 16,1 km/h (3 Bft) SW 223 ° 1 min 587 W/m² 11,6 °C 16,7 °C 22,5 km/h (4 Bft)
06.07.2023 09:22 22,8 °C 19,7 °C 56 % 59 % 1017,7 hPa 0,0 l/m² 15,8 km/h (3 Bft) SW 226 ° 1 min 589 W/m² 11,5 °C 16,7 °C 19,3 km/h (3 Bft)
06.07.2023 09:23 22,9 °C 19,7 °C 56 % 60 % 1017,8 hPa 0,0 l/m² 10,7 km/h (2 Bft) SW 232 ° 1 min 591 W/m² 11,7 °C 18,1 °C 16,1 km/h (3 Bft)
06.07.2023 09:24 22,9 °C 19,9 °C 56 % 60 % 1017,8 hPa 0,0 l/m² 12,3 km/h (2 Bft) SW 223 ° 1 min 594 W/m² 11,9 °C 17,8 °C 17,7 km/h (3 Bft)
06.07.2023 09:25 22,9 °C 19,9 °C 56 % 59 % 1017,8 hPa 0,0 l/m² 12,5 km/h (2 Bft) SW 229 ° 1 min 596 W/m² 11,6 °C 17,8 °C 17,7 km/h (3 Bft)
06.07.2023 09:26 22,9 °C 19,8 °C 56 % 59 % 1017,8 hPa 0,0 l/m² 10,4 km/h (2 Bft) W 259 ° 1 min 599 W/m² 11,6 °C 18,3 °C 12,9 km/h (3 Bft)
06.07.2023 09:27 22,9 °C 19,8 °C 56 % 59 % 1017,7 hPa 0,0 l/m² 12,0 km/h (2 Bft) W-SW 253 ° 1 min 599 W/m² 11,6 °C 17,8 °C 12,9 km/h (3 Bft)
06.07.2023 09:28 22,9 °C 19,6 °C 56 % 60 % 1017,7 hPa 0,0 l/m² 8,4 km/h (2 Bft) W-SW 245 ° 1 min 599 W/m² 11,6 °C 18,8 °C 11,3 km/h (2 Bft)
06.07.2023 09:29 22,9 °C 19,7 °C 56 % 61 % 1017,8 hPa 0,0 l/m² 8,0 km/h (2 Bft) W-SW 247 ° 1 min 603 W/m² 12,0 °C 19,0 °C 16,1 km/h (3 Bft)
06.07.2023 09:30 22,9 °C 19,8 °C 56 % 61 % 1017,8 hPa 0,0 l/m² 7,3 km/h (2 Bft) W 261 ° 1 min 608 W/m² 12,1 °C 19,4 °C 12,9 km/h (3 Bft)
06.07.2023 09:31 22,9 °C 19,9 °C 56 % 60 % 1017,7 hPa 0,0 l/m² 5,4 km/h (2 Bft) W 265 ° 1 min 612 W/m² 11,9 °C 19,9 °C 8,0 km/h (2 Bft)
06.07.2023 09:32 22,9 °C 19,9 °C 56 % 60 % 1017,8 hPa 0,0 l/m² 13,3 km/h (3 Bft) SW 232 ° 1 min 613 W/m² 11,9 °C 17,6 °C 17,7 km/h (3 Bft)
06.07.2023 09:33 22,9 °C 20,1 °C 56 % 59 % 1017,8 hPa 0,0 l/m² 16,2 km/h (3 Bft) SW 223 ° 1 min 615 W/m² 11,8 °C 17,1 °C 17,7 km/h (3 Bft)
06.07.2023 09:34 22,9 °C 20,2 °C 56 % 58 % 1017,7 hPa 0,0 l/m² 11,9 km/h (2 Bft) SW 233 ° 1 min 619 W/m² 11,7 °C 18,3 °C 17,7 km/h (3 Bft)
06.07.2023 09:35 22,9 °C 20,2 °C 56 % 58 % 1017,9 hPa 0,0 l/m² 11,3 km/h (2 Bft) W-SW 258 ° 1 min 622 W/m² 11,7 °C 18,5 °C 17,7 km/h (3 Bft)
06.07.2023 09:36 22,9 °C 20,2 °C 56 % 59 % 1017,8 hPa 0,0 l/m² 8,3 km/h (2 Bft) W 268 ° 1 min 624 W/m² 11,9 °C 19,4 °C 14,5 km/h (3 Bft)
06.07.2023 09:37 22,9 °C 20,1 °C 56 % 58 % 1017,8 hPa 0,0 l/m² 10,5 km/h (2 Bft) W-SW 245 ° 1 min 624 W/m² 11,6 °C 18,6 °C 14,5 km/h (3 Bft)
06.07.2023 09:38 22,9 °C 20,1 °C 56 % 59 % 1017,8 hPa 0,0 l/m² 3,6 km/h (1 Bft) W 261 ° 1 min 628 W/m² 11,8 °C 20,1 °C 9,7 km/h (2 Bft)
06.07.2023 09:39 22,9 °C 20,0 °C 56 % 59 % 1017,7 hPa 0,0 l/m² 5,4 km/h (2 Bft) S-SW 211 ° 1 min 631 W/m² 11,7 °C 20,0 °C 11,3 km/h (2 Bft)
06.07.2023 09:40 22,9 °C 20,1 °C 56 % 58 % 1017,8 hPa 0,0 l/m² 8,4 km/h (2 Bft) SW 221 ° 1 min 631 W/m² 11,6 °C 19,3 °C 12,9 km/h (3 Bft)
06.07.2023 09:41 22,9 °C 20,3 °C 56 % 59 % 1017,8 hPa 0,0 l/m² 10,0 km/h (2 Bft) SW 230 ° 1 min 636 W/m² 12,0 °C 19,0 °C 14,5 km/h (3 Bft)
06.07.2023 09:42 22,9 °C 20,3 °C 56 % 58 % 1017,7 hPa 0,0 l/m² 6,2 km/h (2 Bft) W-SW 253 ° 1 min 635 W/m² 11,8 °C 20,3 °C 9,7 km/h (2 Bft)
06.07.2023 09:43 22,9 °C 20,5 °C 56 % 59 % 1017,7 hPa 0,0 l/m² 9,7 km/h (2 Bft) W-SW 252 ° 1 min 638 W/m² 12,2 °C 19,3 °C 14,5 km/h (3 Bft)
06.07.2023 09:44 22,9 °C 20,6 °C 56 % 58 % 1017,8 hPa 0,0 l/m² 10,0 km/h (2 Bft) SW 232 ° 1 min 645 W/m² 12,0 °C 19,3 °C 14,5 km/h (3 Bft)
06.07.2023 09:46 22,9 °C 20,7 °C 55 % 57 % 1017,8 hPa 0,0 l/m² 15,6 km/h (3 Bft) W-SW 242 ° 2 min 649 W/m² 11,9 °C 18,0 °C 20,9 km/h (4 Bft)
06.07.2023 09:47 22,9 °C 20,8 °C 55 % 57 % 1017,8 hPa 0,0 l/m² 11,5 km/h (2 Bft) S-SW 208 ° 1 min 650 W/m² 12,0 °C 19,1 °C 16,1 km/h (3 Bft)
06.07.2023 09:48 22,9 °C 20,9 °C 55 % 56 % 1017,8 hPa 0,0 l/m² 12,1 km/h (2 Bft) SW 223 ° 1 min 650 W/m² 11,8 °C 19,0 °C 16,1 km/h (3 Bft)
06.07.2023 09:49 22,9 °C 21,0 °C 55 % 56 % 1017,8 hPa 0,0 l/m² 9,3 km/h (2 Bft) S-SW 213 ° 1 min 654 W/m² 11,9 °C 20,0 °C 11,3 km/h (2 Bft)
06.07.2023 09:50 22,9 °C 21,1 °C 55 % 56 % 1017,7 hPa 0,0 l/m² 10,0 km/h (2 Bft) SW 231 ° 1 min 659 W/m² 12,0 °C 19,9 °C 16,1 km/h (3 Bft)
06.07.2023 09:51 22,9 °C 21,1 °C 55 % 57 % 1017,8 hPa 0,0 l/m² 8,9 km/h (2 Bft) S 191 ° 1 min 661 W/m² 12,2 °C 20,2 °C 12,9 km/h (3 Bft)
06.07.2023 09:52 22,9 °C 21,0 °C 55 % 55 % 1017,8 hPa 0,0 l/m² 11,6 km/h (2 Bft) SW 221 ° 1 min 664 W/m² 11,6 °C 19,3 °C 14,5 km/h (3 Bft)
06.07.2023 09:53 22,9 °C 21,1 °C 55 % 56 % 1017,8 hPa 0,0 l/m² 14,3 km/h (3 Bft) SW 217 ° 1 min 664 W/m² 12,0 °C 18,7 °C 17,7 km/h (3 Bft)
06.07.2023 09:54 22,9 °C 21,1 °C 55 % 55 % 1017,8 hPa 0,0 l/m² 16,0 km/h (3 Bft) S 184 ° 1 min 664 W/m² 11,7 °C 18,4 °C 19,3 km/h (3 Bft)
06.07.2023 09:55 22,9 °C 21,2 °C 55 % 55 % 1017,8 hPa 0,0 l/m² 19,4 km/h (3 Bft) S-SW 213 ° 1 min 668 W/m² 11,8 °C 17,9 °C 24,1 km/h (4 Bft)
06.07.2023 09:56 22,9 °C 21,2 °C 55 % 55 % 1017,9 hPa 0,0 l/m² 18,7 km/h (3 Bft) S-SW 207 ° 1 min 671 W/m² 11,8 °C 18,0 °C 20,9 km/h (4 Bft)
06.07.2023 09:57 22,9 °C 21,2 °C 55 % 55 % 1017,9 hPa 0,0 l/m² 12,7 km/h (3 Bft) S 189 ° 1 min 673 W/m² 11,8 °C 19,2 °C 17,7 km/h (3 Bft)
06.07.2023 09:58 22,9 °C 21,3 °C 55 % 56 % 1017,8 hPa 0,0 l/m² 6,3 km/h (2 Bft) W 272 ° 1 min 679 W/m² 12,2 °C 21,3 °C 11,3 km/h (2 Bft)
06.07.2023 09:59 22,9 °C 21,3 °C 55 % 54 % 1017,8 hPa 0,0 l/m² 13,1 km/h (3 Bft) SW 224 ° 1 min 694 W/m² 11,6 °C 19,3 °C 16,1 km/h (3 Bft)
06.07.2023 10:00 22,9 °C 21,4 °C 55 % 54 % 1017,8 hPa 0,0 l/m² 16,6 km/h (3 Bft) SW 236 ° 1 min 707 W/m² 11,7 °C 18,6 °C 22,5 km/h (4 Bft)
06.07.2023 10:01 22,9 °C 21,3 °C 55 % 54 % 1017,8 hPa 0,0 l/m² 12,6 km/h (3 Bft) SW 215 ° 1 min 701 W/m² 11,6 °C 19,4 °C 17,7 km/h (3 Bft)
06.07.2023 10:02 22,9 °C 21,2 °C 55 % 55 % 1017,9 hPa 0,0 l/m² 12,2 km/h (2 Bft) SW 233 ° 1 min 712 W/m² 11,8 °C 19,4 °C 17,7 km/h (3 Bft)
06.07.2023 10:03 22,9 °C 21,2 °C 55 % 55 % 1017,8 hPa 0,0 l/m² 9,4 km/h (2 Bft) W 259 ° 1 min 705 W/m² 11,8 °C 20,1 °C 14,5 km/h (3 Bft)
06.07.2023 10:04 22,9 °C 21,0 °C 55 % 55 % 1017,8 hPa 0,0 l/m² 10,8 km/h (2 Bft) W-SW 249 ° 1 min 686 W/m² 11,6 °C 19,5 °C 19,3 km/h (3 Bft)
06.07.2023 10:05 22,9 °C 20,9 °C 55 % 56 % 1017,8 hPa 0,0 l/m² 11,7 km/h (2 Bft) SW 224 ° 1 min 691 W/m² 11,8 °C 19,1 °C 16,1 km/h (3 Bft)
06.07.2023 10:07 22,9 °C 21,2 °C 55 % 55 % 1017,9 hPa 0,0 l/m² 12,5 km/h (2 Bft) W-SW 250 ° 2 min 696 W/m² 11,8 °C 19,3 °C 19,3 km/h (3 Bft)
06.07.2023 10:08 22,9 °C 21,1 °C 55 % 56 % 1017,9 hPa 0,0 l/m² 11,3 km/h (2 Bft) SW 233 ° 1 min 698 W/m² 12,0 °C 19,5 °C 17,7 km/h (3 Bft)
06.07.2023 10:09 22,9 °C 21,1 °C 55 % 56 % 1017,8 hPa 0,0 l/m² 7,6 km/h (2 Bft) NW 310 ° 1 min 703 W/m² 12,0 °C 20,7 °C 12,9 km/h (3 Bft)
06.07.2023 10:10 22,9 °C 20,9 °C 55 % 56 % 1017,7 hPa 0,0 l/m² 4,6 km/h (1 Bft) SW 222 ° 1 min 710 W/m² 11,8 °C 20,9 °C 11,3 km/h (2 Bft)
06.07.2023 10:11 22,9 °C 21,0 °C 55 % 55 % 1017,8 hPa 0,0 l/m² 10,6 km/h (2 Bft) SW 230 ° 1 min 719 W/m² 11,6 °C 19,6 °C 14,5 km/h (3 Bft)
06.07.2023 10:12 22,9 °C 21,1 °C 55 % 56 % 1017,8 hPa 0,0 l/m² 12,5 km/h (2 Bft) W-SW 252 ° 1 min 724 W/m² 12,0 °C 19,2 °C 22,5 km/h (4 Bft)
06.07.2023 10:13 23,0 °C 20,9 °C 55 % 55 % 1017,8 hPa 0,0 l/m² 9,4 km/h (2 Bft) W-SW 255 ° 1 min 724 W/m² 11,5 °C 19,8 °C 16,1 km/h (3 Bft)
06.07.2023 10:14 23,0 °C 20,8 °C 55 % 55 % 1017,8 hPa 0,0 l/m² 6,7 km/h (2 Bft) S-SW 213 ° 1 min 726 W/m² 11,4 °C 20,7 °C 14,5 km/h (3 Bft)
06.07.2023 10:15 22,9 °C 21,1 °C 55 % 55 % 1017,9 hPa 0,0 l/m² 14,5 km/h (3 Bft) W-SW 241 ° 1 min 728 W/m² 11,7 °C 18,7 °C 19,3 km/h (3 Bft)
06.07.2023 10:16 22,9 °C 21,2 °C 55 % 54 % 1017,9 hPa 0,0 l/m² 17,9 km/h (3 Bft) W-SW 244 ° 1 min 726 W/m² 11,5 °C 18,1 °C 22,5 km/h (4 Bft)
06.07.2023 10:17 22,9 °C 21,0 °C 54 % 53 % 1017,8 hPa 0,0 l/m² 13,8 km/h (3 Bft) W-SW 254 ° 1 min 726 W/m² 11,0 °C 18,7 °C 19,3 km/h (3 Bft)
06.07.2023 10:18 23,0 °C 20,8 °C 54 % 54 % 1017,8 hPa 0,0 l/m² 11,2 km/h (2 Bft) SW 221 ° 1 min 729 W/m² 11,1 °C 19,2 °C 16,1 km/h (3 Bft)
06.07.2023 10:19 22,9 °C 21,1 °C 54 % 55 % 1017,8 hPa 0,0 l/m² 19,8 km/h (3 Bft) SW 217 ° 1 min 735 W/m² 11,7 °C 17,7 °C 24,1 km/h (4 Bft)
06.07.2023 10:20 22,9 °C 21,4 °C 54 % 53 % 1017,8 hPa 0,0 l/m² 16,4 km/h (3 Bft) W-SW 238 ° 1 min 740 W/m² 11,4 °C 18,7 °C 20,9 km/h (4 Bft)
06.07.2023 10:21 23,0 °C 21,7 °C 54 % 53 % 1017,8 hPa 0,0 l/m² 15,5 km/h (3 Bft) SW 229 ° 1 min 745 W/m² 11,7 °C 19,2 °C 22,5 km/h (4 Bft)
06.07.2023 10:22 23,0 °C 21,8 °C 54 % 52 % 1017,8 hPa 0,0 l/m² 10,5 km/h (2 Bft) S-SW 213 ° 1 min 749 W/m² 11,5 °C 20,5 °C 12,9 km/h (3 Bft)
06.07.2023 10:23 23,0 °C 21,8 °C 54 % 52 % 1017,8 hPa 0,0 l/m² 9,7 km/h (2 Bft) S-SW 199 ° 1 min 752 W/m² 11,5 °C 20,7 °C 12,9 km/h (3 Bft)
06.07.2023 10:24 23,0 °C 21,9 °C 54 % 52 % 1017,7 hPa 0,0 l/m² 12,3 km/h (2 Bft) S-SW 211 ° 1 min 752 W/m² 11,6 °C 20,1 °C 14,5 km/h (3 Bft)
06.07.2023 10:25 23,0 °C 21,9 °C 54 % 51 % 1017,9 hPa 0,0 l/m² 13,8 km/h (3 Bft) W-SW 252 ° 1 min 754 W/m² 11,3 °C 19,8 °C 20,9 km/h (4 Bft)
06.07.2023 10:26 23,0 °C 21,8 °C 54 % 51 % 1017,9 hPa 0,0 l/m² 11,8 km/h (2 Bft) SW 236 ° 1 min 759 W/m² 11,2 °C 20,2 °C 17,7 km/h (3 Bft)
06.07.2023 10:27 23,0 °C 21,7 °C 54 % 51 % 1017,8 hPa 0,0 l/m² 8,4 km/h (2 Bft) W-NW 295 ° 1 min 763 W/m² 11,1 °C 21,0 °C 11,3 km/h (2 Bft)
06.07.2023 10:28 23,0 °C 21,7 °C 54 % 53 % 1017,8 hPa 0,0 l/m² 4,0 km/h (1 Bft) W 265 ° 1 min 759 W/m² 11,7 °C 21,7 °C 6,4 km/h (2 Bft)
06.07.2023 10:29 23,0 °C 21,6 °C 54 % 51 % 1017,8 hPa 0,0 l/m² 6,6 km/h (2 Bft) W-NW 283 ° 1 min 759 W/m² 11,0 °C 21,5 °C 11,3 km/h (2 Bft)
06.07.2023 10:30 23,0 °C 21,4 °C 54 % 53 % 1017,8 hPa 0,0 l/m² 9,2 km/h (2 Bft) W 264 ° 1 min 759 W/m² 11,4 °C 20,4 °C 12,9 km/h (3 Bft)
06.07.2023 10:31 23,0 °C 21,4 °C 54 % 53 % 1017,8 hPa 0,0 l/m² 4,8 km/h (1 Bft) W-SW 250 ° 1 min 758 W/m² 11,4 °C 21,4 °C 8,0 km/h (2 Bft)
06.07.2023 10:32 23,0 °C 21,5 °C 54 % 54 % 1017,9 hPa 0,0 l/m² 11,0 km/h (2 Bft) SW 229 ° 1 min 768 W/m² 11,8 °C 20,0 °C 17,7 km/h (3 Bft)
06.07.2023 10:33 23,1 °C 21,6 °C 54 % 51 % 1017,9 hPa 0,0 l/m² 14,1 km/h (3 Bft) SW 236 ° 1 min 772 W/m² 11,0 °C 19,4 °C 20,9 km/h (4 Bft)
06.07.2023 10:34 23,1 °C 21,7 °C 54 % 51 % 1017,9 hPa 0,0 l/m² 7,4 km/h (2 Bft) W-SW 252 ° 1 min 770 W/m² 11,1 °C 21,3 °C 16,1 km/h (3 Bft)
06.07.2023 10:35 23,0 °C 21,8 °C 54 % 51 % 1017,9 hPa 0,0 l/m² 8,9 km/h (2 Bft) SW 225 ° 1 min 766 W/m² 11,2 °C 21,0 °C 14,5 km/h (3 Bft)
06.07.2023 10:36 23,1 °C 21,9 °C 54 % 51 % 1017,9 hPa 0,0 l/m² 18,2 km/h (3 Bft) W 272 ° 1 min 770 W/m² 11,3 °C 19,0 °C 27,4 km/h (5 Bft)
06.07.2023 10:37 23,1 °C 21,8 °C 54 % 48 % 1017,8 hPa 0,0 l/m² 16,8 km/h (3 Bft) W 278 ° 1 min 773 W/m² 10,3 °C 19,1 °C 27,4 km/h (5 Bft)
06.07.2023 10:38 23,0 °C 21,6 °C 54 % 50 % 1017,9 hPa 0,0 l/m² 12,7 km/h (3 Bft) W 272 ° 1 min 780 W/m² 10,7 °C 19,7 °C 19,3 km/h (3 Bft)
06.07.2023 10:39 23,1 °C 21,5 °C 54 % 50 % 1017,8 hPa 0,0 l/m² 13,0 km/h (3 Bft) W-NW 286 ° 1 min 789 W/m² 10,6 °C 19,5 °C 19,3 km/h (3 Bft)
06.07.2023 10:40 23,1 °C 21,4 °C 54 % 50 % 1017,8 hPa 0,0 l/m² 12,9 km/h (3 Bft) W-NW 282 ° 1 min 714 W/m² 10,5 °C 19,4 °C 17,7 km/h (3 Bft)
06.07.2023 10:41 23,0 °C 21,6 °C 54 % 52 % 1017,9 hPa 0,0 l/m² 12,2 km/h (2 Bft) SW 232 ° 1 min 714 W/m² 11,3 °C 19,8 °C 17,7 km/h (3 Bft)
06.07.2023 10:42 23,1 °C 21,9 °C 54 % 50 % 1017,9 hPa 0,0 l/m² 14,4 km/h (3 Bft) SW 227 ° 1 min 816 W/m² 11,0 °C 19,7 °C 16,1 km/h (3 Bft)
06.07.2023 10:43 23,1 °C 22,1 °C 54 % 48 % 1017,8 hPa 0,0 l/m² 12,9 km/h (3 Bft) S-SW 213 ° 1 min 824 W/m² 10,6 °C 20,2 °C 19,3 km/h (3 Bft)
06.07.2023 10:44 23,1 °C 22,2 °C 54 % 48 % 1017,8 hPa 0,0 l/m² 14,5 km/h (3 Bft) W-SW 247 ° 1 min 824 W/m² 10,7 °C 20,0 °C 19,3 km/h (3 Bft)
06.07.2023 10:45 23,1 °C 22,1 °C 54 % 48 % 1017,8 hPa 0,0 l/m² 9,7 km/h (2 Bft) W-SW 247 ° 1 min 306 W/m² 10,6 °C 21,0 °C 17,7 km/h (3 Bft)
06.07.2023 10:46 23,1 °C 22,0 °C 54 % 48 % 1017,8 hPa 0,0 l/m² 14,5 km/h (3 Bft) W 270 ° 1 min 814 W/m² 10,5 °C 19,8 °C 25,7 km/h (4 Bft)
06.07.2023 10:47 23,1 °C 21,9 °C 54 % 48 % 1017,9 hPa 0,0 l/m² 12,9 km/h (3 Bft) W 270 ° 1 min 817 W/m² 10,4 °C 20,0 °C 19,3 km/h (3 Bft)
06.07.2023 10:48 23,1 °C 21,8 °C 54 % 48 % 1017,9 hPa 0,0 l/m² 14,5 km/h (3 Bft) W 270 ° 1 min 823 W/m² 10,3 °C 19,5 °C 24,1 km/h (4 Bft)
06.07.2023 10:49 23,1 °C 21,8 °C 54 % 49 % 1017,9 hPa 0,0 l/m² 9,7 km/h (2 Bft) W-SW 247 ° 1 min 840 W/m² 10,6 °C 20,7 °C 19,3 km/h (3 Bft)
06.07.2023 10:55 23,1 °C 21,7 °C 54 % 48 % 1017,9 hPa 0,0 l/m² 13,7 km/h (3 Bft) W 259 ° 6 min 849 W/m² 10,2 °C 19,6 °C 19,3 km/h (3 Bft)
06.07.2023 10:57 23,1 °C 21,7 °C 54 % 48 % 1017,9 hPa 0,0 l/m² 11,7 km/h (2 Bft) SW 233 ° 2 min 882 W/m² 10,2 °C 20,1 °C 17,7 km/h (3 Bft)
06.07.2023 10:58 23,1 °C 21,7 °C 54 % 48 % 1017,9 hPa 0,0 l/m² 13,5 km/h (3 Bft) W-SW 251 ° 1 min 893 W/m² 10,2 °C 19,6 °C 17,7 km/h (3 Bft)
06.07.2023 11:00 23,1 °C 21,9 °C 54 % 48 % 1017,9 hPa 0,0 l/m² 13,1 km/h (3 Bft) W-SW 247 ° 2 min 193 W/m² 10,4 °C 20,0 °C 22,5 km/h (4 Bft)
06.07.2023 11:01 23,1 °C 21,8 °C 54 % 46 % 1017,9 hPa 0,0 l/m² 16,5 km/h (3 Bft) W-NW 286 ° 1 min 193 W/m² 9,7 °C 19,1 °C 25,7 km/h (4 Bft)
06.07.2023 11:02 23,1 °C 21,7 °C 54 % 46 % 1017,9 hPa 0,0 l/m² 15,1 km/h (3 Bft) W 267 ° 1 min 896 W/m² 9,6 °C 19,3 °C 19,3 km/h (3 Bft)
06.07.2023 11:04 23,1 °C 21,6 °C 54 % 47 % 1017,9 hPa 0,0 l/m² 12,6 km/h (3 Bft) W-SW 240 ° 2 min 896 W/m² 9,8 °C 19,7 °C 19,3 km/h (3 Bft)
06.07.2023 11:05 23,1 °C 21,4 °C 54 % 48 % 1017,9 hPa 0,0 l/m² 11,7 km/h (2 Bft) W 259 ° 1 min 165 W/m² 9,9 °C 19,7 °C 19,3 km/h (3 Bft)
06.07.2023 11:07 23,1 °C 21,3 °C 53 % 47 % 1017,9 hPa 0,0 l/m² 15,5 km/h (3 Bft) W-NW 289 ° 2 min 888 W/m² 9,5 °C 18,7 °C 20,9 km/h (4 Bft)
06.07.2023 11:09 23,1 °C 21,8 °C 53 % 48 % 1017,8 hPa 0,0 l/m² 11,0 km/h (2 Bft) W 271 ° 2 min 891 W/m² 10,3 °C 20,4 °C 17,7 km/h (3 Bft)
06.07.2023 11:10 23,1 °C 22,2 °C 53 % 49 % 1017,8 hPa 0,0 l/m² 8,2 km/h (2 Bft) W-SW 248 ° 1 min 895 W/m² 11,0 °C 21,6 °C 14,5 km/h (3 Bft)
06.07.2023 11:12 23,1 °C 22,2 °C 53 % 46 % 1017,9 hPa 0,0 l/m² 8,3 km/h (2 Bft) S-SW 213 ° 2 min 896 W/m² 10,0 °C 21,6 °C 14,5 km/h (3 Bft)
06.07.2023 11:14 23,1 °C 22,6 °C 53 % 46 % 1017,8 hPa 0,0 l/m² 9,2 km/h (2 Bft) S 190 ° 2 min 893 W/m² 10,4 °C 21,7 °C 24,1 km/h (4 Bft)
06.07.2023 11:16 23,1 °C 22,9 °C 53 % 45 % 1017,8 hPa 0,0 l/m² 14,9 km/h (3 Bft) SW 229 ° 2 min 907 W/m² 10,3 °C 20,8 °C 22,5 km/h (4 Bft)
06.07.2023 11:18 23,2 °C 22,7 °C 53 % 45 % 1017,7 hPa 0,0 l/m² 14,2 km/h (3 Bft) SW 216 ° 2 min 940 W/m² 10,1 °C 20,7 °C 22,5 km/h (4 Bft)
06.07.2023 11:20 23,1 °C 23,3 °C 53 % 45 % 1017,7 hPa 0,0 l/m² 15,9 km/h (3 Bft) S-SW 209 ° 2 min 954 W/m² 10,7 °C 21,1 °C 20,9 km/h (4 Bft)
06.07.2023 11:21 23,2 °C 23,7 °C 53 % 45 % 1017,8 hPa 0,0 l/m² 18,1 km/h (3 Bft) S-SW 206 ° 1 min 970 W/m² 11,1 °C 21,2 °C 25,7 km/h (4 Bft)
06.07.2023 11:22 23,2 °C 23,8 °C 53 % 44 % 1017,8 hPa 0,0 l/m² 18,6 km/h (3 Bft) SW 220 ° 1 min 970 W/m² 10,8 °C 21,3 °C 22,5 km/h (4 Bft)
06.07.2023 11:23 23,2 °C 23,8 °C 53 % 43 % 1017,8 hPa 0,0 l/m² 16,0 km/h (3 Bft) SW 221 ° 1 min 234 W/m² 10,5 °C 21,7 °C 19,3 km/h (3 Bft)
06.07.2023 11:24 23,2 °C 23,4 °C 53 % 42 % 1017,9 hPa 0,0 l/m² 13,0 km/h (3 Bft) SW 229 ° 1 min 234 W/m² 9,7 °C 21,7 °C 16,1 km/h (3 Bft)
06.07.2023 11:26 23,2 °C 23,0 °C 53 % 45 % 1017,8 hPa 0,0 l/m² 8,7 km/h (2 Bft) S-SW 212 ° 2 min 956 W/m² 10,4 °C 22,3 °C 20,9 km/h (4 Bft)
06.07.2023 11:28 23,2 °C 23,3 °C 53 % 46 % 1017,8 hPa 0,0 l/m² 17,5 km/h (3 Bft) SW 227 ° 2 min 983 W/m² 11,0 °C 20,8 °C 24,1 km/h (4 Bft)
06.07.2023 11:30 23,2 °C 23,6 °C 53 % 43 % 1018,0 hPa 0,0 l/m² 17,5 km/h (3 Bft) W 261 ° 2 min 997 W/m² 10,3 °C 21,2 °C 20,9 km/h (4 Bft)
06.07.2023 11:31 23,2 °C 23,5 °C 53 % 44 % 1017,8 hPa 0,0 l/m² 13,7 km/h (3 Bft) SW 231 ° 1 min 998 W/m² 10,5 °C 21,7 °C 22,5 km/h (4 Bft)
06.07.2023 11:32 23,2 °C 23,4 °C 53 % 44 % 1017,9 hPa 0,0 l/m² 17,5 km/h (3 Bft) SW 227 ° 1 min 998 W/m² 10,4 °C 21,0 °C 20,9 km/h (4 Bft)
06.07.2023 11:33 23,2 °C 23,3 °C 53 % 44 % 1017,9 hPa 0,0 l/m² 15,3 km/h (3 Bft) SW 221 ° 1 min 998 W/m² 10,4 °C 21,2 °C 19,3 km/h (3 Bft)
06.07.2023 11:35 23,2 °C 22,6 °C 53 % 45 % 1017,8 hPa 0,0 l/m² 17,9 km/h (3 Bft) W-SW 255 ° 2 min 998 W/m² 10,1 °C 19,9 °C 22,5 km/h (4 Bft)
06.07.2023 11:36 23,2 °C 22,3 °C 53 % 46 % 1017,9 hPa 0,0 l/m² 19,2 km/h (3 Bft) SW 231 ° 1 min 188 W/m² 10,1 °C 19,3 °C 25,7 km/h (4 Bft)
06.07.2023 11:38 23,2 °C 22,3 °C 53 % 47 % 1017,8 hPa 0,0 l/m² 15,3 km/h (3 Bft) W-SW 252 ° 2 min 974 W/m² 10,4 °C 20,0 °C 22,5 km/h (4 Bft)
06.07.2023 11:40 23,2 °C 22,5 °C 53 % 47 % 1017,8 hPa 0,0 l/m² 14,0 km/h (3 Bft) W-SW 246 ° 2 min 976 W/m² 10,6 °C 20,5 °C 19,3 km/h (3 Bft)
06.07.2023 11:41 23,2 °C 22,7 °C 53 % 47 % 1017,9 hPa 0,0 l/m² 12,2 km/h (2 Bft) SW 224 ° 1 min 976 W/m² 10,8 °C 21,1 °C 17,7 km/h (3 Bft)
06.07.2023 11:43 23,2 °C 22,9 °C 53 % 45 % 1017,9 hPa 0,0 l/m² 12,8 km/h (3 Bft) SW 214 ° 2 min 190 W/m² 10,3 °C 21,2 °C 17,7 km/h (3 Bft)
06.07.2023 11:45 23,3 °C 23,3 °C 53 % 45 % 1017,9 hPa 0,0 l/m² 15,7 km/h (3 Bft) SW 223 ° 2 min 977 W/m² 10,7 °C 21,1 °C 25,7 km/h (4 Bft)
06.07.2023 11:47 23,3 °C 23,6 °C 53 % 45 % 1017,9 hPa 0,0 l/m² 18,4 km/h (3 Bft) SW 217 ° 2 min 969 W/m² 11,0 °C 21,1 °C 25,7 km/h (4 Bft)
06.07.2023 11:49 23,2 °C 23,8 °C 53 % 44 % 1017,9 hPa 0,0 l/m² 16,0 km/h (3 Bft) S-SW 200 ° 2 min 997 W/m² 10,8 °C 21,7 °C 20,9 km/h (4 Bft)
06.07.2023 11:50 23,3 °C 24,0 °C 53 % 43 % 1017,8 hPa 0,0 l/m² 17,0 km/h (3 Bft) SW 215 ° 1 min 1005 W/m² 10,6 °C 21,8 °C 20,9 km/h (4 Bft)
06.07.2023 11:52 23,3 °C 24,5 °C 53 % 43 % 1017,9 hPa 0,0 l/m² 14,9 km/h (3 Bft) SW 225 ° 2 min 984 W/m² 11,1 °C 22,7 °C 20,9 km/h (4 Bft)
06.07.2023 11:53 23,3 °C 24,6 °C 53 % 41 % 1017,8 hPa 0,0 l/m² 14,7 km/h (3 Bft) SW 222 ° 1 min 988 W/m² 10,5 °C 22,9 °C 19,3 km/h (3 Bft)
06.07.2023 11:54 23,3 °C 24,5 °C 53 % 40 % 1017,8 hPa 0,0 l/m² 15,0 km/h (3 Bft) S 180 ° 1 min 977 W/m² 10,0 °C 22,7 °C 20,9 km/h (4 Bft)
06.07.2023 11:56 23,3 °C 24,4 °C 53 % 43 % 1017,9 hPa 0,0 l/m² 13,1 km/h (3 Bft) W-SW 241 ° 2 min 984 W/m² 11,0 °C 22,9 °C 22,5 km/h (4 Bft)
06.07.2023 11:58 23,3 °C 24,2 °C 52 % 43 % 1017,8 hPa 0,0 l/m² 15,9 km/h (3 Bft) W-SW 244 ° 2 min 1037 W/m² 10,8 °C 22,2 °C 24,1 km/h (4 Bft)
06.07.2023 12:00 23,3 °C 23,8 °C 52 % 41 % 1017,9 hPa 0,0 l/m² 13,5 km/h (3 Bft) W-SW 252 ° 2 min 1037 W/m² 9,7 °C 22,1 °C 24,1 km/h (4 Bft)
06.07.2023 12:01 23,3 °C 23,5 °C 52 % 42 % 1017,8 hPa 0,0 l/m² 19,2 km/h (3 Bft) W-SW 243 ° 1 min 250 W/m² 9,8 °C 20,8 °C 25,7 km/h (4 Bft)
06.07.2023 12:02 23,3 °C 23,4 °C 52 % 42 % 1017,8 hPa 0,0 l/m² 15,4 km/h (3 Bft) W-SW 239 ° 1 min 230 W/m² 9,7 °C 21,3 °C 19,3 km/h (3 Bft)
06.07.2023 12:03 23,3 °C 23,2 °C 52 % 42 % 1017,9 hPa 0,0 l/m² 17,2 km/h (3 Bft) W-NW 288 ° 1 min 230 W/m² 9,6 °C 20,8 °C 22,5 km/h (4 Bft)
06.07.2023 12:05 23,3 °C 22,7 °C 52 % 44 % 1017,9 hPa 0,0 l/m² 15,8 km/h (3 Bft) W-SW 248 ° 2 min 1041 W/m² 9,8 °C 20,4 °C 22,5 km/h (4 Bft)
06.07.2023 12:07 23,3 °C 22,9 °C 52 % 44 % 1017,8 hPa 0,0 l/m² 13,5 km/h (3 Bft) SW 215 ° 2 min 1044 W/m² 10,0 °C 21,1 °C 22,5 km/h (4 Bft)
06.07.2023 12:09 23,3 °C 23,4 °C 52 % 42 % 1017,9 hPa 0,0 l/m² 16,2 km/h (3 Bft) W-SW 246 ° 2 min 1046 W/m² 9,7 °C 21,2 °C 27,4 km/h (5 Bft)
06.07.2023 12:10 23,3 °C 23,2 °C 52 % 42 % 1017,9 hPa 0,0 l/m² 19,0 km/h (3 Bft) W-SW 246 ° 1 min 220 W/m² 9,6 °C 20,5 °C 27,4 km/h (5 Bft)
06.07.2023 12:12 23,3 °C 22,8 °C 52 % 43 % 1018,0 hPa 0,0 l/m² 16,7 km/h (3 Bft) W-SW 245 ° 2 min 1030 W/m² 9,6 °C 20,3 °C 20,9 km/h (4 Bft)
06.07.2023 12:13 23,3 °C 22,9 °C 52 % 43 % 1017,9 hPa 0,0 l/m² 16,4 km/h (3 Bft) SW 230 ° 1 min 1009 W/m² 9,6 °C 20,5 °C 20,9 km/h (4 Bft)
06.07.2023 12:15 23,3 °C 23,3 °C 52 % 41 % 1017,9 hPa 0,0 l/m² 7,2 km/h (2 Bft) SW 229 ° 2 min 990 W/m² 9,3 °C 23,1 °C 14,5 km/h (3 Bft)
06.07.2023 12:16 23,3 °C 23,6 °C 52 % 42 % 1017,9 hPa 0,0 l/m² 11,6 km/h (2 Bft) W-SW 242 ° 1 min 979 W/m² 9,9 °C 22,3 °C 16,1 km/h (3 Bft)
06.07.2023 12:18 23,3 °C 23,8 °C 52 % 41 % 1017,9 hPa 0,0 l/m² 12,8 km/h (3 Bft) W-SW 256 ° 2 min 984 W/m² 9,7 °C 22,2 °C 19,3 km/h (3 Bft)
06.07.2023 12:20 23,3 °C 23,5 °C 52 % 42 % 1017,8 hPa 0,0 l/m² 12,5 km/h (2 Bft) SW 225 ° 2 min 991 W/m² 9,8 °C 22,0 °C 17,7 km/h (3 Bft)
06.07.2023 12:22 23,3 °C 23,7 °C 52 % 43 % 1017,8 hPa 0,0 l/m² 9,7 km/h (2 Bft) SW 218 ° 2 min 1002 W/m² 10,4 °C 22,8 °C 17,7 km/h (3 Bft)
06.07.2023 12:23 23,3 °C 24,1 °C 52 % 40 % 1017,9 hPa 0,0 l/m² 16,4 km/h (3 Bft) S 184 ° 1 min 988 W/m² 9,6 °C 22,0 °C 22,5 km/h (4 Bft)
06.07.2023 12:24 23,3 °C 24,3 °C 52 % 39 % 1017,9 hPa 0,0 l/m² 12,6 km/h (3 Bft) W-SW 248 ° 1 min 983 W/m² 9,4 °C 22,9 °C 16,1 km/h (3 Bft)
06.07.2023 12:26 23,2 °C 24,8 °C 52 % 40 % 1017,9 hPa 0,0 l/m² 15,0 km/h (3 Bft) W-SW 242 ° 2 min 1027 W/m² 10,3 °C 23,1 °C 20,9 km/h (4 Bft)
06.07.2023 12:28 23,3 °C 24,1 °C 52 % 39 % 1017,9 hPa 0,0 l/m² 17,1 km/h (3 Bft) W-SW 243 ° 2 min 1027 W/m² 9,3 °C 21,9 °C 22,5 km/h (4 Bft)
06.07.2023 12:30 23,3 °C 23,3 °C 52 % 41 % 1018,0 hPa 0,0 l/m² 14,4 km/h (3 Bft) W 273 ° 2 min 1027 W/m² 9,3 °C 21,4 °C 22,5 km/h (4 Bft)
06.07.2023 12:32 23,2 °C 22,9 °C 52 % 42 % 1017,9 hPa 0,0 l/m² 10,9 km/h (2 Bft) W-SW 246 ° 2 min 1027 W/m² 9,3 °C 21,6 °C 16,1 km/h (3 Bft)
06.07.2023 12:33 23,2 °C 22,8 °C 52 % 42 % 1017,9 hPa 0,0 l/m² 11,0 km/h (2 Bft) W-NW 295 ° 1 min 251 W/m² 9,2 °C 21,5 °C 16,1 km/h (3 Bft)
06.07.2023 12:34 23,2 °C 22,7 °C 52 % 43 % 1017,9 hPa 0,0 l/m² 9,7 km/h (2 Bft) W-SW 248 ° 1 min 229 W/m² 9,5 °C 21,7 °C 16,1 km/h (3 Bft)
06.07.2023 12:36 23,2 °C 22,3 °C 52 % 44 % 1018,0 hPa 0,0 l/m² 12,2 km/h (2 Bft) W 262 ° 2 min 202 W/m² 9,5 °C 20,6 °C 17,7 km/h (3 Bft)
06.07.2023 12:38 23,2 °C 21,9 °C 52 % 44 % 1017,9 hPa 0,0 l/m² 16,9 km/h (3 Bft) W 263 ° 2 min 199 W/m² 9,1 °C 19,2 °C 24,1 km/h (4 Bft)
06.07.2023 12:40 23,2 °C 22,1 °C 52 % 45 % 1018,0 hPa 0,0 l/m² 14,9 km/h (3 Bft) SW 236 ° 2 min 1023 W/m² 9,6 °C 19,8 °C 19,3 km/h (3 Bft)
06.07.2023 12:42 23,2 °C 22,8 °C 52 % 43 % 1018,0 hPa 0,0 l/m² 15,9 km/h (3 Bft) W-SW 238 ° 2 min 1009 W/m² 9,6 °C 20,5 °C 25,7 km/h (4 Bft)
06.07.2023 12:43 23,2 °C 23,1 °C 52 % 42 % 1017,9 hPa 0,0 l/m² 14,7 km/h (3 Bft) W-SW 244 ° 1 min 1013 W/m² 9,5 °C 21,1 °C 24,1 km/h (4 Bft)
06.07.2023 12:44 23,2 °C 23,1 °C 52 % 43 % 1018,0 hPa 0,0 l/m² 17,7 km/h (3 Bft) W-SW 246 ° 1 min 1009 W/m² 9,8 °C 20,6 °C 24,1 km/h (4 Bft)
06.07.2023 12:46 23,2 °C 23,2 °C 52 % 43 % 1017,9 hPa 0,0 l/m² 12,1 km/h (2 Bft) W-SW 245 ° 2 min 1004 W/m² 9,9 °C 21,7 °C 24,1 km/h (4 Bft)
06.07.2023 12:48 23,2 °C 23,6 °C 52 % 43 % 1018,0 hPa 0,0 l/m² 6,9 km/h (2 Bft) W-NW 298 ° 2 min 995 W/m² 10,3 °C 23,5 °C 16,1 km/h (3 Bft)
06.07.2023 12:50 23,2 °C 23,7 °C 52 % 43 % 1017,8 hPa 0,0 l/m² 5,2 km/h (1 Bft) W 277 ° 2 min 1034 W/m² 10,4 °C 23,7 °C 12,9 km/h (3 Bft)
06.07.2023 12:53 23,2 °C 24,0 °C 53 % 40 % 1017,9 hPa 0,0 l/m² 10,4 km/h (2 Bft) W-SW 258 ° 3 min 1083 W/m² 9,6 °C 23,0 °C 16,1 km/h (3 Bft)
06.07.2023 12:55 23,2 °C 24,3 °C 53 % 42 % 1017,8 hPa 0,0 l/m² 8,4 km/h (2 Bft) SW 225 ° 2 min 1100 W/m² 10,6 °C 23,8 °C 16,1 km/h (3 Bft)
06.07.2023 12:57 23,2 °C 24,3 °C 53 % 40 % 1017,9 hPa 0,0 l/m² 12,4 km/h (2 Bft) W-NW 283 ° 2 min 320 W/m² 9,8 °C 22,9 °C 19,3 km/h (3 Bft)
06.07.2023 12:59 23,2 °C 23,8 °C 53 % 40 % 1017,9 hPa 0,0 l/m² 13,3 km/h (3 Bft) SW 216 ° 2 min 346 W/m² 9,4 °C 22,2 °C 22,5 km/h (4 Bft)
06.07.2023 13:01 23,3 °C 23,4 °C 53 % 41 % 1017,8 hPa 0,0 l/m² 9,7 km/h (2 Bft) W 266 ° 2 min 320 W/m² 9,4 °C 22,5 °C 19,3 km/h (3 Bft)
06.07.2023 13:02 23,2 °C 23,2 °C 53 % 40 % 1017,9 hPa 0,0 l/m² 12,4 km/h (2 Bft) W-SW 250 ° 1 min 323 W/m² 8,8 °C 21,6 °C 17,7 km/h (3 Bft)
06.07.2023 13:03 23,2 °C 22,9 °C 53 % 41 % 1017,9 hPa 0,0 l/m² 16,2 km/h (3 Bft) W-SW 254 ° 1 min 316 W/m² 8,9 °C 20,5 °C 19,3 km/h (3 Bft)
06.07.2023 13:05 23,2 °C 22,7 °C 53 % 43 % 1017,9 hPa 0,0 l/m² 9,6 km/h (2 Bft) W 260 ° 2 min 322 W/m² 9,5 °C 21,7 °C 16,1 km/h (3 Bft)
06.07.2023 13:06 23,2 °C 22,8 °C 53 % 45 % 1017,9 hPa 0,0 l/m² 13,3 km/h (3 Bft) W-SW 248 ° 1 min 1165 W/m² 10,2 °C 21,0 °C 19,3 km/h (3 Bft)
06.07.2023 13:07 23,2 °C 22,8 °C 53 % 43 % 1017,9 hPa 0,0 l/m² 8,4 km/h (2 Bft) W 261 ° 1 min 323 W/m² 9,6 °C 22,2 °C 14,5 km/h (3 Bft)
06.07.2023 13:08 23,2 °C 22,8 °C 53 % 44 % 1017,9 hPa 0,0 l/m² 12,5 km/h (2 Bft) W-SW 242 ° 1 min 327 W/m² 9,9 °C 21,1 °C 20,9 km/h (4 Bft)
06.07.2023 13:10 23,2 °C 22,8 °C 53 % 44 % 1017,9 hPa 0,0 l/m² 12,2 km/h (2 Bft) W-SW 251 ° 2 min 343 W/m² 9,9 °C 21,2 °C 19,3 km/h (3 Bft)
06.07.2023 13:12 23,2 °C 22,8 °C 53 % 43 % 1017,9 hPa 0,0 l/m² 11,0 km/h (2 Bft) W-SW 254 ° 2 min 381 W/m² 9,6 °C 21,5 °C 20,9 km/h (4 Bft)
06.07.2023 13:13 23,2 °C 22,9 °C 53 % 44 % 1018,0 hPa 0,0 l/m² 13,5 km/h (3 Bft) W 267 ° 1 min 381 W/m² 10,0 °C 21,1 °C 17,7 km/h (3 Bft)
06.07.2023 13:14 23,2 °C 23,1 °C 53 % 44 % 1018,0 hPa 0,0 l/m² 11,5 km/h (2 Bft) W-SW 252 ° 1 min 381 W/m² 10,2 °C 21,7 °C 16,1 km/h (3 Bft)
06.07.2023 13:15 23,2 °C 23,2 °C 53 % 43 % 1018,0 hPa 0,0 l/m² 9,5 km/h (2 Bft) W-SW 247 ° 1 min 311 W/m² 9,9 °C 22,3 °C 16,1 km/h (3 Bft)
06.07.2023 13:17 23,2 °C 23,1 °C 53 % 43 % 1018,0 hPa 0,0 l/m² 15,3 km/h (3 Bft) SW 236 ° 2 min 304 W/m² 9,8 °C 21,0 °C 22,5 km/h (4 Bft)
06.07.2023 13:19 23,2 °C 22,9 °C 53 % 43 % 1018,0 hPa 0,0 l/m² 15,9 km/h (3 Bft) W-SW 258 ° 2 min 281 W/m² 9,6 °C 20,6 °C 19,3 km/h (3 Bft)
06.07.2023 13:22 23,2 °C 22,8 °C 53 % 44 % 1018,0 hPa 0,0 l/m² 9,4 km/h (2 Bft) W-SW 252 ° 3 min 281 W/m² 9,9 °C 21,9 °C 17,7 km/h (3 Bft)
06.07.2023 13:23 23,3 °C 22,8 °C 53 % 43 % 1018,0 hPa 0,0 l/m² 8,2 km/h (2 Bft) SW 227 ° 1 min 281 W/m² 9,6 °C 22,2 °C 17,7 km/h (3 Bft)
06.07.2023 13:24 23,3 °C 22,9 °C 53 % 44 % 1018,0 hPa 0,0 l/m² 6,2 km/h (2 Bft) SW 234 ° 1 min 322 W/m² 10,0 °C 22,9 °C 11,3 km/h (2 Bft)
06.07.2023 13:25 23,2 °C 23,0 °C 53 % 44 % 1018,0 hPa 0,0 l/m² 11,7 km/h (2 Bft) W-SW 238 ° 1 min 322 W/m² 10,1 °C 21,6 °C 16,1 km/h (3 Bft)
06.07.2023 13:27 23,2 °C 22,8 °C 53 % 43 % 1018,0 hPa 0,0 l/m² 12,6 km/h (3 Bft) W-SW 254 ° 2 min 229 W/m² 9,6 °C 21,1 °C 22,5 km/h (4 Bft)
06.07.2023 13:29 23,2 °C 22,7 °C 53 % 42 % 1018,1 hPa 0,0 l/m² 13,4 km/h (3 Bft) SW 236 ° 2 min 227 W/m² 9,1 °C 20,8 °C 19,3 km/h (3 Bft)
06.07.2023 13:31 23,2 °C 22,5 °C 53 % 42 % 1018,1 hPa 0,0 l/m² 10,3 km/h (2 Bft) SW 216 ° 2 min 262 W/m² 8,9 °C 21,3 °C 14,5 km/h (3 Bft)
06.07.2023 13:32 23,2 °C 22,5 °C 53 % 42 % 1018,1 hPa 0,0 l/m² 8,0 km/h (2 Bft) S-SW 208 ° 1 min 313 W/m² 8,9 °C 22,0 °C 9,7 km/h (2 Bft)
06.07.2023 13:33 23,2 °C 22,6 °C 53 % 42 % 1018,1 hPa 0,0 l/m² 6,1 km/h (2 Bft) S 182 ° 1 min 269 W/m² 9,0 °C 22,6 °C 8,0 km/h (2 Bft)
06.07.2023 13:35 23,2 °C 23,2 °C 53 % 42 % 1018,1 hPa 0,0 l/m² 9,6 km/h (2 Bft) S-SW 193 ° 2 min 1062 W/m² 9,6 °C 22,3 °C 12,9 km/h (3 Bft)
06.07.2023 13:36 23,2 °C 23,6 °C 53 % 43 % 1018,0 hPa 0,0 l/m² 10,9 km/h (2 Bft) S 185 ° 1 min 1067 W/m² 10,3 °C 22,4 °C 14,5 km/h (3 Bft)
06.07.2023 13:37 23,2 °C 23,9 °C 53 % 41 % 1017,9 hPa 0,0 l/m² 9,6 km/h (2 Bft) S 172 ° 1 min 1072 W/m² 9,8 °C 23,0 °C 12,9 km/h (3 Bft)
06.07.2023 13:38 23,2 °C 24,2 °C 53 % 40 % 1017,9 hPa 0,0 l/m² 10,9 km/h (2 Bft) SW 214 ° 1 min 1071 W/m² 9,7 °C 23,1 °C 14,5 km/h (3 Bft)
06.07.2023 13:40 23,2 °C 25,2 °C 53 % 38 % 1018,0 hPa 0,0 l/m² 13,2 km/h (3 Bft) SW 226 ° 2 min 1086 W/m² 9,9 °C 23,8 °C 17,7 km/h (3 Bft)
06.07.2023 13:42 23,2 °C 25,7 °C 53 % 37 % 1018,0 hPa 0,0 l/m² 14,8 km/h (3 Bft) S-SW 201 ° 2 min 1095 W/m² 9,9 °C 24,2 °C 20,9 km/h (4 Bft)
06.07.2023 13:43 23,2 °C 25,9 °C 53 % 36 % 1017,9 hPa 0,0 l/m² 15,2 km/h (3 Bft) W-SW 238 ° 1 min 1107 W/m² 9,7 °C 24,4 °C 22,5 km/h (4 Bft)
06.07.2023 13:44 23,2 °C 25,8 °C 53 % 35 % 1017,9 hPa 0,0 l/m² 15,9 km/h (3 Bft) W 278 ° 1 min 1111 W/m² 9,2 °C 24,2 °C 24,1 km/h (4 Bft)
06.07.2023 13:45 23,2 °C 25,4 °C 53 % 39 % 1018,0 hPa 0,0 l/m² 12,4 km/h (2 Bft) W-SW 246 ° 1 min 1114 W/m² 10,4 °C 24,2 °C 20,9 km/h (4 Bft)
06.07.2023 13:47 23,2 °C 24,8 °C 53 % 40 % 1018,1 hPa 0,0 l/m² 11,2 km/h (2 Bft) SW 232 ° 2 min 1100 W/m² 10,3 °C 23,7 °C 19,3 km/h (3 Bft)
06.07.2023 13:49 23,2 °C 24,8 °C 53 % 38 % 1018,0 hPa 0,0 l/m² 7,5 km/h (2 Bft) S-SW 212 ° 2 min 1150 W/m² 9,5 °C 24,5 °C 14,5 km/h (3 Bft)
06.07.2023 13:52 23,2 °C 25,6 °C 53 % 37 % 1018,0 hPa 0,0 l/m² 7,6 km/h (2 Bft) S-SO 163 ° 3 min 1190 W/m² 9,8 °C 25,3 °C 14,5 km/h (3 Bft)
06.07.2023 13:53 23,2 °C 25,7 °C 53 % 38 % 1017,9 hPa 0,0 l/m² 2,4 km/h (1 Bft) W-SW 257 ° 1 min 1185 W/m² 10,3 °C 25,7 °C 8,0 km/h (2 Bft)
06.07.2023 13:54 23,2 °C 25,5 °C 53 % 37 % 1017,9 hPa 0,0 l/m² 9,1 km/h (2 Bft) NW 307 ° 1 min 1185 W/m² 9,7 °C 24,9 °C 16,1 km/h (3 Bft)
06.07.2023 13:55 23,2 °C 25,2 °C 53 % 39 % 1017,9 hPa 0,0 l/m² 7,2 km/h (2 Bft) W-NW 284 ° 1 min 857 W/m² 10,2 °C 25,0 °C 20,9 km/h (4 Bft)
06.07.2023 13:57 23,2 °C 24,7 °C 53 % 39 % 1018,0 hPa 0,0 l/m² 8,8 km/h (2 Bft) W-NW 300 ° 2 min 802 W/m² 9,8 °C 24,1 °C 24,1 km/h (4 Bft)
06.07.2023 13:59 23,2 °C 24,2 °C 53 % 39 % 1018,0 hPa 0,0 l/m² 12,2 km/h (2 Bft) NW 304 ° 2 min 341 W/m² 9,4 °C 22,8 °C 22,5 km/h (4 Bft)
06.07.2023 14:01 23,2 °C 23,7 °C 53 % 41 % 1018,0 hPa 0,0 l/m² 8,9 km/h (2 Bft) W 263 ° 2 min 341 W/m² 9,7 °C 23,0 °C 16,1 km/h (3 Bft)
06.07.2023 14:02 23,2 °C 23,6 °C 53 % 41 % 1018,0 hPa 0,0 l/m² 11,1 km/h (2 Bft) W-SW 254 ° 1 min 341 W/m² 9,6 °C 22,4 °C 17,7 km/h (3 Bft)
06.07.2023 14:04 23,2 °C 23,4 °C 53 % 40 % 1018,1 hPa 0,0 l/m² 13,1 km/h (3 Bft) W-NW 292 ° 2 min 320 W/m² 9,0 °C 21,7 °C 20,9 km/h (4 Bft)
06.07.2023 14:05 23,2 °C 23,3 °C 53 % 41 % 1018,0 hPa 0,0 l/m² 9,5 km/h (2 Bft) W-SW 247 ° 1 min 311 W/m² 9,3 °C 22,4 °C 20,9 km/h (4 Bft)
06.07.2023 14:07 23,2 °C 23,2 °C 53 % 42 % 1018,1 hPa 0,0 l/m² 12,0 km/h (2 Bft) W-SW 256 ° 2 min 302 W/m² 9,6 °C 21,7 °C 24,1 km/h (4 Bft)
06.07.2023 14:09 23,2 °C 23,1 °C 53 % 41 % 1018,0 hPa 0,0 l/m² 10,2 km/h (2 Bft) NW 305 ° 2 min 304 W/m² 9,1 °C 22,0 °C 20,9 km/h (4 Bft)
06.07.2023 14:12 23,2 °C 22,9 °C 53 % 41 % 1018,1 hPa 0,0 l/m² 10,1 km/h (2 Bft) W-SW 249 ° 3 min 366 W/m² 8,9 °C 21,8 °C 16,1 km/h (3 Bft)
06.07.2023 14:13 23,2 °C 23,1 °C 53 % 42 % 1018,1 hPa 0,0 l/m² 12,0 km/h (2 Bft) SW 236 ° 1 min 366 W/m² 9,5 °C 21,6 °C 20,9 km/h (4 Bft)
06.07.2023 14:14 23,2 °C 23,2 °C 53 % 42 % 1018,1 hPa 0,0 l/m² 14,4 km/h (3 Bft) W 280 ° 1 min 366 W/m² 9,6 °C 21,2 °C 20,9 km/h (4 Bft)
06.07.2023 14:15 23,2 °C 23,1 °C 53 % 42 % 1018,0 hPa 0,0 l/m² 13,8 km/h (3 Bft) W 277 ° 1 min 309 W/m² 9,5 °C 21,2 °C 19,3 km/h (3 Bft)
06.07.2023 14:17 23,2 °C 23,0 °C 53 % 42 % 1018,1 hPa 0,0 l/m² 12,2 km/h (2 Bft) SW 223 ° 2 min 262 W/m² 9,4 °C 21,4 °C 17,7 km/h (3 Bft)
06.07.2023 14:19 23,2 °C 23,0 °C 53 % 42 % 1018,0 hPa 0,0 l/m² 12,7 km/h (3 Bft) W-SW 256 ° 2 min 311 W/m² 9,4 °C 21,3 °C 17,7 km/h (3 Bft)
06.07.2023 14:21 23,2 °C 23,2 °C 53 % 43 % 1018,0 hPa 0,0 l/m² 11,4 km/h (2 Bft) W 259 ° 2 min 318 W/m² 9,9 °C 21,8 °C 17,7 km/h (3 Bft)
06.07.2023 14:22 23,2 °C 23,1 °C 53 % 41 % 1018,0 hPa 0,0 l/m² 6,1 km/h (2 Bft) W-SW 254 ° 1 min 329 W/m² 9,1 °C 23,1 °C 11,3 km/h (2 Bft)
06.07.2023 14:23 23,2 °C 23,1 °C 53 % 42 % 1018,0 hPa 0,0 l/m² 5,0 km/h (1 Bft) W 269 ° 1 min 401 W/m² 9,5 °C 23,1 °C 9,7 km/h (2 Bft)
06.07.2023 14:25 23,2 °C 23,2 °C 53 % 43 % 1018,0 hPa 0,0 l/m² 10,6 km/h (2 Bft) W-SW 249 ° 2 min 301 W/m² 9,9 °C 22,0 °C 14,5 km/h (3 Bft)
06.07.2023 14:27 23,2 °C 23,1 °C 53 % 41 % 1018,1 hPa 0,0 l/m² 10,6 km/h (2 Bft) W 270 ° 2 min 320 W/m² 9,1 °C 21,9 °C 16,1 km/h (3 Bft)
06.07.2023 14:29 23,2 °C 22,9 °C 53 % 43 % 1018,0 hPa 0,0 l/m² 8,2 km/h (2 Bft) W-SW 248 ° 2 min 318 W/m² 9,6 °C 22,3 °C 16,1 km/h (3 Bft)
06.07.2023 14:31 23,2 °C 23,1 °C 53 % 41 % 1018,0 hPa 0,0 l/m² 11,1 km/h (2 Bft) S-SW 207 ° 2 min 306 W/m² 9,1 °C 21,8 °C 17,7 km/h (3 Bft)
06.07.2023 14:32 23,2 °C 23,2 °C 53 % 42 % 1018,0 hPa 0,0 l/m² 8,4 km/h (2 Bft) W-NW 282 ° 1 min 306 W/m² 9,6 °C 22,6 °C 16,1 km/h (3 Bft)
06.07.2023 14:33 23,2 °C 23,2 °C 53 % 41 % 1018,0 hPa 0,0 l/m² 11,2 km/h (2 Bft) W-SW 246 ° 1 min 302 W/m² 9,2 °C 21,9 °C 16,1 km/h (3 Bft)
06.07.2023 14:34 23,2 °C 23,2 °C 53 % 40 % 1018,0 hPa 0,0 l/m² 13,3 km/h (3 Bft) W 268 ° 1 min 292 W/m² 8,8 °C 21,4 °C 16,1 km/h (3 Bft)
06.07.2023 14:36 23,2 °C 22,9 °C 53 % 41 % 1018,0 hPa 0,0 l/m² 10,7 km/h (2 Bft) W-SW 256 ° 2 min 311 W/m² 8,9 °C 21,7 °C 16,1 km/h (3 Bft)
06.07.2023 14:38 23,2 °C 23,0 °C 53 % 40 % 1017,9 hPa 0,0 l/m² 9,9 km/h (2 Bft) W-NW 286 ° 2 min 318 W/m² 8,7 °C 22,0 °C 19,3 km/h (3 Bft)
06.07.2023 14:40 23,2 °C 22,9 °C 53 % 39 % 1018,0 hPa 0,0 l/m² 13,5 km/h (3 Bft) W 267 ° 2 min 339 W/m² 8,2 °C 21,1 °C 22,5 km/h (4 Bft)
06.07.2023 14:42 23,2 °C 22,9 °C 53 % 41 % 1017,9 hPa 0,0 l/m² 14,5 km/h (3 Bft) W 262 ° 2 min 462 W/m² 8,9 °C 20,9 °C 24,1 km/h (4 Bft)
06.07.2023 14:44 23,2 °C 23,2 °C 53 % 41 % 1018,0 hPa 0,0 l/m² 16,5 km/h (3 Bft) W-SW 256 ° 2 min 898 W/m² 9,2 °C 20,9 °C 22,5 km/h (4 Bft)
06.07.2023 14:46 23,2 °C 23,3 °C 53 % 41 % 1017,9 hPa 0,0 l/m² 14,8 km/h (3 Bft) W 271 ° 2 min 241 W/m² 9,3 °C 21,3 °C 24,1 km/h (4 Bft)
06.07.2023 14:48 23,2 °C 23,3 °C 53 % 41 % 1017,9 hPa 0,0 l/m² 12,4 km/h (2 Bft) W-NW 285 ° 2 min 979 W/m² 9,3 °C 21,7 °C 19,3 km/h (3 Bft)
06.07.2023 14:50 23,1 °C 23,7 °C 53 % 44 % 1017,9 hPa 0,0 l/m² 4,6 km/h (1 Bft) W-NW 301 ° 2 min 962 W/m² 10,7 °C 23,7 °C 12,9 km/h (3 Bft)
06.07.2023 14:52 23,2 °C 24,6 °C 52 % 40 % 1017,9 hPa 0,0 l/m² 13,7 km/h (3 Bft) W-SW 246 ° 2 min 953 W/m² 10,1 °C 23,0 °C 20,9 km/h (4 Bft)
06.07.2023 14:53 23,2 °C 24,7 °C 53 % 38 % 1017,9 hPa 0,0 l/m² 12,9 km/h (3 Bft) SW 221 ° 1 min 933 W/m² 9,4 °C 23,3 °C 16,1 km/h (3 Bft)
06.07.2023 14:54 23,2 °C 24,9 °C 53 % 37 % 1017,9 hPa 0,0 l/m² 13,5 km/h (3 Bft) S-SW 204 ° 1 min 932 W/m² 9,2 °C 23,4 °C 16,1 km/h (3 Bft)
06.07.2023 14:56 23,2 °C 25,2 °C 52 % 36 % 1017,8 hPa 0,0 l/m² 17,9 km/h (3 Bft) SW 227 ° 2 min 925 W/m² 9,1 °C 23,2 °C 27,4 km/h (5 Bft)
06.07.2023 14:58 23,1 °C 25,7 °C 52 % 36 % 1017,9 hPa 0,0 l/m² 14,9 km/h (3 Bft) SW 218 ° 2 min 923 W/m² 9,5 °C 24,2 °C 20,9 km/h (4 Bft)
06.07.2023 15:00 23,2 °C 25,8 °C 52 % 36 % 1017,9 hPa 0,0 l/m² 12,0 km/h (2 Bft) W 281 ° 2 min 918 W/m² 9,6 °C 24,7 °C 19,3 km/h (3 Bft)
06.07.2023 15:02 23,2 °C 25,8 °C 52 % 36 % 1017,9 hPa 0,0 l/m² 12,0 km/h (2 Bft) SW 223 ° 2 min 912 W/m² 9,6 °C 24,7 °C 20,9 km/h (4 Bft)
06.07.2023 15:04 23,2 °C 25,8 °C 52 % 35 % 1017,9 hPa 0,0 l/m² 15,9 km/h (3 Bft) SW 221 ° 2 min 902 W/m² 9,2 °C 24,2 °C 24,1 km/h (4 Bft)
06.07.2023 15:05 23,1 °C 25,9 °C 52 % 35 % 1017,9 hPa 0,0 l/m² 14,8 km/h (3 Bft) S-SW 209 ° 1 min 895 W/m² 9,3 °C 24,4 °C 19,3 km/h (3 Bft)
06.07.2023 15:06 23,1 °C 26,0 °C 52 % 34 % 1017,9 hPa 0,0 l/m² 13,6 km/h (3 Bft) S-SW 209 ° 1 min 891 W/m² 8,9 °C 24,7 °C 16,1 km/h (3 Bft)
06.07.2023 15:07 23,1 °C 26,1 °C 52 % 34 % 1017,9 hPa 0,0 l/m² 13,7 km/h (3 Bft) SW 224 ° 1 min 891 W/m² 9,0 °C 24,8 °C 17,7 km/h (3 Bft)
06.07.2023 15:09 23,2 °C 26,3 °C 52 % 35 % 1017,9 hPa 0,0 l/m² 13,0 km/h (3 Bft) SW 225 ° 2 min 893 W/m² 9,6 °C 25,1 °C 17,7 km/h (3 Bft)
06.07.2023 15:11 23,2 °C 25,9 °C 52 % 35 % 1017,8 hPa 0,0 l/m² 11,5 km/h (2 Bft) S-SW 200 ° 2 min 886 W/m² 9,3 °C 24,9 °C 17,7 km/h (3 Bft)
06.07.2023 15:12 23,1 °C 25,9 °C 52 % 35 % 1017,9 hPa 0,0 l/m² 9,2 km/h (2 Bft) S 186 ° 1 min 882 W/m² 9,3 °C 25,3 °C 12,9 km/h (3 Bft)
06.07.2023 15:13 23,1 °C 25,8 °C 52 % 35 % 1017,9 hPa 0,0 l/m² 5,5 km/h (2 Bft) S 179 ° 1 min 893 W/m² 9,2 °C 25,8 °C 8,0 km/h (2 Bft)
06.07.2023 15:15 23,1 °C 25,9 °C 52 % 33 % 1017,8 hPa 0,0 l/m² 8,9 km/h (2 Bft) S-SO 167 ° 2 min 914 W/m² 8,4 °C 25,4 °C 17,7 km/h (3 Bft)
06.07.2023 15:17 23,2 °C 25,9 °C 52 % 35 % 1017,8 hPa 0,0 l/m² 9,2 km/h (2 Bft) W 262 ° 2 min 939 W/m² 9,3 °C 25,3 °C 16,1 km/h (3 Bft)
06.07.2023 15:19 23,1 °C 25,7 °C 52 % 34 % 1017,9 hPa 0,0 l/m² 13,6 km/h (3 Bft) W 279 ° 2 min 944 W/m² 8,6 °C 24,4 °C 17,7 km/h (3 Bft)
06.07.2023 15:22 23,1 °C 24,9 °C 52 % 36 % 1017,9 hPa 0,0 l/m² 13,8 km/h (3 Bft) W 259 ° 3 min 974 W/m² 8,8 °C 23,4 °C 22,5 km/h (4 Bft)
06.07.2023 15:23 23,1 °C 24,8 °C 52 % 36 % 1017,9 hPa 0,0 l/m² 10,1 km/h (2 Bft) S 181 ° 1 min 881 W/m² 8,7 °C 23,9 °C 14,5 km/h (3 Bft)
06.07.2023 15:24 23,1 °C 24,8 °C 52 % 37 % 1017,9 hPa 0,0 l/m² 9,6 km/h (2 Bft) W-SW 246 ° 1 min 881 W/m² 9,1 °C 24,0 °C 14,5 km/h (3 Bft)
06.07.2023 15:25 23,1 °C 24,8 °C 52 % 36 % 1017,9 hPa 0,0 l/m² 9,2 km/h (2 Bft) W-SW 237 ° 1 min 881 W/m² 8,7 °C 24,1 °C 16,1 km/h (3 Bft)
06.07.2023 15:27 23,2 °C 25,4 °C 52 % 37 % 1017,9 hPa 0,0 l/m² 10,1 km/h (2 Bft) W-SW 243 ° 2 min 988 W/m² 9,6 °C 24,6 °C 17,7 km/h (3 Bft)
06.07.2023 15:29 23,2 °C 25,8 °C 52 % 36 % 1017,8 hPa 0,0 l/m² 9,6 km/h (2 Bft) W 259 ° 2 min 990 W/m² 9,6 °C 25,1 °C 16,1 km/h (3 Bft)
06.07.2023 15:32 23,2 °C 25,1 °C 52 % 35 % 1017,9 hPa 0,0 l/m² 9,8 km/h (2 Bft) SW 229 ° 3 min 239 W/m² 8,6 °C 24,3 °C 19,3 km/h (3 Bft)
06.07.2023 15:33 23,2 °C 24,9 °C 52 % 36 % 1017,8 hPa 0,0 l/m² 8,9 km/h (2 Bft) W 265 ° 1 min 257 W/m² 8,8 °C 24,3 °C 12,9 km/h (3 Bft)
06.07.2023 15:34 23,2 °C 24,7 °C 52 % 36 % 1017,8 hPa 0,0 l/m² 9,9 km/h (2 Bft) W-SW 254 ° 1 min 257 W/m² 8,6 °C 23,9 °C 12,9 km/h (3 Bft)
06.07.2023 15:35 23,2 °C 24,6 °C 52 % 36 % 1017,8 hPa 0,0 l/m² 6,6 km/h (2 Bft) W-SW 237 ° 1 min 1005 W/m² 8,5 °C 24,6 °C 11,3 km/h (2 Bft)
06.07.2023 15:37 23,2 °C 25,2 °C 52 % 35 % 1017,8 hPa 0,0 l/m² 9,5 km/h (2 Bft) SW 223 ° 2 min 288 W/m² 8,6 °C 24,5 °C 14,5 km/h (3 Bft)
06.07.2023 15:39 23,2 °C 25,1 °C 53 % 35 % 1017,8 hPa 0,0 l/m² 8,7 km/h (2 Bft) S 186 ° 2 min 279 W/m² 8,6 °C 24,5 °C 11,3 km/h (2 Bft)
06.07.2023 15:42 23,2 °C 25,1 °C 52 % 39 % 1017,8 hPa 0,0 l/m² 6,4 km/h (2 Bft) SW 236 ° 3 min 923 W/m² 10,2 °C 25,1 °C 14,5 km/h (3 Bft)
06.07.2023 15:43 23,2 °C 25,3 °C 52 % 38 % 1017,9 hPa 0,0 l/m² 8,3 km/h (2 Bft) W-NW 285 ° 1 min 972 W/m² 9,9 °C 24,8 °C 17,7 km/h (3 Bft)
06.07.2023 15:44 23,2 °C 25,5 °C 53 % 35 % 1017,8 hPa 0,0 l/m² 4,8 km/h (1 Bft) W 276 ° 1 min 956 W/m² 8,9 °C 25,5 °C 16,1 km/h (3 Bft)
06.07.2023 15:45 23,2 °C 25,6 °C 53 % 36 % 1017,8 hPa 0,0 l/m² 9,5 km/h (2 Bft) W-SW 257 ° 1 min 949 W/m² 9,4 °C 24,9 °C 17,7 km/h (3 Bft)
06.07.2023 15:46 23,2 °C 25,6 °C 53 % 35 % 1017,8 hPa 0,0 l/m² 11,4 km/h (2 Bft) W 279 ° 1 min 956 W/m² 9,0 °C 24,6 °C 19,3 km/h (3 Bft)
06.07.2023 15:47 23,2 °C 25,4 °C 53 % 34 % 1017,8 hPa 0,0 l/m² 15,8 km/h (3 Bft) W 281 ° 1 min 956 W/m² 8,4 °C 23,7 °C 19,3 km/h (3 Bft)
06.07.2023 15:49 23,2 °C 25,0 °C 53 % 37 % 1017,8 hPa 0,0 l/m² 7,4 km/h (2 Bft) W 261 ° 2 min 916 W/m² 9,3 °C 24,7 °C 12,9 km/h (3 Bft)
06.07.2023 15:52 23,2 °C 25,4 °C 53 % 38 % 1017,8 hPa 0,0 l/m² 7,1 km/h (2 Bft) NW 316 ° 3 min 877 W/m² 10,0 °C 25,2 °C 19,3 km/h (3 Bft)
06.07.2023 15:53 23,2 °C 25,5 °C 53 % 36 % 1017,8 hPa 0,0 l/m² 3,4 km/h (1 Bft) W-NW 294 ° 1 min 867 W/m² 9,3 °C 25,5 °C 11,3 km/h (2 Bft)
06.07.2023 15:54 23,2 °C 25,5 °C 53 % 36 % 1017,8 hPa 0,0 l/m² 6,5 km/h (2 Bft) W-SW 257 ° 1 min 877 W/m² 9,3 °C 25,5 °C 11,3 km/h (2 Bft)
06.07.2023 15:55 23,2 °C 25,5 °C 53 % 36 % 1017,8 hPa 0,0 l/m² 5,3 km/h (1 Bft) NW 322 ° 1 min 877 W/m² 9,3 °C 25,5 °C 11,3 km/h (2 Bft)
06.07.2023 15:57 23,2 °C 25,1 °C 53 % 36 % 1017,8 hPa 0,0 l/m² 8,8 km/h (2 Bft) NW 315 ° 2 min 183 W/m² 9,0 °C 24,5 °C 17,7 km/h (3 Bft)
06.07.2023 15:59 23,2 °C 24,5 °C 53 % 36 % 1017,8 hPa 0,0 l/m² 8,4 km/h (2 Bft) W-SW 257 ° 2 min 200 W/m² 8,4 °C 24,0 °C 16,1 km/h (3 Bft)
06.07.2023 16:01 23,2 °C 24,1 °C 53 % 38 % 1017,8 hPa 0,0 l/m² 5,3 km/h (1 Bft) N-NW 327 ° 2 min 237 W/m² 8,9 °C 24,1 °C 9,7 km/h (2 Bft)
06.07.2023 16:02 23,2 °C 24,1 °C 53 % 39 % 1017,8 hPa 0,0 l/m² 3,0 km/h (1 Bft) NW 304 ° 1 min 237 W/m² 9,3 °C 24,1 °C 4,8 km/h (1 Bft)
06.07.2023 16:03 23,2 °C 24,2 °C 53 % 40 % 1017,8 hPa 0,0 l/m² 2,3 km/h (1 Bft) W-NW 296 ° 1 min 912 W/m² 9,7 °C 24,2 °C 6,4 km/h (2 Bft)
06.07.2023 16:04 23,2 °C 24,7 °C 53 % 39 % 1017,8 hPa 0,0 l/m² 5,2 km/h (1 Bft) W-NW 295 ° 1 min 932 W/m² 9,8 °C 24,7 °C 11,3 km/h (2 Bft)
06.07.2023 16:06 23,2 °C 24,8 °C 53 % 37 % 1017,8 hPa 0,0 l/m² 6,5 km/h (2 Bft) W-SW 254 ° 2 min 253 W/m² 9,1 °C 24,8 °C 11,3 km/h (2 Bft)
06.07.2023 16:08 23,2 °C 24,4 °C 53 % 38 % 1017,8 hPa 0,0 l/m² 5,9 km/h (2 Bft) SW 234 ° 2 min 255 W/m² 9,2 °C 24,4 °C 14,5 km/h (3 Bft)
06.07.2023 16:10 23,2 °C 24,1 °C 53 % 39 % 1017,7 hPa 0,0 l/m² 9,6 km/h (2 Bft) W-SW 253 ° 2 min 258 W/m² 9,3 °C 23,3 °C 16,1 km/h (3 Bft)
06.07.2023 16:13 23,2 °C 24,1 °C 53 % 38 % 1017,9 hPa 0,0 l/m² 4,9 km/h (1 Bft) W 265 ° 3 min 297 W/m² 8,9 °C 24,1 °C 9,7 km/h (2 Bft)
06.07.2023 16:15 23,2 °C 24,2 °C 53 % 39 % 1017,9 hPa 0,0 l/m² 3,4 km/h (1 Bft) W 281 ° 2 min 253 W/m² 9,4 °C 24,2 °C 8,0 km/h (2 Bft)
06.07.2023 16:17 23,2 °C 24,1 °C 53 % 38 % 1017,9 hPa 0,0 l/m² 9,1 km/h (2 Bft) W-SW 242 ° 2 min 250 W/m² 8,9 °C 23,4 °C 12,9 km/h (3 Bft)
06.07.2023 16:19 23,2 °C 23,9 °C 53 % 39 % 1017,9 hPa 0,0 l/m² 5,0 km/h (1 Bft) N 5 ° 2 min 272 W/m² 9,1 °C 23,9 °C 9,7 km/h (2 Bft)
06.07.2023 16:22 23,2 °C 23,8 °C 53 % 40 % 1017,9 hPa 0,0 l/m² 9,3 km/h (2 Bft) NW 304 ° 3 min 329 W/m² 9,4 °C 23,0 °C 16,1 km/h (3 Bft)
06.07.2023 16:23 23,2 °C 24,1 °C 53 % 41 % 1017,9 hPa 0,0 l/m² 8,9 km/h (2 Bft) N-NW 340 ° 1 min 329 W/m² 10,0 °C 23,4 °C 17,7 km/h (3 Bft)
06.07.2023 16:24 23,2 °C 24,1 °C 53 % 40 % 1017,9 hPa 0,0 l/m² 12,1 km/h (2 Bft) N-NW 342 ° 1 min 329 W/m² 9,6 °C 22,7 °C 16,1 km/h (3 Bft)
06.07.2023 16:25 23,2 °C 24,2 °C 53 % 41 % 1017,9 hPa 0,0 l/m² 10,6 km/h (2 Bft) N-NW 346 ° 1 min 329 W/m² 10,1 °C 23,1 °C 14,5 km/h (3 Bft)
06.07.2023 16:27 23,2 °C 24,1 °C 53 % 41 % 1017,8 hPa 0,0 l/m² 12,7 km/h (3 Bft) N 360 ° 2 min 341 W/m² 10,0 °C 22,6 °C 22,5 km/h (4 Bft)
06.07.2023 16:29 23,2 °C 24,0 °C 53 % 41 % 1017,8 hPa 0,0 l/m² 12,0 km/h (2 Bft) N-NW 342 ° 2 min 383 W/m² 9,9 °C 22,6 °C 17,7 km/h (3 Bft)
06.07.2023 16:32 23,2 °C 24,3 °C 53 % 40 % 1017,9 hPa 0,0 l/m² 8,7 km/h (2 Bft) NO 44 ° 3 min 383 W/m² 9,8 °C 23,7 °C 14,5 km/h (3 Bft)
06.07.2023 16:33 23,2 °C 24,3 °C 53 % 38 % 1017,8 hPa 0,0 l/m² 4,4 km/h (1 Bft) NO 40 ° 1 min 383 W/m² 9,1 °C 24,3 °C 6,4 km/h (2 Bft)
06.07.2023 16:34 23,2 °C 24,6 °C 53 % 41 % 1017,8 hPa 0,0 l/m² 3,1 km/h (1 Bft) N-NO 28 ° 1 min 789 W/m² 10,5 °C 24,6 °C 6,4 km/h (2 Bft)
06.07.2023 16:35 23,2 °C 24,8 °C 53 % 39 % 1017,7 hPa 0,0 l/m² 5,4 km/h (2 Bft) N-NO 18 ° 1 min 791 W/m² 9,9 °C 24,8 °C 8,0 km/h (2 Bft)
06.07.2023 16:37 23,2 °C 24,8 °C 53 % 38 % 1017,8 hPa 0,0 l/m² 4,4 km/h (1 Bft) NW 325 ° 2 min 786 W/m² 9,5 °C 24,8 °C 8,0 km/h (2 Bft)
06.07.2023 16:39 23,2 °C 24,8 °C 53 % 38 % 1017,8 hPa 0,0 l/m² 10,4 km/h (2 Bft) N-NW 348 ° 2 min 772 W/m² 9,5 °C 23,9 °C 16,1 km/h (3 Bft)
06.07.2023 16:42 23,2 °C 24,3 °C 53 % 40 % 1017,8 hPa 0,0 l/m² 9,4 km/h (2 Bft) N 5 ° 3 min 176 W/m² 9,8 °C 23,5 °C 17,7 km/h (3 Bft)
06.07.2023 16:43 23,2 °C 24,3 °C 53 % 40 % 1017,9 hPa 0,0 l/m² 6,7 km/h (2 Bft) N 355 ° 1 min 214 W/m² 9,8 °C 24,2 °C 8,0 km/h (2 Bft)
06.07.2023 16:44 23,2 °C 24,3 °C 53 % 40 % 1017,9 hPa 0,0 l/m² 8,6 km/h (2 Bft) N 360 ° 1 min 229 W/m² 9,8 °C 23,7 °C 12,9 km/h (3 Bft)
06.07.2023 16:45 23,2 °C 24,2 °C 53 % 40 % 1017,9 hPa 0,0 l/m² 12,8 km/h (3 Bft) N-NW 340 ° 1 min 229 W/m² 9,7 °C 22,7 °C 19,3 km/h (3 Bft)
06.07.2023 16:47 23,2 °C 23,8 °C 53 % 39 % 1017,8 hPa 0,0 l/m² 9,6 km/h (2 Bft) N-NO 13 ° 2 min 211 W/m² 9,0 °C 22,9 °C 16,1 km/h (3 Bft)
06.07.2023 16:49 23,2 °C 23,7 °C 53 % 40 % 1017,8 hPa 0,0 l/m² 8,4 km/h (2 Bft) N-NW 335 ° 2 min 185 W/m² 9,3 °C 23,1 °C 14,5 km/h (3 Bft)
06.07.2023 16:52 23,2 °C 23,5 °C 53 % 41 % 1017,8 hPa 0,0 l/m² 5,4 km/h (2 Bft) N-NW 329 ° 3 min 193 W/m² 9,5 °C 23,5 °C 9,7 km/h (2 Bft)
06.07.2023 16:53 23,2 °C 23,5 °C 53 % 41 % 1017,8 hPa 0,0 l/m² 6,2 km/h (2 Bft) NW 319 ° 1 min 199 W/m² 9,5 °C 23,5 °C 11,3 km/h (2 Bft)
06.07.2023 16:54 23,2 °C 23,5 °C 53 % 40 % 1017,8 hPa 0,0 l/m² 6,5 km/h (2 Bft) W-SW 249 ° 1 min 216 W/m² 9,1 °C 23,5 °C 9,7 km/h (2 Bft)
06.07.2023 16:55 23,2 °C 23,4 °C 53 % 41 % 1017,8 hPa 0,0 l/m² 7,3 km/h (2 Bft) W-SW 238 ° 1 min 236 W/m² 9,4 °C 23,1 °C 9,7 km/h (2 Bft)
06.07.2023 16:57 23,2 °C 23,4 °C 53 % 40 % 1017,9 hPa 0,0 l/m² 4,8 km/h (1 Bft) N-NW 327 ° 2 min 200 W/m² 9,0 °C 23,4 °C 11,3 km/h (2 Bft)
06.07.2023 16:59 23,2 °C 23,4 °C 53 % 41 % 1017,9 hPa 0,0 l/m² 4,8 km/h (1 Bft) NW 324 ° 2 min 188 W/m² 9,4 °C 23,4 °C 8,0 km/h (2 Bft)
06.07.2023 17:02 23,2 °C 23,4 °C 53 % 40 % 1017,9 hPa 0,0 l/m² 5,9 km/h (2 Bft) NW 325 ° 3 min 216 W/m² 9,0 °C 23,4 °C 17,7 km/h (3 Bft)
06.07.2023 17:03 23,2 °C 23,3 °C 53 % 40 % 1017,9 hPa 0,0 l/m² 7,3 km/h (2 Bft) N 355 ° 1 min 216 W/m² 8,9 °C 23,0 °C 11,3 km/h (2 Bft)
06.07.2023 17:04 23,2 °C 23,4 °C 53 % 41 % 1017,9 hPa 0,0 l/m² 5,9 km/h (2 Bft) NW 321 ° 1 min 216 W/m² 9,4 °C 23,4 °C 8,0 km/h (2 Bft)
06.07.2023 17:05 23,2 °C 23,6 °C 53 % 41 % 1017,9 hPa 0,0 l/m² 3,8 km/h (1 Bft) N-NW 344 ° 1 min 216 W/m² 9,6 °C 23,6 °C 8,0 km/h (2 Bft)
06.07.2023 17:07 23,2 °C 23,8 °C 53 % 40 % 1017,9 hPa 0,0 l/m² 9,3 km/h (2 Bft) N 355 ° 2 min 158 W/m² 9,4 °C 23,0 °C 14,5 km/h (3 Bft)
06.07.2023 17:09 23,2 °C 23,9 °C 53 % 40 % 1017,9 hPa 0,0 l/m² 8,4 km/h (2 Bft) N-NW 341 ° 2 min 158 W/m² 9,5 °C 23,3 °C 16,1 km/h (3 Bft)
06.07.2023 17:12 23,2 °C 23,9 °C 53 % 39 % 1017,9 hPa 0,0 l/m² 4,4 km/h (1 Bft) N-NO 25 ° 3 min 158 W/m² 9,1 °C 23,9 °C 8,0 km/h (2 Bft)
06.07.2023 17:13 23,2 °C 23,9 °C 53 % 39 % 1017,9 hPa 0,0 l/m² 5,8 km/h (2 Bft) N 5 ° 1 min 199 W/m² 9,1 °C 23,9 °C 8,0 km/h (2 Bft)
06.07.2023 17:14 23,2 °C 23,8 °C 53 % 39 % 1017,9 hPa 0,0 l/m² 8,0 km/h (2 Bft) N-NW 330 ° 1 min 199 W/m² 9,0 °C 23,3 °C 17,7 km/h (3 Bft)
06.07.2023 17:15 23,2 °C 23,9 °C 53 % 40 % 1017,9 hPa 0,0 l/m² 12,6 km/h (3 Bft) NW 325 ° 1 min 694 W/m² 9,5 °C 22,4 °C 16,1 km/h (3 Bft)
06.07.2023 17:17 23,2 °C 24,1 °C 53 % 41 % 1017,8 hPa 0,0 l/m² 8,5 km/h (2 Bft) N 5 ° 2 min 601 W/m² 10,0 °C 23,5 °C 12,9 km/h (3 Bft)
06.07.2023 17:19 23,2 °C 24,2 °C 53 % 40 % 1017,8 hPa 0,0 l/m² 6,4 km/h (2 Bft) N 355 ° 2 min 621 W/m² 9,7 °C 24,2 °C 12,9 km/h (3 Bft)
06.07.2023 17:22 23,2 °C 24,3 °C 53 % 41 % 1017,8 hPa 0,0 l/m² 3,0 km/h (1 Bft) N 5 ° 3 min 608 W/m² 10,2 °C 24,3 °C 6,4 km/h (2 Bft)
06.07.2023 17:23 23,2 °C 24,6 °C 53 % 40 % 1017,9 hPa 0,0 l/m² 9,5 km/h (2 Bft) N-NW 330 ° 1 min 605 W/m² 10,1 °C 23,8 °C 19,3 km/h (3 Bft)
06.07.2023 17:24 23,2 °C 24,6 °C 53 % 39 % 1017,9 hPa 0,0 l/m² 5,9 km/h (2 Bft) N 355 ° 1 min 592 W/m² 9,7 °C 24,6 °C 14,5 km/h (3 Bft)
06.07.2023 17:25 23,2 °C 24,6 °C 53 % 40 % 1017,8 hPa 0,0 l/m² 5,4 km/h (2 Bft) NO 40 ° 1 min 591 W/m² 10,1 °C 24,6 °C 6,4 km/h (2 Bft)
06.07.2023 17:27 23,2 °C 24,7 °C 53 % 41 % 1017,8 hPa 0,0 l/m² 8,9 km/h (2 Bft) NW 322 ° 2 min 584 W/m² 10,6 °C 24,1 °C 16,1 km/h (3 Bft)
06.07.2023 17:29 23,2 °C 24,7 °C 53 % 40 % 1017,8 hPa 0,0 l/m² 12,3 km/h (2 Bft) N 360 ° 2 min 582 W/m² 10,2 °C 23,4 °C 19,3 km/h (3 Bft)
06.07.2023 17:32 23,2 °C 24,6 °C 53 % 41 % 1017,8 hPa 0,0 l/m² 8,4 km/h (2 Bft) N-NW 336 ° 3 min 573 W/m² 10,5 °C 24,1 °C 16,1 km/h (3 Bft)
06.07.2023 17:33 23,2 °C 24,6 °C 53 % 40 % 1017,8 hPa 0,0 l/m² 12,2 km/h (2 Bft) N-NW 333 ° 1 min 570 W/m² 10,1 °C 23,3 °C 19,3 km/h (3 Bft)
06.07.2023 17:34 23,2 °C 24,6 °C 53 % 40 % 1017,8 hPa 0,0 l/m² 7,7 km/h (2 Bft) W-SW 250 ° 1 min 566 W/m² 10,1 °C 24,3 °C 14,5 km/h (3 Bft)
06.07.2023 17:35 23,2 °C 24,6 °C 53 % 41 % 1017,9 hPa 0,0 l/m² 2,3 km/h (1 Bft) W-NW 289 ° 1 min 559 W/m² 10,5 °C 24,6 °C 4,8 km/h (1 Bft)
06.07.2023 17:37 23,2 °C 24,8 °C 53 % 39 % 1017,8 hPa 0,0 l/m² 4,6 km/h (1 Bft) N 355 ° 2 min 543 W/m² 9,9 °C 24,8 °C 8,0 km/h (2 Bft)
06.07.2023 17:39 23,2 °C 24,7 °C 53 % 39 % 1017,8 hPa 0,0 l/m² 9,5 km/h (2 Bft) N-NW 338 ° 2 min 536 W/m² 9,8 °C 23,9 °C 14,5 km/h (3 Bft)
06.07.2023 17:42 23,2 °C 24,6 °C 53 % 41 % 1017,8 hPa 0,0 l/m² 8,4 km/h (2 Bft) N-NW 338 ° 3 min 529 W/m² 10,5 °C 24,1 °C 16,1 km/h (3 Bft)
06.07.2023 17:43 23,2 °C 24,6 °C 53 % 39 % 1017,8 hPa 0,0 l/m² 13,1 km/h (3 Bft) N-NW 334 ° 1 min 529 W/m² 9,7 °C 23,1 °C 17,7 km/h (3 Bft)
06.07.2023 17:44 23,2 °C 24,6 °C 53 % 39 % 1017,8 hPa 0,0 l/m² 13,2 km/h (3 Bft) N-NW 329 ° 1 min 527 W/m² 9,7 °C 23,1 °C 17,7 km/h (3 Bft)
06.07.2023 17:45 23,2 °C 24,4 °C 53 % 39 % 1017,9 hPa 0,0 l/m² 7,4 km/h (2 Bft) NW 321 ° 1 min 527 W/m² 9,5 °C 24,1 °C 12,9 km/h (3 Bft)
06.07.2023 17:47 23,2 °C 24,3 °C 53 % 39 % 1017,8 hPa 0,0 l/m² 8,7 km/h (2 Bft) N 355 ° 2 min 520 W/m² 9,4 °C 23,7 °C 16,1 km/h (3 Bft)
06.07.2023 17:49 23,2 °C 24,1 °C 53 % 38 % 1017,9 hPa 0,0 l/m² 5,2 km/h (1 Bft) N 360 ° 2 min 526 W/m² 8,9 °C 24,1 °C 9,7 km/h (2 Bft)
06.07.2023 17:52 23,2 °C 24,1 °C 53 % 40 % 1017,8 hPa 0,0 l/m² 4,6 km/h (1 Bft) N-NO 24 ° 3 min 515 W/m² 9,6 °C 24,1 °C 8,0 km/h (2 Bft)
06.07.2023 17:53 23,2 °C 24,1 °C 53 % 39 % 1017,8 hPa 0,0 l/m² 1,1 km/h (1 Bft) W 267 ° 1 min 513 W/m² 9,3 °C 24,1 °C 3,2 km/h (1 Bft)
06.07.2023 17:54 23,2 °C 24,2 °C 53 % 40 % 1017,8 hPa 0,0 l/m² 0,4 km/h (0 Bft) W 262 ° 1 min 512 W/m² 9,7 °C 24,2 °C 3,2 km/h (1 Bft)
06.07.2023 17:55 23,2 °C 24,3 °C 53 % 39 % 1017,7 hPa 0,0 l/m² 0,0 km/h (0 Bft) W 262 ° 1 min 506 W/m² 9,4 °C 24,3 °C 0,0 km/h (0 Bft)
06.07.2023 17:57 23,2 °C 24,4 °C 53 % 39 % 1017,7 hPa 0,0 l/m² 0,1 km/h (0 Bft) N-NW 348 ° 2 min 487 W/m² 9,5 °C 24,4 °C 3,2 km/h (1 Bft)
06.07.2023 17:59 23,2 °C 24,3 °C 53 % 40 % 1017,8 hPa 0,0 l/m² 8,6 km/h (2 Bft) N-NW 348 ° 2 min 480 W/m² 9,8 °C 23,7 °C 16,1 km/h (3 Bft)
06.07.2023 18:02 23,2 °C 24,2 °C 53 % 42 % 1017,8 hPa 0,0 l/m² 11,7 km/h (2 Bft) N 355 ° 3 min 480 W/m² 10,5 °C 22,9 °C 19,3 km/h (3 Bft)
06.07.2023 18:03 23,2 °C 24,1 °C 53 % 42 % 1017,8 hPa 0,0 l/m² 11,1 km/h (2 Bft) NW 306 ° 1 min 480 W/m² 10,4 °C 22,9 °C 16,1 km/h (3 Bft)
06.07.2023 18:04 23,2 °C 24,0 °C 53 % 42 % 1017,8 hPa 0,0 l/m² 5,9 km/h (2 Bft) N 355 ° 1 min 302 W/m² 10,3 °C 24,0 °C 9,7 km/h (2 Bft)
06.07.2023 18:05 23,2 °C 23,9 °C 53 % 41 % 1017,8 hPa 0,0 l/m² 4,4 km/h (1 Bft) N 9 ° 1 min 387 W/m² 9,8 °C 23,9 °C 11,3 km/h (2 Bft)
06.07.2023 18:07 23,2 °C 23,9 °C 53 % 42 % 1017,7 hPa 0,0 l/m² 6,1 km/h (2 Bft) N-NO 32 ° 2 min 387 W/m² 10,2 °C 23,9 °C 11,3 km/h (2 Bft)
06.07.2023 18:09 23,2 °C 23,9 °C 53 % 41 % 1017,8 hPa 0,0 l/m² 5,0 km/h (1 Bft) N-NW 332 ° 2 min 387 W/m² 9,8 °C 23,9 °C 12,9 km/h (3 Bft)
06.07.2023 18:11 23,2 °C 23,7 °C 53 % 41 % 1017,7 hPa 0,0 l/m² 10,5 km/h (2 Bft) N-NW 331 ° 2 min 111 W/m² 9,7 °C 22,6 °C 17,7 km/h (3 Bft)
06.07.2023 18:13 23,2 °C 23,6 °C 53 % 43 % 1017,7 hPa 0,0 l/m² 5,7 km/h (2 Bft) N-NW 329 ° 2 min 102 W/m² 10,3 °C 23,6 °C 9,7 km/h (2 Bft)
06.07.2023 18:15 23,2 °C 23,4 °C 53 % 43 % 1017,8 hPa 0,0 l/m² 4,8 km/h (1 Bft) N-NW 331 ° 2 min 113 W/m² 10,1 °C 23,4 °C 8,0 km/h (2 Bft)
06.07.2023 18:17 23,2 °C 23,3 °C 54 % 44 % 1017,8 hPa 0,0 l/m² 7,9 km/h (2 Bft) NW 322 ° 2 min 102 W/m² 10,4 °C 22,8 °C 12,9 km/h (3 Bft)
06.07.2023 18:19 23,2 °C 23,2 °C 54 % 43 % 1017,9 hPa 0,0 l/m² 10,2 km/h (2 Bft) N 351 ° 2 min 97 W/m² 9,9 °C 22,1 °C 14,5 km/h (3 Bft)
06.07.2023 18:21 23,2 °C 23,1 °C 54 % 43 % 1017,8 hPa 0,0 l/m² 6,6 km/h (2 Bft) N-NW 341 ° 2 min 418 W/m² 9,8 °C 23,0 °C 9,7 km/h (2 Bft)
06.07.2023 18:22 23,2 °C 23,1 °C 54 % 44 % 1017,8 hPa 0,0 l/m² 7,9 km/h (2 Bft) N-NO 26 ° 1 min 418 W/m² 10,2 °C 22,6 °C 14,5 km/h (3 Bft)
06.07.2023 18:23 23,2 °C 23,2 °C 54 % 44 % 1017,8 hPa 0,0 l/m² 4,9 km/h (1 Bft) N 11 ° 1 min 401 W/m² 10,3 °C 23,2 °C 8,0 km/h (2 Bft)
06.07.2023 18:24 23,2 °C 23,3 °C 54 % 44 % 1017,8 hPa 0,0 l/m² 4,8 km/h (1 Bft) N 355 ° 1 min 397 W/m² 10,4 °C 23,3 °C 8,0 km/h (2 Bft)
06.07.2023 18:25 23,2 °C 23,4 °C 54 % 45 % 1017,8 hPa 0,0 l/m² 15,1 km/h (3 Bft) N-NW 338 ° 1 min 392 W/m² 10,8 °C 21,4 °C 19,3 km/h (3 Bft)
06.07.2023 18:27 23,2 °C 23,4 °C 54 % 44 % 1017,8 hPa 0,0 l/m² 14,3 km/h (3 Bft) N-NW 345 ° 2 min 318 W/m² 10,4 °C 21,5 °C 20,9 km/h (4 Bft)
06.07.2023 18:28 23,2 °C 23,5 °C 54 % 45 % 1017,8 hPa 0,0 l/m² 8,3 km/h (2 Bft) N 5 ° 1 min 378 W/m² 10,9 °C 22,9 °C 12,9 km/h (3 Bft)
06.07.2023 18:29 23,2 °C 23,6 °C 54 % 44 % 1017,8 hPa 0,0 l/m² 13,8 km/h (3 Bft) N-NO 14 ° 1 min 371 W/m² 10,6 °C 21,8 °C 17,7 km/h (3 Bft)
06.07.2023 18:31 23,2 °C 23,4 °C 54 % 43 % 1017,8 hPa 0,0 l/m² 12,1 km/h (2 Bft) N-NW 342 ° 2 min 288 W/m² 10,1 °C 21,9 °C 19,3 km/h (3 Bft)
06.07.2023 18:33 23,2 °C 23,4 °C 54 % 44 % 1017,8 hPa 0,0 l/m² 7,0 km/h (2 Bft) N 5 ° 2 min 357 W/m² 10,4 °C 23,2 °C 12,9 km/h (3 Bft)
06.07.2023 18:34 23,2 °C 23,5 °C 54 % 44 % 1017,8 hPa 0,0 l/m² 6,5 km/h (2 Bft) N 355 ° 1 min 355 W/m² 10,5 °C 23,5 °C 11,3 km/h (2 Bft)
06.07.2023 18:35 23,2 °C 23,6 °C 54 % 45 % 1017,8 hPa 0,0 l/m² 10,9 km/h (2 Bft) N 5 ° 1 min 348 W/m² 11,0 °C 22,4 °C 14,5 km/h (3 Bft)
06.07.2023 18:36 23,2 °C 23,6 °C 54 % 43 % 1017,8 hPa 0,0 l/m² 14,3 km/h (3 Bft) N 350 ° 1 min 348 W/m² 10,3 °C 21,7 °C 17,7 km/h (3 Bft)
06.07.2023 18:37 23,2 °C 23,5 °C 54 % 43 % 1017,9 hPa 0,0 l/m² 12,8 km/h (3 Bft) NW 316 ° 1 min 339 W/m² 10,2 °C 21,9 °C 16,1 km/h (3 Bft)
06.07.2023 18:38 23,2 °C 23,4 °C 54 % 44 % 1017,9 hPa 0,0 l/m² 11,4 km/h (2 Bft) N-NO 16 ° 1 min 332 W/m² 10,4 °C 22,1 °C 14,5 km/h (3 Bft)
06.07.2023 18:39 23,2 °C 23,4 °C 54 % 45 % 1017,8 hPa 0,0 l/m² 9,4 km/h (2 Bft) N-NW 341 ° 1 min 332 W/m² 10,8 °C 22,5 °C 14,5 km/h (3 Bft)
06.07.2023 18:40 23,2 °C 23,4 °C 54 % 44 % 1017,9 hPa 0,0 l/m² 9,6 km/h (2 Bft) NW 312 ° 1 min 294 W/m² 10,4 °C 22,5 °C 14,5 km/h (3 Bft)
06.07.2023 18:42 23,2 °C 23,4 °C 54 % 44 % 1017,8 hPa 0,0 l/m² 10,0 km/h (2 Bft) N-NW 348 ° 2 min 320 W/m² 10,4 °C 22,4 °C 17,7 km/h (3 Bft)
06.07.2023 18:43 23,2 °C 23,4 °C 54 % 44 % 1017,8 hPa 0,0 l/m² 10,4 km/h (2 Bft) N 5 ° 1 min 327 W/m² 10,4 °C 22,3 °C 16,1 km/h (3 Bft)
06.07.2023 18:44 23,2 °C 23,4 °C 54 % 44 % 1018,0 hPa 0,0 l/m² 11,7 km/h (2 Bft) N 360 ° 1 min 320 W/m² 10,4 °C 22,0 °C 17,7 km/h (3 Bft)
06.07.2023 18:46 23,2 °C 23,3 °C 54 % 44 % 1017,8 hPa 0,0 l/m² 10,9 km/h (2 Bft) N-NW 346 ° 2 min 91 W/m² 10,4 °C 22,1 °C 20,9 km/h (4 Bft)
06.07.2023 18:47 23,3 °C 23,3 °C 54 % 44 % 1017,9 hPa 0,0 l/m² 11,0 km/h (2 Bft) N-NW 338 ° 1 min 62 W/m² 10,4 °C 22,0 °C 14,5 km/h (3 Bft)
06.07.2023 18:48 23,2 °C 23,3 °C 54 % 44 % 1017,8 hPa 0,0 l/m² 10,1 km/h (2 Bft) N 355 ° 1 min 58 W/m² 10,4 °C 22,3 °C 14,5 km/h (3 Bft)
06.07.2023 18:49 23,2 °C 23,2 °C 54 % 44 % 1017,8 hPa 0,0 l/m² 12,9 km/h (3 Bft) NW 321 ° 1 min 58 W/m² 10,3 °C 21,5 °C 17,7 km/h (3 Bft)
06.07.2023 18:51 23,2 °C 23,1 °C 54 % 44 % 1017,9 hPa 0,0 l/m² 12,7 km/h (3 Bft) N-NW 327 ° 2 min 56 W/m² 10,2 °C 21,5 °C 19,3 km/h (3 Bft)
06.07.2023 18:53 23,2 °C 23,1 °C 54 % 44 % 1017,9 hPa 0,0 l/m² 11,1 km/h (2 Bft) N-NW 344 ° 2 min 56 W/m² 10,2 °C 21,8 °C 16,1 km/h (3 Bft)
06.07.2023 18:54 23,2 °C 23,1 °C 54 % 44 % 1017,9 hPa 0,0 l/m² 10,8 km/h (2 Bft) N 5 ° 1 min 56 W/m² 10,2 °C 21,9 °C 16,1 km/h (3 Bft)
06.07.2023 18:55 23,2 °C 23,1 °C 54 % 45 % 1017,9 hPa 0,0 l/m² 14,1 km/h (3 Bft) NW 323 ° 1 min 54 W/m² 10,5 °C 21,2 °C 17,7 km/h (3 Bft)
06.07.2023 18:56 23,2 °C 23,1 °C 54 % 44 % 1017,9 hPa 0,0 l/m² 13,4 km/h (3 Bft) N-NO 15 ° 1 min 54 W/m² 10,2 °C 21,3 °C 17,7 km/h (3 Bft)
06.07.2023 18:57 23,2 °C 23,0 °C 54 % 44 % 1018,0 hPa 0,0 l/m² 7,2 km/h (2 Bft) N 355 ° 1 min 54 W/m² 10,1 °C 22,7 °C 16,1 km/h (3 Bft)
06.07.2023 18:58 23,2 °C 22,9 °C 54 % 44 % 1018,0 hPa 0,0 l/m² 9,2 km/h (2 Bft) N-NW 338 ° 1 min 65 W/m² 10,0 °C 22,1 °C 14,5 km/h (3 Bft)
06.07.2023 18:59 23,2 °C 22,9 °C 54 % 45 % 1018,0 hPa 0,0 l/m² 7,6 km/h (2 Bft) N 355 ° 1 min 77 W/m² 10,3 °C 22,5 °C 12,9 km/h (3 Bft)
06.07.2023 19:00 23,2 °C 23,0 °C 54 % 45 % 1017,9 hPa 0,0 l/m² 7,4 km/h (2 Bft) N 355 ° 1 min 62 W/m² 10,4 °C 22,7 °C 9,7 km/h (2 Bft)
06.07.2023 19:02 23,2 °C 23,1 °C 54 % 44 % 1018,0 hPa 0,0 l/m² 10,2 km/h (2 Bft) N-NW 336 ° 2 min 54 W/m² 10,2 °C 22,0 °C 16,1 km/h (3 Bft)
06.07.2023 19:03 23,2 °C 23,1 °C 54 % 44 % 1018,0 hPa 0,0 l/m² 5,9 km/h (2 Bft) N 350 ° 1 min 53 W/m² 10,2 °C 23,1 °C 12,9 km/h (3 Bft)
06.07.2023 19:04 23,2 °C 23,1 °C 54 % 44 % 1018,0 hPa 0,0 l/m² 9,5 km/h (2 Bft) N-NW 348 ° 0 min 51 W/m² 10,2 °C 22,2 °C 17,7 km/h (3 Bft)
06.07.2023 19:05 23,2 °C 23,1 °C 54 % 45 % 1018,0 hPa 0,0 l/m² 10,9 km/h (2 Bft) N-NW 346 ° 0 min 51 W/m² 10,5 °C 21,8 °C 14,5 km/h (3 Bft)
06.07.2023 19:06 23,2 °C 23,1 °C 54 % 44 % 1018,0 hPa 0,0 l/m² 8,0 km/h (2 Bft) N 5 ° 0 min 51 W/m² 10,2 °C 22,6 °C 12,9 km/h (3 Bft)
06.07.2023 19:07 23,2 °C 23,0 °C 54 % 44 % 1018,0 hPa 0,0 l/m² 6,8 km/h (2 Bft) N 355 ° 0 min 51 W/m² 10,1 °C 22,9 °C 9,7 km/h (2 Bft)
06.07.2023 19:08 23,2 °C 22,9 °C 54 % 45 % 1018,1 hPa 0,0 l/m² 6,8 km/h (2 Bft) N-NW 344 ° 0 min 51 W/m² 10,3 °C 22,8 °C 8,0 km/h (2 Bft)
06.07.2023 19:09 23,2 °C 22,9 °C 54 % 45 % 1018,0 hPa 0,0 l/m² 4,9 km/h (1 Bft) N-NO 17 ° 0 min 51 W/m² 10,3 °C 22,9 °C 6,4 km/h (2 Bft)
06.07.2023 19:11 23,2 °C 23,1 °C 55 % 45 % 1018,0 hPa 0,0 l/m² 5,0 km/h (1 Bft) N 360 ° 0 min 51 W/m² 10,5 °C 23,1 °C 9,7 km/h (2 Bft)
06.07.2023 19:13 23,2 °C 23,1 °C 55 % 44 % 1018,1 hPa 0,0 l/m² 5,4 km/h (2 Bft) N-NO 18 ° 0 min 51 W/m² 10,2 °C 23,1 °C 8,0 km/h (2 Bft)
06.07.2023 19:14 23,2 °C 23,1 °C 55 % 44 % 1018,0 hPa 0,0 l/m² 3,2 km/h (1 Bft) NO 42 ° 0 min 49 W/m² 10,2 °C 23,1 °C 6,4 km/h (2 Bft)
06.07.2023 19:15 23,2 °C 23,1 °C 55 % 44 % 1018,2 hPa 0,0 l/m² 3,3 km/h (1 Bft) N-NW 329 ° 0 min 49 W/m² 10,2 °C 23,1 °C 6,4 km/h (2 Bft)
06.07.2023 19:16 23,2 °C 23,1 °C 55 % 44 % 1018,1 hPa 0,0 l/m² 9,1 km/h (2 Bft) N 360 ° 0 min 49 W/m² 10,2 °C 22,3 °C 16,1 km/h (3 Bft)
06.07.2023 19:17 23,3 °C 23,1 °C 55 % 44 % 1018,2 hPa 0,0 l/m² 8,9 km/h (2 Bft) N-NW 346 ° 0 min 49 W/m² 10,2 °C 22,4 °C 14,5 km/h (3 Bft)
06.07.2023 19:18 23,3 °C 23,1 °C 55 % 44 % 1018,1 hPa 0,0 l/m² 11,7 km/h (2 Bft) N-NW 343 ° 0 min 47 W/m² 10,2 °C 21,7 °C 17,7 km/h (3 Bft)
06.07.2023 19:19 23,3 °C 23,1 °C 55 % 44 % 1018,2 hPa 0,0 l/m² 8,5 km/h (2 Bft) N 355 ° 0 min 47 W/m² 10,2 °C 22,5 °C 12,9 km/h (3 Bft)
06.07.2023 19:21 23,3 °C 23,1 °C 56 % 44 % 1018,1 hPa 0,0 l/m² 6,0 km/h (2 Bft) N-NW 346 ° 0 min 47 W/m² 10,2 °C 23,1 °C 14,5 km/h (3 Bft)
06.07.2023 19:23 23,3 °C 23,0 °C 56 % 44 % 1018,2 hPa 0,0 l/m² 7,4 km/h (2 Bft) N 9 ° 0 min 47 W/m² 10,1 °C 22,7 °C 12,9 km/h (3 Bft)
06.07.2023 19:24 23,3 °C 22,9 °C 56 % 44 % 1018,1 hPa 0,0 l/m² 10,5 km/h (2 Bft) N-NW 347 ° 0 min 46 W/m² 10,0 °C 21,7 °C 14,5 km/h (3 Bft)
06.07.2023 19:25 23,3 °C 22,9 °C 56 % 44 % 1018,1 hPa 0,0 l/m² 11,2 km/h (2 Bft) N-NW 338 ° 0 min 46 W/m² 10,0 °C 21,6 °C 14,5 km/h (3 Bft)
06.07.2023 19:26 23,3 °C 22,9 °C 56 % 44 % 1018,3 hPa 0,0 l/m² 11,3 km/h (2 Bft) NW 322 ° 0 min 46 W/m² 10,0 °C 21,5 °C 14,5 km/h (3 Bft)
06.07.2023 19:27 23,3 °C 22,9 °C 56 % 44 % 1018,3 hPa 0,0 l/m² 7,6 km/h (2 Bft) NO 45 ° 0 min 46 W/m² 10,0 °C 22,5 °C 12,9 km/h (3 Bft)
06.07.2023 19:28 23,3 °C 22,9 °C 56 % 45 % 1018,2 hPa 0,0 l/m² 7,6 km/h (2 Bft) N 355 ° 0 min 46 W/m² 10,3 °C 22,5 °C 14,5 km/h (3 Bft)
06.07.2023 19:29 23,3 °C 22,9 °C 56 % 45 % 1018,2 hPa 0,0 l/m² 6,0 km/h (2 Bft) N-NW 346 ° 0 min 46 W/m² 10,3 °C 22,9 °C 9,7 km/h (2 Bft)
06.07.2023 19:31 23,3 °C 22,9 °C 56 % 45 % 1018,2 hPa 0,0 l/m² 6,4 km/h (2 Bft) N 360 ° 0 min 44 W/m² 10,3 °C 22,9 °C 11,3 km/h (2 Bft)
06.07.2023 19:33 23,3 °C 22,9 °C 56 % 44 % 1018,3 hPa 0,0 l/m² 8,2 km/h (2 Bft) N 355 ° 0 min 44 W/m² 10,0 °C 22,3 °C 12,9 km/h (3 Bft)
06.07.2023 19:34 23,3 °C 22,8 °C 56 % 45 % 1018,2 hPa 0,0 l/m² 6,9 km/h (2 Bft) N-NO 17 ° 0 min 44 W/m² 10,2 °C 22,6 °C 9,7 km/h (2 Bft)
06.07.2023 19:35 23,3 °C 22,8 °C 56 % 45 % 1018,3 hPa 0,0 l/m² 8,4 km/h (2 Bft) N 5 ° 0 min 44 W/m² 10,2 °C 22,2 °C 14,5 km/h (3 Bft)
06.07.2023 19:36 23,3 °C 22,8 °C 56 % 45 % 1018,2 hPa 0,0 l/m² 10,2 km/h (2 Bft) N-NW 336 ° 0 min 42 W/m² 10,2 °C 21,7 °C 14,5 km/h (3 Bft)
06.07.2023 19:37 23,3 °C 22,8 °C 56 % 44 % 1018,3 hPa 0,0 l/m² 11,3 km/h (2 Bft) N 355 ° 0 min 42 W/m² 9,9 °C 21,4 °C 16,1 km/h (3 Bft)
06.07.2023 19:38 23,3 °C 22,8 °C 56 % 45 % 1018,2 hPa 0,0 l/m² 8,1 km/h (2 Bft) N-NW 344 ° 0 min 42 W/m² 10,2 °C 22,3 °C 12,9 km/h (3 Bft)
06.07.2023 19:39 23,3 °C 22,8 °C 56 % 45 % 1018,3 hPa 0,0 l/m² 9,2 km/h (2 Bft) N 350 ° 0 min 42 W/m² 10,2 °C 21,9 °C 12,9 km/h (3 Bft)
06.07.2023 19:41 23,3 °C 22,7 °C 56 % 44 % 1018,3 hPa 0,0 l/m² 8,4 km/h (2 Bft) N-NW 346 ° 0 min 40 W/m² 9,8 °C 22,1 °C 14,5 km/h (3 Bft)
06.07.2023 19:43 23,3 °C 22,7 °C 56 % 45 % 1018,2 hPa 0,0 l/m² 8,2 km/h (2 Bft) N 350 ° 0 min 40 W/m² 10,1 °C 22,1 °C 12,9 km/h (3 Bft)
06.07.2023 19:44 23,4 °C 22,7 °C 56 % 44 % 1018,3 hPa 0,0 l/m² 6,1 km/h (2 Bft) N-NW 335 ° 0 min 40 W/m² 9,8 °C 22,7 °C 9,7 km/h (2 Bft)
06.07.2023 19:45 23,3 °C 22,7 °C 56 % 45 % 1018,3 hPa 0,0 l/m² 8,3 km/h (2 Bft) N 5 ° 0 min 40 W/m² 10,1 °C 22,1 °C 12,9 km/h (3 Bft)
06.07.2023 19:46 23,3 °C 22,7 °C 56 % 44 % 1018,3 hPa 0,0 l/m² 7,8 km/h (2 Bft) N-NW 339 ° 0 min 40 W/m² 9,8 °C 22,2 °C 12,9 km/h (3 Bft)
06.07.2023 19:47 23,3 °C 22,7 °C 56 % 44 % 1018,3 hPa 0,0 l/m² 6,2 km/h (2 Bft) N-NW 346 ° 0 min 39 W/m² 9,8 °C 22,7 °C 9,7 km/h (2 Bft)
06.07.2023 19:48 23,3 °C 22,6 °C 56 % 44 % 1018,3 hPa 0,0 l/m² 7,9 km/h (2 Bft) N 360 ° 0 min 39 W/m² 9,7 °C 22,1 °C 9,7 km/h (2 Bft)
06.07.2023 19:49 23,3 °C 22,6 °C 56 % 44 % 1018,2 hPa 0,0 l/m² 8,4 km/h (2 Bft) N-NW 345 ° 0 min 39 W/m² 9,7 °C 22,0 °C 9,7 km/h (2 Bft)
06.07.2023 19:51 23,3 °C 22,6 °C 56 % 45 % 1018,3 hPa 0,0 l/m² 7,9 km/h (2 Bft) N-NW 348 ° 0 min 39 W/m² 10,1 °C 22,1 °C 12,9 km/h (3 Bft)
06.07.2023 19:53 23,3 °C 22,6 °C 56 % 45 % 1018,4 hPa 0,0 l/m² 9,3 km/h (2 Bft) N-NW 338 ° 0 min 37 W/m² 10,1 °C 21,7 °C 14,5 km/h (3 Bft)
06.07.2023 19:54 23,3 °C 22,5 °C 56 % 45 % 1018,4 hPa 0,0 l/m² 10,3 km/h (2 Bft) N 350 ° 0 min 37 W/m² 10,0 °C 21,3 °C 14,5 km/h (3 Bft)
06.07.2023 19:55 23,3 °C 22,5 °C 56 % 45 % 1018,4 hPa 0,0 l/m² 10,5 km/h (2 Bft) N-NW 344 ° 0 min 37 W/m² 10,0 °C 21,3 °C 12,9 km/h (3 Bft)
06.07.2023 19:56 23,3 °C 22,4 °C 56 % 45 % 1018,5 hPa 0,0 l/m² 7,3 km/h (2 Bft) N 355 ° 0 min 37 W/m² 9,9 °C 22,1 °C 9,7 km/h (2 Bft)
06.07.2023 19:57 23,3 °C 22,5 °C 56 % 45 % 1018,5 hPa 0,0 l/m² 7,3 km/h (2 Bft) N-NW 345 ° 0 min 35 W/m² 10,0 °C 22,2 °C 9,7 km/h (2 Bft)
06.07.2023 19:58 23,3 °C 22,4 °C 56 % 45 % 1018,5 hPa 0,0 l/m² 7,4 km/h (2 Bft) NW 323 ° 0 min 35 W/m² 9,9 °C 22,1 °C 9,7 km/h (2 Bft)
06.07.2023 19:59 23,3 °C 22,4 °C 56 % 45 % 1018,4 hPa 0,0 l/m² 7,9 km/h (2 Bft) N 5 ° 0 min 35 W/m² 9,9 °C 21,9 °C 12,9 km/h (3 Bft)
06.07.2023 20:01 23,3 °C 22,4 °C 56 % 45 % 1018,4 hPa 0,0 l/m² 5,8 km/h (2 Bft) N-NW 348 ° 0 min 35 W/m² 9,9 °C 22,4 °C 12,9 km/h (3 Bft)
06.07.2023 20:02 23,3 °C 22,4 °C 56 % 45 % 1018,4 hPa 0,0 l/m² 4,6 km/h (1 Bft) N-NO 21 ° 0 min 35 W/m² 9,9 °C 22,4 °C 8,0 km/h (2 Bft)
06.07.2023 20:03 23,3 °C 22,4 °C 56 % 45 % 1018,4 hPa 0,0 l/m² 5,6 km/h (2 Bft) N 350 ° 0 min 33 W/m² 9,9 °C 22,4 °C 8,0 km/h (2 Bft)
06.07.2023 20:04 23,3 °C 22,4 °C 56 % 45 % 1018,4 hPa 0,0 l/m² 7,5 km/h (2 Bft) N 5 ° 0 min 33 W/m² 9,9 °C 22,0 °C 12,9 km/h (3 Bft)
06.07.2023 20:05 23,3 °C 22,4 °C 56 % 45 % 1018,4 hPa 0,0 l/m² 5,8 km/h (2 Bft) N 5 ° 0 min 33 W/m² 9,9 °C 22,4 °C 9,7 km/h (2 Bft)
06.07.2023 20:06 23,3 °C 22,3 °C 56 % 45 % 1018,4 hPa 0,0 l/m² 4,6 km/h (1 Bft) N 349 ° 0 min 33 W/m² 9,8 °C 22,3 °C 6,4 km/h (2 Bft)
06.07.2023 20:07 23,3 °C 22,3 °C 56 % 45 % 1018,4 hPa 0,0 l/m² 3,6 km/h (1 Bft) N-NO 19 ° 0 min 33 W/m² 9,8 °C 22,3 °C 6,4 km/h (2 Bft)
06.07.2023 20:08 23,3 °C 22,3 °C 56 % 46 % 1018,4 hPa 0,0 l/m² 2,9 km/h (1 Bft) N 5 ° 0 min 32 W/m² 10,1 °C 22,3 °C 4,8 km/h (1 Bft)
06.07.2023 20:09 23,3 °C 22,3 °C 56 % 46 % 1018,4 hPa 0,0 l/m² 2,3 km/h (1 Bft) N-NW 346 ° 0 min 32 W/m² 10,1 °C 22,3 °C 4,8 km/h (1 Bft)
06.07.2023 20:11 23,3 °C 22,3 °C 56 % 46 % 1018,4 hPa 0,0 l/m² 2,7 km/h (1 Bft) N-NW 347 ° 0 min 32 W/m² 10,1 °C 22,3 °C 6,4 km/h (2 Bft)
06.07.2023 20:13 23,3 °C 22,2 °C 56 % 46 % 1018,4 hPa 0,0 l/m² 4,4 km/h (1 Bft) N 355 ° 0 min 32 W/m² 10,0 °C 22,2 °C 8,0 km/h (2 Bft)
06.07.2023 20:14 23,3 °C 22,2 °C 56 % 45 % 1018,5 hPa 0,0 l/m² 4,9 km/h (1 Bft) N-NO 26 ° 0 min 30 W/m² 9,7 °C 22,2 °C 8,0 km/h (2 Bft)
06.07.2023 20:15 23,3 °C 22,2 °C 56 % 46 % 1018,4 hPa 0,0 l/m² 3,6 km/h (1 Bft) N-NO 29 ° 0 min 30 W/m² 10,0 °C 22,2 °C 4,8 km/h (1 Bft)
06.07.2023 20:16 23,3 °C 22,2 °C 56 % 46 % 1018,4 hPa 0,0 l/m² 3,4 km/h (1 Bft) N-NW 348 ° 0 min 30 W/m² 10,0 °C 22,2 °C 4,8 km/h (1 Bft)
06.07.2023 20:17 23,3 °C 22,1 °C 56 % 46 % 1018,5 hPa 0,0 l/m² 5,7 km/h (2 Bft) N-NO 22 ° 0 min 30 W/m² 9,9 °C 22,1 °C 8,0 km/h (2 Bft)
06.07.2023 20:18 23,3 °C 22,1 °C 56 % 46 % 1018,5 hPa 0,0 l/m² 5,5 km/h (2 Bft) N-NO 29 ° 0 min 30 W/m² 9,9 °C 22,1 °C 8,0 km/h (2 Bft)
06.07.2023 20:19 23,3 °C 22,1 °C 56 % 46 % 1018,5 hPa 0,0 l/m² 3,5 km/h (1 Bft) N 355 ° 0 min 30 W/m² 9,9 °C 22,1 °C 6,4 km/h (2 Bft)
06.07.2023 20:20 23,3 °C 22,0 °C 56 % 46 % 1018,5 hPa 0,0 l/m² 4,1 km/h (1 Bft) N-NW 348 ° 0 min 28 W/m² 9,8 °C 22,0 °C 4,8 km/h (1 Bft)
06.07.2023 20:22 23,3 °C 22,0 °C 56 % 46 % 1018,5 hPa 0,0 l/m² 4,2 km/h (1 Bft) N-NO 19 ° 0 min 28 W/m² 9,8 °C 22,0 °C 8,0 km/h (2 Bft)
06.07.2023 20:23 23,3 °C 21,9 °C 56 % 46 % 1018,6 hPa 0,0 l/m² 3,6 km/h (1 Bft) N-NO 23 ° 0 min 28 W/m² 9,7 °C 21,9 °C 8,0 km/h (2 Bft)
06.07.2023 20:24 23,3 °C 21,9 °C 56 % 47 % 1018,5 hPa 0,0 l/m² 2,1 km/h (1 Bft) N-NW 339 ° 0 min 28 W/m² 10,1 °C 21,9 °C 3,2 km/h (1 Bft)
06.07.2023 20:25 23,3 °C 21,9 °C 56 % 47 % 1018,5 hPa 0,0 l/m² 4,2 km/h (1 Bft) N-NO 19 ° 0 min 28 W/m² 10,1 °C 21,9 °C 6,4 km/h (2 Bft)
06.07.2023 20:26 23,3 °C 21,9 °C 56 % 47 % 1018,5 hPa 0,0 l/m² 1,9 km/h (1 Bft) N-NO 31 ° 0 min 26 W/m² 10,1 °C 21,9 °C 4,8 km/h (1 Bft)
06.07.2023 20:27 23,3 °C 21,8 °C 56 % 47 % 1018,6 hPa 0,0 l/m² 1,4 km/h (1 Bft) N-NO 17 ° 0 min 26 W/m² 10,0 °C 21,8 °C 1,6 km/h (1 Bft)
06.07.2023 20:28 23,3 °C 21,8 °C 56 % 47 % 1018,5 hPa 0,0 l/m² 3,2 km/h (1 Bft) N-NO 19 ° 0 min 26 W/m² 10,0 °C 21,8 °C 6,4 km/h (2 Bft)
06.07.2023 20:29 23,3 °C 21,8 °C 56 % 47 % 1018,6 hPa 0,0 l/m² 3,9 km/h (1 Bft) N-NO 18 ° 0 min 26 W/m² 10,0 °C 21,8 °C 4,8 km/h (1 Bft)
06.07.2023 20:30 23,3 °C 21,8 °C 56 % 47 % 1018,6 hPa 0,0 l/m² 2,8 km/h (1 Bft) N 355 ° 0 min 26 W/m² 10,0 °C 21,8 °C 3,2 km/h (1 Bft)
06.07.2023 20:32 23,3 °C 21,7 °C 56 % 48 % 1018,5 hPa 0,0 l/m² 1,5 km/h (1 Bft) N 350 ° 0 min 25 W/m² 10,2 °C 21,7 °C 4,8 km/h (1 Bft)
06.07.2023 20:33 23,3 °C 21,7 °C 56 % 48 % 1018,6 hPa 0,0 l/m² 3,8 km/h (1 Bft) N 5 ° 0 min 25 W/m² 10,2 °C 21,7 °C 8,0 km/h (2 Bft)
06.07.2023 20:34 23,3 °C 21,7 °C 56 % 48 % 1018,6 hPa 0,0 l/m² 4,0 km/h (1 Bft) N-NW 346 ° 0 min 25 W/m² 10,2 °C 21,7 °C 6,4 km/h (2 Bft)
06.07.2023 20:35 23,3 °C 21,6 °C 56 % 48 % 1018,6 hPa 0,0 l/m² 3,4 km/h (1 Bft) N 9 ° 0 min 25 W/m² 10,1 °C 21,6 °C 4,8 km/h (1 Bft)
06.07.2023 20:36 23,3 °C 21,6 °C 56 % 48 % 1018,6 hPa 0,0 l/m² 3,0 km/h (1 Bft) N-NW 344 ° 0 min 25 W/m² 10,1 °C 21,6 °C 6,4 km/h (2 Bft)
06.07.2023 20:37 23,3 °C 21,6 °C 56 % 48 % 1018,6 hPa 0,0 l/m² 2,7 km/h (1 Bft) N-NO 14 ° 0 min 23 W/m² 10,1 °C 21,6 °C 4,8 km/h (1 Bft)
06.07.2023 20:38 23,3 °C 21,5 °C 56 % 48 % 1018,5 hPa 0,0 l/m² 3,1 km/h (1 Bft) N-NW 346 ° 0 min 23 W/m² 10,0 °C 21,5 °C 4,8 km/h (1 Bft)
06.07.2023 20:39 23,3 °C 21,4 °C 56 % 48 % 1018,6 hPa 0,0 l/m² 2,3 km/h (1 Bft) N-NW 348 ° 0 min 23 W/m² 9,9 °C 21,4 °C 4,8 km/h (1 Bft)
06.07.2023 20:41 23,3 °C 21,4 °C 56 % 49 % 1018,6 hPa 0,0 l/m² 3,5 km/h (1 Bft) N 350 ° 0 min 21 W/m² 10,2 °C 21,4 °C 4,8 km/h (1 Bft)
06.07.2023 20:43 23,4 °C 21,3 °C 56 % 49 % 1018,5 hPa 0,0 l/m² 3,4 km/h (1 Bft) N 355 ° 0 min 21 W/m² 10,1 °C 21,3 °C 6,4 km/h (2 Bft)
06.07.2023 20:44 23,3 °C 21,3 °C 56 % 49 % 1018,6 hPa 0,0 l/m² 2,6 km/h (1 Bft) N 350 ° 0 min 21 W/m² 10,1 °C 21,3 °C 4,8 km/h (1 Bft)
06.07.2023 20:45 23,3 °C 21,2 °C 56 % 49 % 1018,6 hPa 0,0 l/m² 4,6 km/h (1 Bft) N 355 ° 0 min 21 W/m² 10,1 °C 21,2 °C 4,8 km/h (1 Bft)
06.07.2023 20:46 23,3 °C 21,2 °C 56 % 49 % 1018,6 hPa 0,0 l/m² 3,2 km/h (1 Bft) N-NW 348 ° 0 min 19 W/m² 10,1 °C 21,2 °C 4,8 km/h (1 Bft)
06.07.2023 20:47 23,4 °C 21,2 °C 56 % 49 % 1018,6 hPa 0,0 l/m² 0,5 km/h (0 Bft) N-NW 348 ° 0 min 19 W/m² 10,1 °C 21,2 °C 1,6 km/h (1 Bft)
06.07.2023 20:48 23,4 °C 21,2 °C 56 % 50 % 1018,7 hPa 0,0 l/m² 1,2 km/h (1 Bft) N 349 ° 0 min 19 W/m² 10,4 °C 21,2 °C 3,2 km/h (1 Bft)
06.07.2023 20:49 23,4 °C 21,1 °C 56 % 49 % 1018,6 hPa 0,0 l/m² 2,6 km/h (1 Bft) N 355 ° 0 min 19 W/m² 10,0 °C 21,1 °C 4,8 km/h (1 Bft)
06.07.2023 20:51 23,4 °C 21,0 °C 56 % 50 % 1018,7 hPa 0,0 l/m² 0,7 km/h (0 Bft) N 355 ° 0 min 18 W/m² 10,2 °C 21,0 °C 3,2 km/h (1 Bft)
06.07.2023 20:53 23,4 °C 20,9 °C 56 % 50 % 1018,8 hPa 0,0 l/m² 3,2 km/h (1 Bft) N 9 ° 0 min 18 W/m² 10,1 °C 20,9 °C 4,8 km/h (1 Bft)
06.07.2023 20:54 23,4 °C 20,8 °C 56 % 50 % 1018,7 hPa 0,0 l/m² 1,7 km/h (1 Bft) N 9 ° 0 min 18 W/m² 10,0 °C 20,8 °C 3,2 km/h (1 Bft)
06.07.2023 20:55 23,4 °C 20,8 °C 56 % 50 % 1018,7 hPa 0,0 l/m² 1,0 km/h (0 Bft) N 9 ° 0 min 16 W/m² 10,0 °C 20,8 °C 1,6 km/h (1 Bft)
06.07.2023 20:56 23,4 °C 20,8 °C 56 % 51 % 1018,7 hPa 0,0 l/m² 2,3 km/h (1 Bft) N 355 ° 0 min 16 W/m² 10,3 °C 20,8 °C 3,2 km/h (1 Bft)
06.07.2023 20:57 23,4 °C 20,7 °C 56 % 51 % 1018,7 hPa 0,0 l/m² 1,9 km/h (1 Bft) N 355 ° 0 min 16 W/m² 10,2 °C 20,7 °C 3,2 km/h (1 Bft)
06.07.2023 20:58 23,4 °C 20,7 °C 57 % 51 % 1018,8 hPa 0,0 l/m² 0,2 km/h (0 Bft) N 355 ° 0 min 16 W/m² 10,2 °C 20,7 °C 1,6 km/h (1 Bft)
06.07.2023 20:59 23,4 °C 20,6 °C 57 % 52 % 1018,8 hPa 0,0 l/m² 1,4 km/h (1 Bft) N 5 ° 0 min 16 W/m² 10,4 °C 20,6 °C 3,2 km/h (1 Bft)
06.07.2023 21:01 23,4 °C 20,4 °C 57 % 52 % 1018,8 hPa 0,0 l/m² 1,1 km/h (1 Bft) N-NO 15 ° 0 min 14 W/m² 10,2 °C 20,4 °C 3,2 km/h (1 Bft)
06.07.2023 21:03 23,4 °C 20,3 °C 57 % 52 % 1018,8 hPa 0,0 l/m² 4,7 km/h (1 Bft) N 360 ° 0 min 14 W/m² 10,1 °C 20,3 °C 8,0 km/h (2 Bft)
06.07.2023 21:04 23,4 °C 20,3 °C 57 % 52 % 1018,9 hPa 0,0 l/m² 2,2 km/h (1 Bft) N-NO 28 ° 0 min 12 W/m² 10,1 °C 20,3 °C 6,4 km/h (2 Bft)
06.07.2023 21:05 23,4 °C 20,3 °C 57 % 52 % 1018,8 hPa 0,0 l/m² 2,1 km/h (1 Bft) N-NO 29 ° 0 min 12 W/m² 10,1 °C 20,3 °C 4,8 km/h (1 Bft)
06.07.2023 21:06 23,4 °C 20,2 °C 57 % 52 % 1018,8 hPa 0,0 l/m² 1,5 km/h (1 Bft) N-NO 23 ° 0 min 12 W/m² 10,0 °C 20,2 °C 3,2 km/h (1 Bft)
06.07.2023 21:07 23,4 °C 20,2 °C 57 % 53 % 1018,8 hPa 0,0 l/m² 2,7 km/h (1 Bft) N-NO 26 ° 0 min 12 W/m² 10,3 °C 20,2 °C 4,8 km/h (1 Bft)
06.07.2023 21:08 23,4 °C 20,2 °C 57 % 52 % 1018,8 hPa 0,0 l/m² 2,5 km/h (1 Bft) N-NO 24 ° 0 min 12 W/m² 10,0 °C 20,2 °C 3,2 km/h (1 Bft)
06.07.2023 21:09 23,5 °C 20,2 °C 57 % 53 % 1018,9 hPa 0,0 l/m² 4,2 km/h (1 Bft) N-NO 24 ° 0 min 11 W/m² 10,3 °C 20,2 °C 6,4 km/h (2 Bft)
06.07.2023 21:11 23,5 °C 20,1 °C 57 % 53 % 1018,9 hPa 0,0 l/m² 5,2 km/h (1 Bft) NO 44 ° 0 min 11 W/m² 10,2 °C 20,1 °C 8,0 km/h (2 Bft)
06.07.2023 21:13 23,5 °C 20,1 °C 57 % 54 % 1018,9 hPa 0,0 l/m² 0,4 km/h (0 Bft) NO 44 ° 0 min 9 W/m² 10,5 °C 20,1 °C 1,6 km/h (1 Bft)
06.07.2023 21:14 23,5 °C 19,9 °C 57 % 54 % 1018,9 hPa 0,0 l/m² 3,2 km/h (1 Bft) N-NO 22 ° 0 min 9 W/m² 10,3 °C 19,9 °C 8,0 km/h (2 Bft)
06.07.2023 21:15 23,5 °C 19,9 °C 57 % 53 % 1018,9 hPa 0,0 l/m² 2,6 km/h (1 Bft) N 11 ° 0 min 9 W/m² 10,0 °C 19,9 °C 6,4 km/h (2 Bft)
06.07.2023 21:16 23,5 °C 19,9 °C 57 % 54 % 1018,9 hPa 0,0 l/m² 2,8 km/h (1 Bft) N 5 ° 0 min 9 W/m² 10,3 °C 19,9 °C 4,8 km/h (1 Bft)
06.07.2023 21:17 23,6 °C 19,9 °C 57 % 54 % 1019,0 hPa 0,0 l/m² 2,4 km/h (1 Bft) N-NO 30 ° 0 min 9 W/m² 10,3 °C 19,9 °C 3,2 km/h (1 Bft)
06.07.2023 21:18 23,6 °C 19,8 °C 57 % 53 % 1018,9 hPa 0,0 l/m² 2,2 km/h (1 Bft) N-NO 17 ° 0 min 7 W/m² 9,9 °C 19,8 °C 3,2 km/h (1 Bft)
06.07.2023 21:19 23,5 °C 19,8 °C 57 % 53 % 1019,0 hPa 0,0 l/m² 3,4 km/h (1 Bft) N 5 ° 0 min 7 W/m² 9,9 °C 19,8 °C 4,8 km/h (1 Bft)
06.07.2023 21:21 23,5 °C 19,7 °C 57 % 53 % 1019,0 hPa 0,0 l/m² 3,2 km/h (1 Bft) N 355 ° 0 min 7 W/m² 9,8 °C 19,7 °C 4,8 km/h (1 Bft)
06.07.2023 21:23 23,6 °C 19,6 °C 57 % 54 % 1019,1 hPa 0,0 l/m² 3,2 km/h (1 Bft) N 5 ° 0 min 7 W/m² 10,0 °C 19,6 °C 4,8 km/h (1 Bft)
06.07.2023 21:24 23,6 °C 19,6 °C 57 % 54 % 1019,0 hPa 0,0 l/m² 2,3 km/h (1 Bft) N 5 ° 0 min 5 W/m² 10,0 °C 19,6 °C 4,8 km/h (1 Bft)
06.07.2023 21:25 23,6 °C 19,5 °C 57 % 54 % 1019,0 hPa 0,0 l/m² 1,7 km/h (1 Bft) N 9 ° 0 min 5 W/m² 9,9 °C 19,5 °C 3,2 km/h (1 Bft)
06.07.2023 21:26 23,6 °C 19,4 °C 57 % 54 % 1019,0 hPa 0,0 l/m² 3,1 km/h (1 Bft) N-NO 19 ° 0 min 5 W/m² 9,8 °C 19,4 °C 4,8 km/h (1 Bft)
06.07.2023 21:27 23,6 °C 19,4 °C 57 % 54 % 1019,2 hPa 0,0 l/m² 2,7 km/h (1 Bft) N 5 ° 0 min 5 W/m² 9,8 °C 19,4 °C 3,2 km/h (1 Bft)
06.07.2023 21:28 23,6 °C 19,4 °C 57 % 54 % 1019,1 hPa 0,0 l/m² 3,1 km/h (1 Bft) N 355 ° 0 min 5 W/m² 9,8 °C 19,4 °C 4,8 km/h (1 Bft)
06.07.2023 21:29 23,6 °C 19,3 °C 57 % 54 % 1019,1 hPa 0,0 l/m² 3,8 km/h (1 Bft) N-NO 17 ° 0 min 5 W/m² 9,8 °C 19,3 °C 4,8 km/h (1 Bft)
06.07.2023 21:30 23,6 °C 19,3 °C 57 % 54 % 1019,1 hPa 0,0 l/m² 3,7 km/h (1 Bft) N 355 ° 0 min 0 W/m² 9,8 °C 19,3 °C 4,8 km/h (1 Bft)
06.07.2023 21:32 23,6 °C 19,3 °C 57 % 54 % 1019,1 hPa 0,0 l/m² 4,2 km/h (1 Bft) N 5 ° 0 min 0 W/m² 9,8 °C 19,3 °C 8,0 km/h (2 Bft)
06.07.2023 21:33 23,6 °C 19,2 °C 57 % 54 % 1019,2 hPa 0,0 l/m² 2,4 km/h (1 Bft) N 360 ° 0 min 0 W/m² 9,7 °C 19,2 °C 3,2 km/h (1 Bft)
06.07.2023 21:34 23,6 °C 19,2 °C 57 % 54 % 1019,2 hPa 0,0 l/m² 1,9 km/h (1 Bft) N-NO 22 ° 0 min 0 W/m² 9,7 °C 19,2 °C 4,8 km/h (1 Bft)
06.07.2023 21:35 23,6 °C 19,2 °C 56 % 54 % 1019,2 hPa 0,0 l/m² 2,4 km/h (1 Bft) N-NW 336 ° 0 min 0 W/m² 9,7 °C 19,2 °C 4,8 km/h (1 Bft)
06.07.2023 21:36 23,6 °C 19,1 °C 56 % 54 % 1019,1 hPa 0,0 l/m² 2,2 km/h (1 Bft) N-NO 15 ° 0 min 0 W/m² 9,6 °C 19,1 °C 3,2 km/h (1 Bft)
06.07.2023 21:37 23,6 °C 19,1 °C 56 % 54 % 1019,2 hPa 0,0 l/m² 3,8 km/h (1 Bft) NO 40 ° 0 min 0 W/m² 9,6 °C 19,1 °C 4,8 km/h (1 Bft)
06.07.2023 21:38 23,6 °C 19,1 °C 56 % 54 % 1019,2 hPa 0,0 l/m² 2,6 km/h (1 Bft) N-NO 26 ° 0 min 0 W/m² 9,6 °C 19,1 °C 4,8 km/h (1 Bft)
06.07.2023 21:39 23,6 °C 19,0 °C 56 % 55 % 1019,2 hPa 0,0 l/m² 1,5 km/h (1 Bft) N-NO 28 ° 0 min 0 W/m² 9,8 °C 19,0 °C 3,2 km/h (1 Bft)
06.07.2023 21:41 23,6 °C 18,4 °C 56 % 64 % 1019,2 hPa 0,0 l/m² 0,0 km/h (0 Bft) N-NO 28 ° 0 min 0 W/m² 11,5 °C 18,4 °C 0,0 km/h (0 Bft)
06.07.2023 21:43 23,6 °C 17,8 °C 56 % 66 % 1019,2 hPa 0,0 l/m² 1,6 km/h (1 Bft) O-NO 71 ° 0 min 0 W/m² 11,4 °C 17,8 °C 3,2 km/h (1 Bft)
06.07.2023 21:44 23,6 °C 17,6 °C 56 % 66 % 1019,3 hPa 0,0 l/m² 2,9 km/h (1 Bft) O-NO 71 ° 0 min 0 W/m² 11,2 °C 17,6 °C 3,2 km/h (1 Bft)
06.07.2023 21:46 23,6 °C 17,2 °C 56 % 68 % 1019,3 hPa 0,0 l/m² 2,0 km/h (1 Bft) O-NO 71 ° 0 min 0 W/m² 11,2 °C 17,2 °C 3,2 km/h (1 Bft)
06.07.2023 21:47 23,6 °C 17,0 °C 56 % 68 % 1019,3 hPa 0,0 l/m² 1,6 km/h (1 Bft) O-NO 71 ° 0 min 0 W/m² 11,0 °C 17,0 °C 3,2 km/h (1 Bft)
06.07.2023 21:48 23,5 °C 16,9 °C 56 % 69 % 1019,3 hPa 0,0 l/m² 0,8 km/h (0 Bft) O-NO 71 ° 0 min 0 W/m² 11,2 °C 16,9 °C 1,6 km/h (1 Bft)
06.07.2023 21:49 23,5 °C 16,8 °C 56 % 69 % 1019,3 hPa 0,0 l/m² 1,9 km/h (1 Bft) O-NO 63 ° 0 min 0 W/m² 11,1 °C 16,8 °C 3,2 km/h (1 Bft)
06.07.2023 21:51 23,5 °C 16,8 °C 56 % 66 % 1019,3 hPa 0,0 l/m² 2,6 km/h (1 Bft) NO 46 ° 0 min 0 W/m² 10,4 °C 16,8 °C 4,8 km/h (1 Bft)
06.07.2023 21:53 23,5 °C 17,1 °C 56 % 63 % 1019,3 hPa 0,0 l/m² 3,9 km/h (1 Bft) NO 39 ° 0 min 0 W/m² 10,0 °C 17,1 °C 4,8 km/h (1 Bft)
06.07.2023 21:54 23,5 °C 17,2 °C 56 % 62 % 1019,3 hPa 0,0 l/m² 0,7 km/h (0 Bft) NO 39 ° 0 min 0 W/m² 9,9 °C 17,2 °C 4,8 km/h (1 Bft)
06.07.2023 21:55 23,5 °C 17,2 °C 56 % 63 % 1019,3 hPa 0,0 l/m² 0,5 km/h (0 Bft) NO 38 ° 0 min 0 W/m² 10,1 °C 17,2 °C 1,6 km/h (1 Bft)
06.07.2023 21:56 23,4 °C 17,2 °C 56 % 62 % 1019,4 hPa 0,0 l/m² 0,6 km/h (0 Bft) NO 38 ° 0 min 0 W/m² 9,9 °C 17,2 °C 1,6 km/h (1 Bft)
06.07.2023 21:57 23,5 °C 17,1 °C 56 % 62 % 1019,4 hPa 0,0 l/m² 0,0 km/h (0 Bft) NO 39 ° 0 min 0 W/m² 9,8 °C 17,1 °C 0,0 km/h (0 Bft)
06.07.2023 21:58 23,5 °C 16,8 °C 56 % 64 % 1019,4 hPa 0,0 l/m² 0,0 km/h (0 Bft) NO 39 ° 0 min 0 W/m² 10,0 °C 16,8 °C 0,0 km/h (0 Bft)
06.07.2023 21:59 23,4 °C 16,5 °C 56 % 66 % 1019,4 hPa 0,0 l/m² 0,0 km/h (0 Bft) NO 39 ° 0 min 0 W/m² 10,1 °C 16,5 °C 0,0 km/h (0 Bft)
06.07.2023 22:01 23,4 °C 16,1 °C 56 % 68 % 1019,4 hPa 0,0 l/m² 0,0 km/h (0 Bft) NO 39 ° 0 min 0 W/m² 10,2 °C 16,1 °C 0,0 km/h (0 Bft)
06.07.2023 22:03 23,4 °C 15,8 °C 56 % 70 % 1019,4 hPa 0,0 l/m² 0,8 km/h (0 Bft) NO 39 ° 0 min 0 W/m² 10,3 °C 15,8 °C 1,6 km/h (1 Bft)
06.07.2023 22:04 23,4 °C 15,7 °C 56 % 71 % 1019,5 hPa 0,0 l/m² 0,0 km/h (0 Bft) NO 39 ° 0 min 0 W/m² 10,5 °C 15,7 °C 0,0 km/h (0 Bft)
06.07.2023 22:05 23,4 °C 15,7 °C 56 % 71 % 1019,4 hPa 0,0 l/m² 0,0 km/h (0 Bft) NO 39 ° 0 min 0 W/m² 10,5 °C 15,7 °C 0,0 km/h (0 Bft)
06.07.2023 22:06 23,4 °C 15,7 °C 56 % 71 % 1019,5 hPa 0,0 l/m² 0,0 km/h (0 Bft) NO 39 ° 0 min 0 W/m² 10,5 °C 15,7 °C 0,0 km/h (0 Bft)
06.07.2023 22:07 23,4 °C 15,7 °C 56 % 71 % 1019,5 hPa 0,0 l/m² 0,3 km/h (0 Bft) NO 39 ° 0 min 0 W/m² 10,5 °C 15,7 °C 1,6 km/h (1 Bft)
06.07.2023 22:08 23,4 °C 15,7 °C 56 % 71 % 1019,5 hPa 0,0 l/m² 0,9 km/h (0 Bft) NO 38 ° 0 min 0 W/m² 10,5 °C 15,7 °C 1,6 km/h (1 Bft)
06.07.2023 22:09 23,4 °C 15,7 °C 56 % 70 % 1019,6 hPa 0,0 l/m² 0,1 km/h (0 Bft) NO 39 ° 0 min 0 W/m² 10,2 °C 15,7 °C 1,6 km/h (1 Bft)
06.07.2023 22:11 23,4 °C 15,6 °C 56 % 69 % 1019,5 hPa 0,0 l/m² 0,0 km/h (0 Bft) NO 39 ° 0 min 0 W/m² 9,9 °C 15,6 °C 0,0 km/h (0 Bft)
06.07.2023 22:13 23,4 °C 15,6 °C 56 % 70 % 1019,5 hPa 0,0 l/m² 0,0 km/h (0 Bft) NO 39 ° 0 min 0 W/m² 10,1 °C 15,6 °C 0,0 km/h (0 Bft)
06.07.2023 22:14 23,4 °C 15,6 °C 56 % 70 % 1019,4 hPa 0,0 l/m² 0,0 km/h (0 Bft) NO 39 ° 0 min 0 W/m² 10,1 °C 15,6 °C 0,0 km/h (0 Bft)
06.07.2023 22:15 23,4 °C 15,5 °C 56 % 70 % 1019,5 hPa 0,0 l/m² 0,0 km/h (0 Bft) NO 39 ° 0 min 0 W/m² 10,1 °C 15,5 °C 0,0 km/h (0 Bft)
06.07.2023 22:16 23,4 °C 15,5 °C 56 % 69 % 1019,4 hPa 0,0 l/m² 0,0 km/h (0 Bft) NO 39 ° 0 min 0 W/m² 9,8 °C 15,5 °C 0,0 km/h (0 Bft)
06.07.2023 22:17 23,4 °C 15,5 °C 56 % 68 % 1019,5 hPa 0,0 l/m² 0,0 km/h (0 Bft) NO 38 ° 0 min 0 W/m² 9,6 °C 15,5 °C 0,0 km/h (0 Bft)
06.07.2023 22:18 23,4 °C 15,5 °C 56 % 68 % 1019,5 hPa 0,0 l/m² 0,0 km/h (0 Bft) NO 39 ° 0 min 0 W/m² 9,6 °C 15,5 °C 0,0 km/h (0 Bft)
06.07.2023 22:19 23,3 °C 15,4 °C 56 % 68 % 1019,4 hPa 0,0 l/m² 0,0 km/h (0 Bft) NO 38 ° 0 min 0 W/m² 9,5 °C 15,4 °C 0,0 km/h (0 Bft)
06.07.2023 22:21 23,3 °C 15,2 °C 56 % 68 % 1019,5 hPa 0,0 l/m² 0,0 km/h (0 Bft) NO 39 ° 0 min 0 W/m² 9,3 °C 15,2 °C 0,0 km/h (0 Bft)
06.07.2023 22:23 23,3 °C 14,8 °C 56 % 69 % 1019,4 hPa 0,0 l/m² 0,0 km/h (0 Bft) NO 39 ° 0 min 0 W/m² 9,2 °C 14,8 °C 0,0 km/h (0 Bft)
06.07.2023 22:24 23,4 °C 14,7 °C 56 % 69 % 1019,5 hPa 0,0 l/m² 0,0 km/h (0 Bft) NO 39 ° 0 min 0 W/m² 9,1 °C 14,7 °C 0,0 km/h (0 Bft)
06.07.2023 22:25 23,3 °C 14,7 °C 56 % 69 % 1019,4 hPa 0,0 l/m² 0,0 km/h (0 Bft) NO 39 ° 0 min 0 W/m² 9,1 °C 14,7 °C 0,0 km/h (0 Bft)
06.07.2023 22:26 23,3 °C 14,6 °C 56 % 69 % 1019,5 hPa 0,0 l/m² 0,0 km/h (0 Bft) NO 39 ° 0 min 0 W/m² 9,0 °C 14,6 °C 0,0 km/h (0 Bft)
06.07.2023 22:27 23,3 °C 14,6 °C 56 % 70 % 1019,5 hPa 0,0 l/m² 0,0 km/h (0 Bft) NO 39 ° 0 min 0 W/m² 9,2 °C 14,6 °C 0,0 km/h (0 Bft)
06.07.2023 22:28 23,3 °C 14,7 °C 56 % 70 % 1019,5 hPa 0,0 l/m² 0,0 km/h (0 Bft) NO 38 ° 0 min 0 W/m² 9,3 °C 14,7 °C 0,0 km/h (0 Bft)
06.07.2023 22:29 23,3 °C 14,6 °C 56 % 71 % 1019,5 hPa 0,0 l/m² 0,0 km/h (0 Bft) NO 38 ° 0 min 0 W/m² 9,4 °C 14,6 °C 0,0 km/h (0 Bft)
06.07.2023 22:31 23,3 °C 14,4 °C 56 % 71 % 1019,6 hPa 0,0 l/m² 0,0 km/h (0 Bft) NO 39 ° 0 min 0 W/m² 9,2 °C 14,4 °C 0,0 km/h (0 Bft)
06.07.2023 22:33 23,3 °C 14,2 °C 56 % 72 % 1019,5 hPa 0,0 l/m² 0,0 km/h (0 Bft) NO 38 ° 0 min 0 W/m² 9,2 °C 14,2 °C 0,0 km/h (0 Bft)
06.07.2023 22:34 23,3 °C 14,2 °C 56 % 72 % 1019,5 hPa 0,0 l/m² 0,0 km/h (0 Bft) NO 39 ° 0 min 0 W/m² 9,2 °C 14,2 °C 0,0 km/h (0 Bft)
06.07.2023 22:35 23,3 °C 14,3 °C 56 % 72 % 1019,6 hPa 0,0 l/m² 0,0 km/h (0 Bft) NO 39 ° 0 min 0 W/m² 9,3 °C 14,3 °C 0,0 km/h (0 Bft)
06.07.2023 22:36 23,3 °C 14,2 °C 56 % 72 % 1019,5 hPa 0,0 l/m² 0,0 km/h (0 Bft) NO 38 ° 0 min 0 W/m² 9,2 °C 14,2 °C 0,0 km/h (0 Bft)
06.07.2023 22:37 23,3 °C 14,2 °C 56 % 72 % 1019,6 hPa 0,0 l/m² 0,0 km/h (0 Bft) NO 39 ° 0 min 0 W/m² 9,2 °C 14,2 °C 0,0 km/h (0 Bft)
06.07.2023 22:38 23,3 °C 14,2 °C 56 % 72 % 1019,5 hPa 0,0 l/m² 0,0 km/h (0 Bft) NO 38 ° 0 min 0 W/m² 9,2 °C 14,2 °C 0,0 km/h (0 Bft)
06.07.2023 22:39 23,3 °C 14,1 °C 56 % 72 % 1019,5 hPa 0,0 l/m² 0,0 km/h (0 Bft) NO 39 ° 0 min 0 W/m² 9,1 °C 14,1 °C 0,0 km/h (0 Bft)
06.07.2023 22:41 23,3 °C 13,9 °C 56 % 72 % 1019,6 hPa 0,0 l/m² 0,0 km/h (0 Bft) NO 39 ° 0 min 0 W/m² 8,9 °C 13,9 °C 0,0 km/h (0 Bft)
06.07.2023 22:43 23,3 °C 13,7 °C 56 % 73 % 1019,7 hPa 0,0 l/m² 0,0 km/h (0 Bft) NO 39 ° 0 min 0 W/m² 8,9 °C 13,7 °C 1,6 km/h (1 Bft)
06.07.2023 22:44 23,3 °C 13,7 °C 56 % 74 % 1019,6 hPa 0,0 l/m² 0,0 km/h (0 Bft) NO 39 ° 0 min 0 W/m² 9,2 °C 13,7 °C 0,0 km/h (0 Bft)
06.07.2023 22:45 23,3 °C 13,7 °C 56 % 75 % 1019,7 hPa 0,0 l/m² 0,0 km/h (0 Bft) NO 39 ° 0 min 0 W/m² 9,3 °C 13,7 °C 0,0 km/h (0 Bft)
06.07.2023 22:46 23,3 °C 13,6 °C 56 % 76 % 1019,7 hPa 0,0 l/m² 0,0 km/h (0 Bft) NO 38 ° 0 min 0 W/m² 9,4 °C 13,6 °C 0,0 km/h (0 Bft)
06.07.2023 22:47 23,3 °C 13,5 °C 56 % 77 % 1019,7 hPa 0,0 l/m² 0,0 km/h (0 Bft) NO 39 ° 0 min 0 W/m² 9,5 °C 13,5 °C 0,0 km/h (0 Bft)
06.07.2023 22:48 23,3 °C 13,4 °C 56 % 77 % 1019,7 hPa 0,0 l/m² 0,0 km/h (0 Bft) NO 38 ° 0 min 0 W/m² 9,5 °C 13,4 °C 0,0 km/h (0 Bft)
06.07.2023 22:49 23,3 °C 13,4 °C 56 % 77 % 1019,8 hPa 0,0 l/m² 0,0 km/h (0 Bft) NO 39 ° 0 min 0 W/m² 9,5 °C 13,4 °C 0,0 km/h (0 Bft)
06.07.2023 22:51 23,3 °C 13,3 °C 56 % 79 % 1019,7 hPa 0,0 l/m² 0,0 km/h (0 Bft) NO 38 ° 0 min 0 W/m² 9,7 °C 13,3 °C 0,0 km/h (0 Bft)
06.07.2023 22:53 23,3 °C 13,4 °C 56 % 80 % 1019,7 hPa 0,0 l/m² 0,0 km/h (0 Bft) NO 38 ° 0 min 0 W/m² 10,0 °C 13,4 °C 0,0 km/h (0 Bft)
06.07.2023 22:54 23,3 °C 13,4 °C 56 % 80 % 1019,8 hPa 0,0 l/m² 0,0 km/h (0 Bft) NO 38 ° 0 min 0 W/m² 10,0 °C 13,4 °C 0,0 km/h (0 Bft)
06.07.2023 22:55 23,3 °C 13,4 °C 56 % 81 % 1019,8 hPa 0,0 l/m² 0,0 km/h (0 Bft) NO 38 ° 0 min 0 W/m² 10,2 °C 13,4 °C 0,0 km/h (0 Bft)
06.07.2023 22:56 23,3 °C 13,4 °C 56 % 81 % 1019,8 hPa 0,0 l/m² 0,0 km/h (0 Bft) NO 38 ° 0 min 0 W/m² 10,2 °C 13,4 °C 0,0 km/h (0 Bft)
06.07.2023 22:57 23,3 °C 13,4 °C 56 % 81 % 1019,8 hPa 0,0 l/m² 0,0 km/h (0 Bft) NO 39 ° 0 min 0 W/m² 10,2 °C 13,4 °C 0,0 km/h (0 Bft)
06.07.2023 22:58 23,3 °C 13,4 °C 56 % 81 % 1019,9 hPa 0,0 l/m² 0,0 km/h (0 Bft) NO 39 ° 0 min 0 W/m² 10,2 °C 13,4 °C 0,0 km/h (0 Bft)
06.07.2023 22:59 23,3 °C 13,4 °C 56 % 81 % 1019,8 hPa 0,0 l/m² 0,0 km/h (0 Bft) NO 39 ° 0 min 0 W/m² 10,2 °C 13,4 °C 0,0 km/h (0 Bft)
06.07.2023 23:00 23,3 °C 13,4 °C 56 % 81 % 1019,9 hPa 0,0 l/m² 0,0 km/h (0 Bft) NO 39 ° 0 min 0 W/m² 10,2 °C 13,4 °C 0,0 km/h (0 Bft)
06.07.2023 23:02 23,3 °C 13,3 °C 56 % 82 % 1019,9 hPa 0,0 l/m² 0,0 km/h (0 Bft) NO 39 ° 0 min 0 W/m² 10,3 °C 13,3 °C 0,0 km/h (0 Bft)
06.07.2023 23:03 23,2 °C 13,3 °C 56 % 82 % 1019,9 hPa 0,0 l/m² 0,0 km/h (0 Bft) NO 39 ° 0 min 0 W/m² 10,3 °C 13,3 °C 0,0 km/h (0 Bft)
06.07.2023 23:04 23,3 °C 13,3 °C 56 % 82 % 1019,9 hPa 0,0 l/m² 0,0 km/h (0 Bft) NO 39 ° 0 min 0 W/m² 10,3 °C 13,3 °C 0,0 km/h (0 Bft)
06.07.2023 23:05 23,3 °C 13,3 °C 56 % 82 % 1019,9 hPa 0,0 l/m² 0,0 km/h (0 Bft) NO 38 ° 0 min 0 W/m² 10,3 °C 13,3 °C 0,0 km/h (0 Bft)
06.07.2023 23:06 23,2 °C 13,3 °C 56 % 82 % 1019,9 hPa 0,0 l/m² 0,0 km/h (0 Bft) NO 38 ° 0 min 0 W/m² 10,3 °C 13,3 °C 0,0 km/h (0 Bft)
06.07.2023 23:07 23,3 °C 13,2 °C 56 % 83 % 1020,0 hPa 0,0 l/m² 0,0 km/h (0 Bft) NO 39 ° 0 min 0 W/m² 10,4 °C 13,2 °C 0,0 km/h (0 Bft)
06.07.2023 23:08 23,3 °C 13,2 °C 56 % 83 % 1019,9 hPa 0,0 l/m² 0,0 km/h (0 Bft) NO 39 ° 0 min 0 W/m² 10,4 °C 13,2 °C 0,0 km/h (0 Bft)
06.07.2023 23:09 23,2 °C 13,3 °C 56 % 83 % 1020,0 hPa 0,0 l/m² 0,0 km/h (0 Bft) NO 38 ° 0 min 0 W/m² 10,5 °C 13,3 °C 0,0 km/h (0 Bft)
06.07.2023 23:11 23,3 °C 13,3 °C 56 % 83 % 1020,0 hPa 0,0 l/m² 0,0 km/h (0 Bft) NO 38 ° 0 min 0 W/m² 10,5 °C 13,3 °C 0,0 km/h (0 Bft)
06.07.2023 23:13 23,2 °C 13,2 °C 56 % 83 % 1019,9 hPa 0,0 l/m² 0,0 km/h (0 Bft) NO 38 ° 0 min 0 W/m² 10,4 °C 13,2 °C 0,0 km/h (0 Bft)
06.07.2023 23:14 23,3 °C 13,2 °C 56 % 83 % 1019,9 hPa 0,0 l/m² 0,0 km/h (0 Bft) NO 38 ° 0 min 0 W/m² 10,4 °C 13,2 °C 0,0 km/h (0 Bft)
06.07.2023 23:15 23,2 °C 13,2 °C 56 % 83 % 1020,0 hPa 0,0 l/m² 0,0 km/h (0 Bft) NO 38 ° 0 min 0 W/m² 10,4 °C 13,2 °C 0,0 km/h (0 Bft)
06.07.2023 23:16 23,2 °C 13,2 °C 56 % 84 % 1020,0 hPa 0,0 l/m² 0,0 km/h (0 Bft) N 0 ° 0 min 0 W/m² 10,6 °C 13,2 °C 0,0 km/h (0 Bft)
06.07.2023 23:17 23,2 °C 13,1 °C 56 % 84 % 1020,0 hPa 0,0 l/m² 0,0 km/h (0 Bft) N 0 ° 0 min 0 W/m² 10,5 °C 13,1 °C 0,0 km/h (0 Bft)
06.07.2023 23:23 23,2 °C 12,9 °C 56 % 85 % 1020,1 hPa 0,0 l/m² 0,0 km/h (0 Bft) NO 38 ° 0 min 0 W/m² 10,4 °C 12,9 °C 0,0 km/h (0 Bft)
06.07.2023 23:25 23,2 °C 12,9 °C 56 % 85 % 1020,0 hPa 0,0 l/m² 0,0 km/h (0 Bft) NO 39 ° 0 min 0 W/m² 10,4 °C 12,9 °C 0,0 km/h (0 Bft)
06.07.2023 23:26 23,2 °C 12,9 °C 56 % 85 % 1020,0 hPa 0,0 l/m² 0,0 km/h (0 Bft) NO 39 ° 0 min 0 W/m² 10,4 °C 12,9 °C 0,0 km/h (0 Bft)
06.07.2023 23:27 23,2 °C 12,9 °C 56 % 85 % 1020,2 hPa 0,0 l/m² 0,0 km/h (0 Bft) NO 39 ° 0 min 0 W/m² 10,4 °C 12,9 °C 0,0 km/h (0 Bft)
06.07.2023 23:28 23,2 °C 12,9 °C 56 % 84 % 1020,1 hPa 0,0 l/m² 0,0 km/h (0 Bft) NO 39 ° 0 min 0 W/m² 10,3 °C 12,9 °C 0,0 km/h (0 Bft)
06.07.2023 23:29 23,2 °C 12,8 °C 56 % 85 % 1020,0 hPa 0,0 l/m² 0,0 km/h (0 Bft) NO 39 ° 0 min 0 W/m² 10,3 °C 12,8 °C 0,0 km/h (0 Bft)
06.07.2023 23:32 23,2 °C 12,7 °C 56 % 85 % 1020,1 hPa 0,0 l/m² 0,0 km/h (0 Bft) NO 38 ° 0 min 0 W/m² 10,2 °C 12,7 °C 0,0 km/h (0 Bft)
06.07.2023 23:33 23,2 °C 12,7 °C 56 % 85 % 1020,1 hPa 0,0 l/m² 0,0 km/h (0 Bft) NO 39 ° 0 min 0 W/m² 10,2 °C 12,7 °C 0,0 km/h (0 Bft)
06.07.2023 23:34 23,2 °C 12,6 °C 56 % 85 % 1020,1 hPa 0,0 l/m² 0,0 km/h (0 Bft) NO 39 ° 0 min 0 W/m² 10,1 °C 12,6 °C 0,0 km/h (0 Bft)
06.07.2023 23:35 23,2 °C 12,7 °C 56 % 85 % 1020,1 hPa 0,0 l/m² 0,0 km/h (0 Bft) NO 38 ° 0 min 0 W/m² 10,2 °C 12,7 °C 0,0 km/h (0 Bft)
06.07.2023 23:36 23,2 °C 12,7 °C 56 % 86 % 1020,1 hPa 0,0 l/m² 0,0 km/h (0 Bft) NO 39 ° 0 min 0 W/m² 10,4 °C 12,7 °C 0,0 km/h (0 Bft)
06.07.2023 23:37 23,2 °C 12,7 °C 56 % 86 % 1020,1 hPa 0,0 l/m² 0,0 km/h (0 Bft) NO 38 ° 0 min 0 W/m² 10,4 °C 12,7 °C 0,0 km/h (0 Bft)
06.07.2023 23:38 23,2 °C 12,7 °C 56 % 86 % 1020,1 hPa 0,0 l/m² 0,0 km/h (0 Bft) NO 39 ° 0 min 0 W/m² 10,4 °C 12,7 °C 0,0 km/h (0 Bft)
06.07.2023 23:39 23,2 °C 12,7 °C 56 % 86 % 1020,1 hPa 0,0 l/m² 0,0 km/h (0 Bft) NO 39 ° 0 min 0 W/m² 10,4 °C 12,7 °C 0,0 km/h (0 Bft)
06.07.2023 23:42 23,2 °C 12,4 °C 56 % 85 % 1020,1 hPa 0,0 l/m² 0,0 km/h (0 Bft) NO 39 ° 0 min 0 W/m² 9,9 °C 12,4 °C 0,0 km/h (0 Bft)
06.07.2023 23:43 23,2 °C 12,2 °C 56 % 83 % 1020,1 hPa 0,0 l/m² 0,0 km/h (0 Bft) NO 39 ° 0 min 0 W/m² 9,4 °C 12,2 °C 0,0 km/h (0 Bft)
06.07.2023 23:44 23,2 °C 12,1 °C 56 % 84 % 1020,1 hPa 0,0 l/m² 0,0 km/h (0 Bft) NO 38 ° 0 min 0 W/m² 9,5 °C 12,1 °C 0,0 km/h (0 Bft)
06.07.2023 23:45 23,2 °C 12,0 °C 56 % 84 % 1020,2 hPa 0,0 l/m² 0,0 km/h (0 Bft) NO 39 ° 0 min 0 W/m² 9,4 °C 12,0 °C 0,0 km/h (0 Bft)
06.07.2023 23:46 23,2 °C 11,9 °C 56 % 84 % 1020,1 hPa 0,0 l/m² 0,0 km/h (0 Bft) NO 39 ° 0 min 0 W/m² 9,3 °C 11,9 °C 0,0 km/h (0 Bft)
06.07.2023 23:47 23,2 °C 12,0 °C 56 % 85 % 1020,2 hPa 0,0 l/m² 0,0 km/h (0 Bft) NO 38 ° 0 min 0 W/m² 9,6 °C 12,0 °C 0,0 km/h (0 Bft)
06.07.2023 23:48 23,2 °C 11,9 °C 56 % 84 % 1020,2 hPa 0,0 l/m² 0,0 km/h (0 Bft) NO 38 ° 0 min 0 W/m² 9,3 °C 11,9 °C 0,0 km/h (0 Bft)
06.07.2023 23:49 23,2 °C 11,7 °C 56 % 83 % 1020,1 hPa 0,0 l/m² 0,0 km/h (0 Bft) NO 38 ° 0 min 0 W/m² 8,9 °C 11,7 °C 0,0 km/h (0 Bft)
06.07.2023 23:51 23,2 °C 11,2 °C 56 % 81 % 1020,2 hPa 0,0 l/m² 0,0 km/h (0 Bft) NO 38 ° 0 min 0 W/m² 8,1 °C 11,2 °C 1,6 km/h (1 Bft)
06.07.2023 23:53 23,2 °C 10,8 °C 56 % 82 % 1020,3 hPa 0,0 l/m² 0,0 km/h (0 Bft) NO 38 ° 0 min 0 W/m² 7,9 °C 10,8 °C 0,0 km/h (0 Bft)
06.07.2023 23:54 23,2 °C 10,8 °C 56 % 83 % 1020,3 hPa 0,0 l/m² 0,0 km/h (0 Bft) NO 39 ° 0 min 0 W/m² 8,0 °C 10,8 °C 0,0 km/h (0 Bft)
06.07.2023 23:55 23,2 °C 10,8 °C 56 % 83 % 1020,3 hPa 0,0 l/m² 0,0 km/h (0 Bft) NO 38 ° 0 min 0 W/m² 8,0 °C 10,8 °C 0,0 km/h (0 Bft)
06.07.2023 23:56 23,2 °C 10,8 °C 56 % 83 % 1020,3 hPa 0,0 l/m² 0,0 km/h (0 Bft) NO 38 ° 0 min 0 W/m² 8,0 °C 10,8 °C 0,0 km/h (0 Bft)
06.07.2023 23:57 23,2 °C 10,9 °C 56 % 84 % 1020,2 hPa 0,0 l/m² 0,0 km/h (0 Bft) NO 38 ° 0 min 0 W/m² 8,3 °C 10,9 °C 0,0 km/h (0 Bft)
06.07.2023 23:58 23,2 °C 10,9 °C 56 % 84 % 1020,3 hPa 0,0 l/m² 0,0 km/h (0 Bft) NO 38 ° 0 min 0 W/m² 8,3 °C 10,9 °C 0,0 km/h (0 Bft)
06.07.2023 23:59 23,2 °C 11,1 °C 56 % 85 % 1020,1 hPa 0,0 l/m² 0,0 km/h (0 Bft) NO 38 ° 0 min 0 W/m² 8,7 °C 11,1 °C 0,0 km/h (0 Bft)
_ Min-Zeit 08:13 05:48 15:43 15:15 00:19 - 23:59 - - - - 05:48 05:48 23:59
Minimum _ 22,6 °C 9,2 °C 52 % 33 % 1015,1 hPa - 0,0 km/h (0 Bft) - - - - 7,8 °C 9,2 °C 0,0 km/h (0 Bft)
_ Max-Zeit 21:47 15:09 21:34 06:11 23:58 23:59 10:19 - - 10:55 13:52 08:26 15:13 14:56
Maximum _ 23,6 °C 26,3 °C 57 % 93 % 1020,3 hPa 0,0 l/m² 19,8 km/h
SW (3 Bft)
- - 6 min 1190 W/m² 12,3 °C 25,8 °C 27,4 km/h
SW (5 Bft)
Durchschnitt _ 23,1 °C 18,5 °C 55 % 61 % 1017,5 hPa #0,0 l/m² 5,7 km/h (2 Bft) W - #12:54 h 283 W/m² 9,9 °C 17,9 °C 9,1 km/h (2 Bft)
© 2009 Mathias Hoßbach